<?xml version="1.0" encoding="UTF-8" standalone="no" ?>
<gpx xmlns="http://www.topografix.com/GPX/1/1" xmlns:xsi="http://www.w3.org/2001/XMLSchema-instance" xsi:schemaLocation="http://www.topografix.com/GPX/1/1 http://www.topografix.com/GPX/1/1/gpx.xsd" version="1.1" creator="VisuGPX - https://www.visugpx.com">
  <metadata>
    <name>2024-04-13 Longuesse Villette</name>
  </metadata>
  <trk>
    <name><![CDATA[2024-04-13 Longuesse Villette_1]]></name>
    <trkseg>
      <trkpt lat="49.06242" lon="1.93148">
        <ele>106.6</ele>
        <time>2024-04-13T11:39:51Z</time>
      </trkpt>
      <trkpt lat="49.06248" lon="1.93157">
        <ele>106.1</ele>
        <time>2024-04-13T11:39:56Z</time>
      </trkpt>
      <trkpt lat="49.06248" lon="1.93158">
        <ele>105.5</ele>
        <time>2024-04-13T11:40:01Z</time>
      </trkpt>
      <trkpt lat="49.06253" lon="1.93159">
        <ele>105.5</ele>
        <time>2024-04-13T11:40:06Z</time>
      </trkpt>
      <trkpt lat="49.06259" lon="1.93157">
        <ele>105.5</ele>
        <time>2024-04-13T11:40:12Z</time>
      </trkpt>
      <trkpt lat="49.06265" lon="1.93162">
        <ele>105.5</ele>
        <time>2024-04-13T11:40:18Z</time>
      </trkpt>
      <trkpt lat="49.06271" lon="1.93165">
        <ele>105.5</ele>
        <time>2024-04-13T11:40:24Z</time>
      </trkpt>
      <trkpt lat="49.06272" lon="1.93166">
        <ele>105.5</ele>
        <time>2024-04-13T11:40:30Z</time>
      </trkpt>
      <trkpt lat="49.06272" lon="1.93164">
        <ele>105.5</ele>
        <time>2024-04-13T11:40:35Z</time>
      </trkpt>
      <trkpt lat="49.06272" lon="1.93164">
        <ele>105.5</ele>
        <time>2024-04-13T11:40:40Z</time>
      </trkpt>
      <trkpt lat="49.06271" lon="1.93164">
        <ele>105.2</ele>
        <time>2024-04-13T11:40:45Z</time>
      </trkpt>
      <trkpt lat="49.06273" lon="1.93167">
        <ele>105.5</ele>
        <time>2024-04-13T11:40:50Z</time>
      </trkpt>
      <trkpt lat="49.06282" lon="1.93172">
        <ele>105.8</ele>
        <time>2024-04-13T11:40:56Z</time>
      </trkpt>
      <trkpt lat="49.0629" lon="1.93177">
        <ele>105.8</ele>
        <time>2024-04-13T11:41:02Z</time>
      </trkpt>
      <trkpt lat="49.06299" lon="1.9318">
        <ele>106</ele>
        <time>2024-04-13T11:41:08Z</time>
      </trkpt>
      <trkpt lat="49.06305" lon="1.93186">
        <ele>105.9</ele>
        <time>2024-04-13T11:41:13Z</time>
      </trkpt>
      <trkpt lat="49.06313" lon="1.93185">
        <ele>106.1</ele>
        <time>2024-04-13T11:41:18Z</time>
      </trkpt>
      <trkpt lat="49.06325" lon="1.9319">
        <ele>106.2</ele>
        <time>2024-04-13T11:41:24Z</time>
      </trkpt>
      <trkpt lat="49.06331" lon="1.93205">
        <ele>105.6</ele>
        <time>2024-04-13T11:41:30Z</time>
      </trkpt>
      <trkpt lat="49.06332" lon="1.93216">
        <ele>105.1</ele>
        <time>2024-04-13T11:41:35Z</time>
      </trkpt>
      <trkpt lat="49.06331" lon="1.93226">
        <ele>104.8</ele>
        <time>2024-04-13T11:41:40Z</time>
      </trkpt>
      <trkpt lat="49.0633" lon="1.93234">
        <ele>104.6</ele>
        <time>2024-04-13T11:41:45Z</time>
      </trkpt>
      <trkpt lat="49.0633" lon="1.93244">
        <ele>104.2</ele>
        <time>2024-04-13T11:41:51Z</time>
      </trkpt>
      <trkpt lat="49.06333" lon="1.93256">
        <ele>103.3</ele>
        <time>2024-04-13T11:41:57Z</time>
      </trkpt>
      <trkpt lat="49.06336" lon="1.93268">
        <ele>102.6</ele>
        <time>2024-04-13T11:42:03Z</time>
      </trkpt>
      <trkpt lat="49.06338" lon="1.93278">
        <ele>102.3</ele>
        <time>2024-04-13T11:42:08Z</time>
      </trkpt>
      <trkpt lat="49.06341" lon="1.93289">
        <ele>102.1</ele>
        <time>2024-04-13T11:42:14Z</time>
      </trkpt>
      <trkpt lat="49.06343" lon="1.93299">
        <ele>102.2</ele>
        <time>2024-04-13T11:42:20Z</time>
      </trkpt>
      <trkpt lat="49.06343" lon="1.93305">
        <ele>102.2</ele>
        <time>2024-04-13T11:42:25Z</time>
      </trkpt>
      <trkpt lat="49.06346" lon="1.93314">
        <ele>102.4</ele>
        <time>2024-04-13T11:42:30Z</time>
      </trkpt>
      <trkpt lat="49.06351" lon="1.9332">
        <ele>102.6</ele>
        <time>2024-04-13T11:42:35Z</time>
      </trkpt>
      <trkpt lat="49.06355" lon="1.9333">
        <ele>102.7</ele>
        <time>2024-04-13T11:42:41Z</time>
      </trkpt>
      <trkpt lat="49.06357" lon="1.93338">
        <ele>102.7</ele>
        <time>2024-04-13T11:42:46Z</time>
      </trkpt>
      <trkpt lat="49.06357" lon="1.93347">
        <ele>102.5</ele>
        <time>2024-04-13T11:42:52Z</time>
      </trkpt>
      <trkpt lat="49.06359" lon="1.93354">
        <ele>102.3</ele>
        <time>2024-04-13T11:42:57Z</time>
      </trkpt>
      <trkpt lat="49.0636" lon="1.93363">
        <ele>102.3</ele>
        <time>2024-04-13T11:43:03Z</time>
      </trkpt>
      <trkpt lat="49.06363" lon="1.93369">
        <ele>102.2</ele>
        <time>2024-04-13T11:43:08Z</time>
      </trkpt>
      <trkpt lat="49.06366" lon="1.93379">
        <ele>102</ele>
        <time>2024-04-13T11:43:13Z</time>
      </trkpt>
      <trkpt lat="49.06364" lon="1.93391">
        <ele>101.7</ele>
        <time>2024-04-13T11:43:19Z</time>
      </trkpt>
      <trkpt lat="49.06367" lon="1.93401">
        <ele>101.4</ele>
        <time>2024-04-13T11:43:24Z</time>
      </trkpt>
      <trkpt lat="49.06369" lon="1.93411">
        <ele>101.1</ele>
        <time>2024-04-13T11:43:30Z</time>
      </trkpt>
      <trkpt lat="49.06368" lon="1.93422">
        <ele>100.9</ele>
        <time>2024-04-13T11:43:36Z</time>
      </trkpt>
      <trkpt lat="49.06368" lon="1.93432">
        <ele>100.8</ele>
        <time>2024-04-13T11:43:42Z</time>
      </trkpt>
      <trkpt lat="49.06364" lon="1.93443">
        <ele>100.9</ele>
        <time>2024-04-13T11:43:48Z</time>
      </trkpt>
      <trkpt lat="49.06358" lon="1.93446">
        <ele>101.2</ele>
        <time>2024-04-13T11:43:53Z</time>
      </trkpt>
      <trkpt lat="49.06352" lon="1.93449">
        <ele>101.6</ele>
        <time>2024-04-13T11:43:59Z</time>
      </trkpt>
      <trkpt lat="49.06347" lon="1.93453">
        <ele>101.7</ele>
        <time>2024-04-13T11:44:05Z</time>
      </trkpt>
      <trkpt lat="49.06342" lon="1.93456">
        <ele>101.9</ele>
        <time>2024-04-13T11:44:10Z</time>
      </trkpt>
      <trkpt lat="49.06335" lon="1.93458">
        <ele>102</ele>
        <time>2024-04-13T11:44:16Z</time>
      </trkpt>
      <trkpt lat="49.06329" lon="1.93459">
        <ele>102.2</ele>
        <time>2024-04-13T11:44:22Z</time>
      </trkpt>
      <trkpt lat="49.06325" lon="1.9346">
        <ele>102.5</ele>
        <time>2024-04-13T11:44:28Z</time>
      </trkpt>
      <trkpt lat="49.0632" lon="1.93459">
        <ele>102.8</ele>
        <time>2024-04-13T11:44:34Z</time>
      </trkpt>
      <trkpt lat="49.06315" lon="1.93458">
        <ele>102.8</ele>
        <time>2024-04-13T11:44:40Z</time>
      </trkpt>
      <trkpt lat="49.06315" lon="1.93457">
        <ele>102.7</ele>
        <time>2024-04-13T11:44:46Z</time>
      </trkpt>
      <trkpt lat="49.06316" lon="1.93456">
        <ele>102.6</ele>
        <time>2024-04-13T11:44:52Z</time>
      </trkpt>
      <trkpt lat="49.0631" lon="1.93453">
        <ele>102.5</ele>
        <time>2024-04-13T11:44:57Z</time>
      </trkpt>
      <trkpt lat="49.06304" lon="1.93455">
        <ele>102.5</ele>
        <time>2024-04-13T11:45:03Z</time>
      </trkpt>
      <trkpt lat="49.06299" lon="1.93455">
        <ele>102.6</ele>
        <time>2024-04-13T11:45:08Z</time>
      </trkpt>
      <trkpt lat="49.06293" lon="1.93453">
        <ele>102.9</ele>
        <time>2024-04-13T11:45:14Z</time>
      </trkpt>
      <trkpt lat="49.06291" lon="1.93451">
        <ele>103</ele>
        <time>2024-04-13T11:45:19Z</time>
      </trkpt>
      <trkpt lat="49.06285" lon="1.9345">
        <ele>102.9</ele>
        <time>2024-04-13T11:45:25Z</time>
      </trkpt>
      <trkpt lat="49.06275" lon="1.93445">
        <ele>102.5</ele>
        <time>2024-04-13T11:45:30Z</time>
      </trkpt>
      <trkpt lat="49.06266" lon="1.93444">
        <ele>101.7</ele>
        <time>2024-04-13T11:45:35Z</time>
      </trkpt>
      <trkpt lat="49.06259" lon="1.93441">
        <ele>100.8</ele>
        <time>2024-04-13T11:45:41Z</time>
      </trkpt>
      <trkpt lat="49.06253" lon="1.93434">
        <ele>100.3</ele>
        <time>2024-04-13T11:45:46Z</time>
      </trkpt>
      <trkpt lat="49.06248" lon="1.93433">
        <ele>99.7</ele>
        <time>2024-04-13T11:45:51Z</time>
      </trkpt>
      <trkpt lat="49.0624" lon="1.93431">
        <ele>99</ele>
        <time>2024-04-13T11:45:57Z</time>
      </trkpt>
      <trkpt lat="49.06231" lon="1.93427">
        <ele>98.6</ele>
        <time>2024-04-13T11:46:03Z</time>
      </trkpt>
      <trkpt lat="49.06226" lon="1.93423">
        <ele>98.3</ele>
        <time>2024-04-13T11:46:08Z</time>
      </trkpt>
      <trkpt lat="49.0622" lon="1.93421">
        <ele>98.1</ele>
        <time>2024-04-13T11:46:13Z</time>
      </trkpt>
      <trkpt lat="49.06214" lon="1.9342">
        <ele>98</ele>
        <time>2024-04-13T11:46:18Z</time>
      </trkpt>
      <trkpt lat="49.06212" lon="1.93415">
        <ele>97.8</ele>
        <time>2024-04-13T11:46:23Z</time>
      </trkpt>
      <trkpt lat="49.06206" lon="1.93412">
        <ele>97.5</ele>
        <time>2024-04-13T11:46:29Z</time>
      </trkpt>
      <trkpt lat="49.06201" lon="1.93407">
        <ele>97</ele>
        <time>2024-04-13T11:46:34Z</time>
      </trkpt>
      <trkpt lat="49.06194" lon="1.93403">
        <ele>96.3</ele>
        <time>2024-04-13T11:46:40Z</time>
      </trkpt>
      <trkpt lat="49.06186" lon="1.93405">
        <ele>95.9</ele>
        <time>2024-04-13T11:46:46Z</time>
      </trkpt>
      <trkpt lat="49.06179" lon="1.93405">
        <ele>95.5</ele>
        <time>2024-04-13T11:46:52Z</time>
      </trkpt>
      <trkpt lat="49.06175" lon="1.93403">
        <ele>95.4</ele>
        <time>2024-04-13T11:46:58Z</time>
      </trkpt>
      <trkpt lat="49.06165" lon="1.934">
        <ele>95.2</ele>
        <time>2024-04-13T11:47:03Z</time>
      </trkpt>
      <trkpt lat="49.06155" lon="1.93399">
        <ele>95</ele>
        <time>2024-04-13T11:47:09Z</time>
      </trkpt>
      <trkpt lat="49.06148" lon="1.93401">
        <ele>94.9</ele>
        <time>2024-04-13T11:47:14Z</time>
      </trkpt>
      <trkpt lat="49.06139" lon="1.93401">
        <ele>94.9</ele>
        <time>2024-04-13T11:47:20Z</time>
      </trkpt>
      <trkpt lat="49.06132" lon="1.93403">
        <ele>94.8</ele>
        <time>2024-04-13T11:47:25Z</time>
      </trkpt>
      <trkpt lat="49.06125" lon="1.93405">
        <ele>94.9</ele>
        <time>2024-04-13T11:47:30Z</time>
      </trkpt>
      <trkpt lat="49.06121" lon="1.93407">
        <ele>94.9</ele>
        <time>2024-04-13T11:47:35Z</time>
      </trkpt>
      <trkpt lat="49.06114" lon="1.93409">
        <ele>94.9</ele>
        <time>2024-04-13T11:47:40Z</time>
      </trkpt>
      <trkpt lat="49.06108" lon="1.93412">
        <ele>94.9</ele>
        <time>2024-04-13T11:47:46Z</time>
      </trkpt>
      <trkpt lat="49.06105" lon="1.93418">
        <ele>95</ele>
        <time>2024-04-13T11:47:51Z</time>
      </trkpt>
      <trkpt lat="49.06102" lon="1.93427">
        <ele>95.4</ele>
        <time>2024-04-13T11:47:57Z</time>
      </trkpt>
      <trkpt lat="49.061" lon="1.9343">
        <ele>95.7</ele>
        <time>2024-04-13T11:48:02Z</time>
      </trkpt>
      <trkpt lat="49.06099" lon="1.93431">
        <ele>96.1</ele>
        <time>2024-04-13T11:48:08Z</time>
      </trkpt>
      <trkpt lat="49.06099" lon="1.9343">
        <ele>96.5</ele>
        <time>2024-04-13T11:48:13Z</time>
      </trkpt>
      <trkpt lat="49.06098" lon="1.93429">
        <ele>96.5</ele>
        <time>2024-04-13T11:48:19Z</time>
      </trkpt>
      <trkpt lat="49.06098" lon="1.93428">
        <ele>96.8</ele>
        <time>2024-04-13T11:48:24Z</time>
      </trkpt>
      <trkpt lat="49.06099" lon="1.93429">
        <ele>96.9</ele>
        <time>2024-04-13T11:48:30Z</time>
      </trkpt>
      <trkpt lat="49.06099" lon="1.93429">
        <ele>96.9</ele>
        <time>2024-04-13T11:48:35Z</time>
      </trkpt>
      <trkpt lat="49.06099" lon="1.93429">
        <ele>97</ele>
        <time>2024-04-13T11:48:41Z</time>
      </trkpt>
      <trkpt lat="49.06099" lon="1.93429">
        <ele>97.2</ele>
        <time>2024-04-13T11:48:47Z</time>
      </trkpt>
      <trkpt lat="49.06099" lon="1.93429">
        <ele>97.2</ele>
        <time>2024-04-13T11:48:53Z</time>
      </trkpt>
      <trkpt lat="49.06098" lon="1.93429">
        <ele>97.6</ele>
        <time>2024-04-13T11:48:59Z</time>
      </trkpt>
      <trkpt lat="49.06097" lon="1.93431">
        <ele>98.3</ele>
        <time>2024-04-13T11:49:05Z</time>
      </trkpt>
      <trkpt lat="49.06091" lon="1.93431">
        <ele>98.8</ele>
        <time>2024-04-13T11:49:10Z</time>
      </trkpt>
      <trkpt lat="49.06086" lon="1.93428">
        <ele>99.5</ele>
        <time>2024-04-13T11:49:16Z</time>
      </trkpt>
      <trkpt lat="49.0608" lon="1.93428">
        <ele>99.9</ele>
        <time>2024-04-13T11:49:22Z</time>
      </trkpt>
      <trkpt lat="49.0607" lon="1.93424">
        <ele>100.3</ele>
        <time>2024-04-13T11:49:28Z</time>
      </trkpt>
      <trkpt lat="49.06062" lon="1.93421">
        <ele>100.5</ele>
        <time>2024-04-13T11:49:33Z</time>
      </trkpt>
      <trkpt lat="49.06056" lon="1.9342">
        <ele>100.8</ele>
        <time>2024-04-13T11:49:39Z</time>
      </trkpt>
      <trkpt lat="49.0605" lon="1.93417">
        <ele>101</ele>
        <time>2024-04-13T11:49:44Z</time>
      </trkpt>
      <trkpt lat="49.06043" lon="1.93414">
        <ele>101.2</ele>
        <time>2024-04-13T11:49:50Z</time>
      </trkpt>
      <trkpt lat="49.06038" lon="1.93412">
        <ele>101.4</ele>
        <time>2024-04-13T11:49:56Z</time>
      </trkpt>
      <trkpt lat="49.06033" lon="1.93411">
        <ele>101.5</ele>
        <time>2024-04-13T11:50:02Z</time>
      </trkpt>
      <trkpt lat="49.06024" lon="1.93408">
        <ele>101.5</ele>
        <time>2024-04-13T11:50:08Z</time>
      </trkpt>
      <trkpt lat="49.06016" lon="1.93405">
        <ele>101.3</ele>
        <time>2024-04-13T11:50:13Z</time>
      </trkpt>
      <trkpt lat="49.06009" lon="1.93402">
        <ele>100.6</ele>
        <time>2024-04-13T11:50:19Z</time>
      </trkpt>
      <trkpt lat="49.06003" lon="1.93404">
        <ele>100.3</ele>
        <time>2024-04-13T11:50:24Z</time>
      </trkpt>
      <trkpt lat="49.05994" lon="1.934">
        <ele>100.2</ele>
        <time>2024-04-13T11:50:30Z</time>
      </trkpt>
      <trkpt lat="49.05988" lon="1.934">
        <ele>100.1</ele>
        <time>2024-04-13T11:50:35Z</time>
      </trkpt>
      <trkpt lat="49.05981" lon="1.93398">
        <ele>100</ele>
        <time>2024-04-13T11:50:41Z</time>
      </trkpt>
      <trkpt lat="49.05973" lon="1.93398">
        <ele>100</ele>
        <time>2024-04-13T11:50:47Z</time>
      </trkpt>
      <trkpt lat="49.05966" lon="1.93397">
        <ele>100</ele>
        <time>2024-04-13T11:50:52Z</time>
      </trkpt>
      <trkpt lat="49.05959" lon="1.93398">
        <ele>100.2</ele>
        <time>2024-04-13T11:50:57Z</time>
      </trkpt>
      <trkpt lat="49.0595" lon="1.93401">
        <ele>100.4</ele>
        <time>2024-04-13T11:51:03Z</time>
      </trkpt>
      <trkpt lat="49.05944" lon="1.93404">
        <ele>100.4</ele>
        <time>2024-04-13T11:51:08Z</time>
      </trkpt>
      <trkpt lat="49.05937" lon="1.93406">
        <ele>100.2</ele>
        <time>2024-04-13T11:51:13Z</time>
      </trkpt>
      <trkpt lat="49.05931" lon="1.9341">
        <ele>100.1</ele>
        <time>2024-04-13T11:51:19Z</time>
      </trkpt>
      <trkpt lat="49.05925" lon="1.93415">
        <ele>99.9</ele>
        <time>2024-04-13T11:51:24Z</time>
      </trkpt>
      <trkpt lat="49.05918" lon="1.93417">
        <ele>99.6</ele>
        <time>2024-04-13T11:51:30Z</time>
      </trkpt>
      <trkpt lat="49.05913" lon="1.9342">
        <ele>99.3</ele>
        <time>2024-04-13T11:51:35Z</time>
      </trkpt>
      <trkpt lat="49.05905" lon="1.9342">
        <ele>99</ele>
        <time>2024-04-13T11:51:41Z</time>
      </trkpt>
      <trkpt lat="49.05896" lon="1.93423">
        <ele>98.8</ele>
        <time>2024-04-13T11:51:47Z</time>
      </trkpt>
      <trkpt lat="49.05887" lon="1.93427">
        <ele>98.9</ele>
        <time>2024-04-13T11:51:53Z</time>
      </trkpt>
      <trkpt lat="49.05879" lon="1.9343">
        <ele>99.1</ele>
        <time>2024-04-13T11:51:59Z</time>
      </trkpt>
      <trkpt lat="49.0587" lon="1.93435">
        <ele>99</ele>
        <time>2024-04-13T11:52:05Z</time>
      </trkpt>
      <trkpt lat="49.05864" lon="1.93437">
        <ele>99</ele>
        <time>2024-04-13T11:52:11Z</time>
      </trkpt>
      <trkpt lat="49.05855" lon="1.93446">
        <ele>99.2</ele>
        <time>2024-04-13T11:52:17Z</time>
      </trkpt>
      <trkpt lat="49.05849" lon="1.93449">
        <ele>99.4</ele>
        <time>2024-04-13T11:52:23Z</time>
      </trkpt>
      <trkpt lat="49.05841" lon="1.93456">
        <ele>99.5</ele>
        <time>2024-04-13T11:52:28Z</time>
      </trkpt>
      <trkpt lat="49.05835" lon="1.9346">
        <ele>99.6</ele>
        <time>2024-04-13T11:52:33Z</time>
      </trkpt>
      <trkpt lat="49.05824" lon="1.93466">
        <ele>99.5</ele>
        <time>2024-04-13T11:52:39Z</time>
      </trkpt>
      <trkpt lat="49.05818" lon="1.93469">
        <ele>99.6</ele>
        <time>2024-04-13T11:52:44Z</time>
      </trkpt>
      <trkpt lat="49.05811" lon="1.93473">
        <ele>99.6</ele>
        <time>2024-04-13T11:52:50Z</time>
      </trkpt>
      <trkpt lat="49.05802" lon="1.93479">
        <ele>99.6</ele>
        <time>2024-04-13T11:52:56Z</time>
      </trkpt>
      <trkpt lat="49.05793" lon="1.93489">
        <ele>99.4</ele>
        <time>2024-04-13T11:53:02Z</time>
      </trkpt>
      <trkpt lat="49.0579" lon="1.93493">
        <ele>99.3</ele>
        <time>2024-04-13T11:53:07Z</time>
      </trkpt>
      <trkpt lat="49.05784" lon="1.93493">
        <ele>99.3</ele>
        <time>2024-04-13T11:53:13Z</time>
      </trkpt>
      <trkpt lat="49.05776" lon="1.935">
        <ele>99.4</ele>
        <time>2024-04-13T11:53:19Z</time>
      </trkpt>
      <trkpt lat="49.05771" lon="1.93505">
        <ele>99.4</ele>
        <time>2024-04-13T11:53:24Z</time>
      </trkpt>
      <trkpt lat="49.05764" lon="1.93513">
        <ele>99.4</ele>
        <time>2024-04-13T11:53:30Z</time>
      </trkpt>
      <trkpt lat="49.05756" lon="1.93519">
        <ele>99.5</ele>
        <time>2024-04-13T11:53:36Z</time>
      </trkpt>
      <trkpt lat="49.05746" lon="1.93529">
        <ele>99.5</ele>
        <time>2024-04-13T11:53:42Z</time>
      </trkpt>
      <trkpt lat="49.0574" lon="1.93537">
        <ele>99.5</ele>
        <time>2024-04-13T11:53:48Z</time>
      </trkpt>
      <trkpt lat="49.05735" lon="1.93541">
        <ele>99.5</ele>
        <time>2024-04-13T11:53:54Z</time>
      </trkpt>
      <trkpt lat="49.05728" lon="1.93546">
        <ele>99.3</ele>
        <time>2024-04-13T11:53:59Z</time>
      </trkpt>
      <trkpt lat="49.0572" lon="1.93553">
        <ele>99.2</ele>
        <time>2024-04-13T11:54:05Z</time>
      </trkpt>
      <trkpt lat="49.05714" lon="1.93558">
        <ele>99.2</ele>
        <time>2024-04-13T11:54:10Z</time>
      </trkpt>
      <trkpt lat="49.05709" lon="1.93565">
        <ele>99.2</ele>
        <time>2024-04-13T11:54:16Z</time>
      </trkpt>
      <trkpt lat="49.05702" lon="1.93572">
        <ele>99.3</ele>
        <time>2024-04-13T11:54:22Z</time>
      </trkpt>
      <trkpt lat="49.05697" lon="1.93577">
        <ele>99.4</ele>
        <time>2024-04-13T11:54:27Z</time>
      </trkpt>
      <trkpt lat="49.0569" lon="1.93585">
        <ele>99.4</ele>
        <time>2024-04-13T11:54:33Z</time>
      </trkpt>
      <trkpt lat="49.05684" lon="1.93594">
        <ele>99.4</ele>
        <time>2024-04-13T11:54:39Z</time>
      </trkpt>
      <trkpt lat="49.05678" lon="1.936">
        <ele>99.1</ele>
        <time>2024-04-13T11:54:45Z</time>
      </trkpt>
      <trkpt lat="49.05671" lon="1.93608">
        <ele>98.7</ele>
        <time>2024-04-13T11:54:51Z</time>
      </trkpt>
      <trkpt lat="49.05664" lon="1.93616">
        <ele>98.3</ele>
        <time>2024-04-13T11:54:57Z</time>
      </trkpt>
      <trkpt lat="49.05657" lon="1.93621">
        <ele>98.3</ele>
        <time>2024-04-13T11:55:02Z</time>
      </trkpt>
      <trkpt lat="49.05652" lon="1.9363">
        <ele>98.4</ele>
        <time>2024-04-13T11:55:08Z</time>
      </trkpt>
      <trkpt lat="49.05646" lon="1.93637">
        <ele>98.3</ele>
        <time>2024-04-13T11:55:13Z</time>
      </trkpt>
      <trkpt lat="49.05639" lon="1.93641">
        <ele>98</ele>
        <time>2024-04-13T11:55:19Z</time>
      </trkpt>
      <trkpt lat="49.05632" lon="1.93648">
        <ele>97.7</ele>
        <time>2024-04-13T11:55:25Z</time>
      </trkpt>
      <trkpt lat="49.05627" lon="1.93655">
        <ele>97.6</ele>
        <time>2024-04-13T11:55:30Z</time>
      </trkpt>
      <trkpt lat="49.05621" lon="1.93663">
        <ele>97.5</ele>
        <time>2024-04-13T11:55:36Z</time>
      </trkpt>
      <trkpt lat="49.05615" lon="1.93673">
        <ele>97.9</ele>
        <time>2024-04-13T11:55:42Z</time>
      </trkpt>
      <trkpt lat="49.05607" lon="1.93683">
        <ele>98.2</ele>
        <time>2024-04-13T11:55:48Z</time>
      </trkpt>
      <trkpt lat="49.056" lon="1.9369">
        <ele>98.4</ele>
        <time>2024-04-13T11:55:53Z</time>
      </trkpt>
      <trkpt lat="49.05596" lon="1.93696">
        <ele>98.5</ele>
        <time>2024-04-13T11:55:59Z</time>
      </trkpt>
      <trkpt lat="49.05591" lon="1.93707">
        <ele>98.4</ele>
        <time>2024-04-13T11:56:04Z</time>
      </trkpt>
      <trkpt lat="49.05585" lon="1.93716">
        <ele>98.5</ele>
        <time>2024-04-13T11:56:10Z</time>
      </trkpt>
      <trkpt lat="49.05579" lon="1.93723">
        <ele>98.8</ele>
        <time>2024-04-13T11:56:16Z</time>
      </trkpt>
      <trkpt lat="49.05575" lon="1.9373">
        <ele>98.8</ele>
        <time>2024-04-13T11:56:21Z</time>
      </trkpt>
      <trkpt lat="49.05567" lon="1.93741">
        <ele>98.7</ele>
        <time>2024-04-13T11:56:27Z</time>
      </trkpt>
      <trkpt lat="49.05565" lon="1.93748">
        <ele>98.5</ele>
        <time>2024-04-13T11:56:33Z</time>
      </trkpt>
      <trkpt lat="49.05562" lon="1.93757">
        <ele>98.3</ele>
        <time>2024-04-13T11:56:38Z</time>
      </trkpt>
      <trkpt lat="49.05555" lon="1.93767">
        <ele>98.3</ele>
        <time>2024-04-13T11:56:44Z</time>
      </trkpt>
      <trkpt lat="49.05551" lon="1.93775">
        <ele>98.2</ele>
        <time>2024-04-13T11:56:49Z</time>
      </trkpt>
      <trkpt lat="49.05546" lon="1.93783">
        <ele>98.1</ele>
        <time>2024-04-13T11:56:55Z</time>
      </trkpt>
      <trkpt lat="49.05542" lon="1.93792">
        <ele>98</ele>
        <time>2024-04-13T11:57:01Z</time>
      </trkpt>
      <trkpt lat="49.05539" lon="1.93805">
        <ele>97.9</ele>
        <time>2024-04-13T11:57:07Z</time>
      </trkpt>
      <trkpt lat="49.05533" lon="1.93813">
        <ele>97.9</ele>
        <time>2024-04-13T11:57:12Z</time>
      </trkpt>
      <trkpt lat="49.05528" lon="1.93824">
        <ele>98</ele>
        <time>2024-04-13T11:57:17Z</time>
      </trkpt>
      <trkpt lat="49.05523" lon="1.93835">
        <ele>98.1</ele>
        <time>2024-04-13T11:57:23Z</time>
      </trkpt>
      <trkpt lat="49.05517" lon="1.93845">
        <ele>98</ele>
        <time>2024-04-13T11:57:29Z</time>
      </trkpt>
      <trkpt lat="49.05513" lon="1.93853">
        <ele>97.7</ele>
        <time>2024-04-13T11:57:34Z</time>
      </trkpt>
      <trkpt lat="49.05511" lon="1.93863">
        <ele>97.5</ele>
        <time>2024-04-13T11:57:40Z</time>
      </trkpt>
      <trkpt lat="49.05506" lon="1.93875">
        <ele>97.3</ele>
        <time>2024-04-13T11:57:46Z</time>
      </trkpt>
      <trkpt lat="49.05502" lon="1.93884">
        <ele>97</ele>
        <time>2024-04-13T11:57:51Z</time>
      </trkpt>
      <trkpt lat="49.05497" lon="1.93896">
        <ele>97</ele>
        <time>2024-04-13T11:57:56Z</time>
      </trkpt>
      <trkpt lat="49.05495" lon="1.93907">
        <ele>97.1</ele>
        <time>2024-04-13T11:58:02Z</time>
      </trkpt>
      <trkpt lat="49.05491" lon="1.93916">
        <ele>97</ele>
        <time>2024-04-13T11:58:07Z</time>
      </trkpt>
      <trkpt lat="49.05487" lon="1.93926">
        <ele>96.6</ele>
        <time>2024-04-13T11:58:13Z</time>
      </trkpt>
      <trkpt lat="49.05482" lon="1.93938">
        <ele>96.5</ele>
        <time>2024-04-13T11:58:19Z</time>
      </trkpt>
      <trkpt lat="49.05477" lon="1.9395">
        <ele>96.7</ele>
        <time>2024-04-13T11:58:25Z</time>
      </trkpt>
      <trkpt lat="49.05473" lon="1.93958">
        <ele>96.6</ele>
        <time>2024-04-13T11:58:30Z</time>
      </trkpt>
      <trkpt lat="49.05469" lon="1.93962">
        <ele>96.6</ele>
        <time>2024-04-13T11:58:35Z</time>
      </trkpt>
      <trkpt lat="49.05463" lon="1.9397">
        <ele>96.3</ele>
        <time>2024-04-13T11:58:40Z</time>
      </trkpt>
      <trkpt lat="49.05459" lon="1.93981">
        <ele>96</ele>
        <time>2024-04-13T11:58:45Z</time>
      </trkpt>
      <trkpt lat="49.05455" lon="1.93992">
        <ele>96</ele>
        <time>2024-04-13T11:58:51Z</time>
      </trkpt>
      <trkpt lat="49.05453" lon="1.94003">
        <ele>96</ele>
        <time>2024-04-13T11:58:56Z</time>
      </trkpt>
      <trkpt lat="49.05451" lon="1.94014">
        <ele>95.9</ele>
        <time>2024-04-13T11:59:02Z</time>
      </trkpt>
      <trkpt lat="49.05446" lon="1.94023">
        <ele>95.8</ele>
        <time>2024-04-13T11:59:07Z</time>
      </trkpt>
      <trkpt lat="49.05441" lon="1.94034">
        <ele>95.9</ele>
        <time>2024-04-13T11:59:13Z</time>
      </trkpt>
      <trkpt lat="49.0544" lon="1.94044">
        <ele>96</ele>
        <time>2024-04-13T11:59:18Z</time>
      </trkpt>
      <trkpt lat="49.05436" lon="1.94051">
        <ele>96.1</ele>
        <time>2024-04-13T11:59:23Z</time>
      </trkpt>
      <trkpt lat="49.05432" lon="1.9406">
        <ele>96.2</ele>
        <time>2024-04-13T11:59:28Z</time>
      </trkpt>
      <trkpt lat="49.05429" lon="1.94071">
        <ele>96.5</ele>
        <time>2024-04-13T11:59:34Z</time>
      </trkpt>
      <trkpt lat="49.05425" lon="1.94083">
        <ele>96.6</ele>
        <time>2024-04-13T11:59:40Z</time>
      </trkpt>
      <trkpt lat="49.0542" lon="1.94095">
        <ele>96.6</ele>
        <time>2024-04-13T11:59:46Z</time>
      </trkpt>
      <trkpt lat="49.05416" lon="1.94108">
        <ele>96.7</ele>
        <time>2024-04-13T11:59:52Z</time>
      </trkpt>
      <trkpt lat="49.05413" lon="1.94118">
        <ele>96.8</ele>
        <time>2024-04-13T11:59:58Z</time>
      </trkpt>
      <trkpt lat="49.0541" lon="1.9413">
        <ele>97</ele>
        <time>2024-04-13T12:00:04Z</time>
      </trkpt>
      <trkpt lat="49.05407" lon="1.94137">
        <ele>97</ele>
        <time>2024-04-13T12:00:09Z</time>
      </trkpt>
      <trkpt lat="49.05405" lon="1.94146">
        <ele>97</ele>
        <time>2024-04-13T12:00:14Z</time>
      </trkpt>
      <trkpt lat="49.05404" lon="1.94156">
        <ele>96.9</ele>
        <time>2024-04-13T12:00:20Z</time>
      </trkpt>
      <trkpt lat="49.05403" lon="1.94166">
        <ele>96.6</ele>
        <time>2024-04-13T12:00:25Z</time>
      </trkpt>
      <trkpt lat="49.05401" lon="1.94181">
        <ele>96.2</ele>
        <time>2024-04-13T12:00:31Z</time>
      </trkpt>
      <trkpt lat="49.05398" lon="1.9419">
        <ele>95.7</ele>
        <time>2024-04-13T12:00:36Z</time>
      </trkpt>
      <trkpt lat="49.05394" lon="1.94201">
        <ele>95.2</ele>
        <time>2024-04-13T12:00:42Z</time>
      </trkpt>
      <trkpt lat="49.05391" lon="1.94212">
        <ele>94.7</ele>
        <time>2024-04-13T12:00:48Z</time>
      </trkpt>
      <trkpt lat="49.05388" lon="1.94224">
        <ele>94.4</ele>
        <time>2024-04-13T12:00:54Z</time>
      </trkpt>
      <trkpt lat="49.05386" lon="1.94234">
        <ele>94.3</ele>
        <time>2024-04-13T12:00:59Z</time>
      </trkpt>
      <trkpt lat="49.05384" lon="1.94249">
        <ele>94.1</ele>
        <time>2024-04-13T12:01:05Z</time>
      </trkpt>
      <trkpt lat="49.05382" lon="1.94261">
        <ele>93.8</ele>
        <time>2024-04-13T12:01:10Z</time>
      </trkpt>
      <trkpt lat="49.05379" lon="1.94275">
        <ele>93.5</ele>
        <time>2024-04-13T12:01:16Z</time>
      </trkpt>
      <trkpt lat="49.05378" lon="1.94288">
        <ele>93.3</ele>
        <time>2024-04-13T12:01:22Z</time>
      </trkpt>
      <trkpt lat="49.05376" lon="1.94297">
        <ele>93.3</ele>
        <time>2024-04-13T12:01:27Z</time>
      </trkpt>
      <trkpt lat="49.05374" lon="1.94307">
        <ele>93.2</ele>
        <time>2024-04-13T12:01:33Z</time>
      </trkpt>
      <trkpt lat="49.05371" lon="1.94319">
        <ele>93.1</ele>
        <time>2024-04-13T12:01:38Z</time>
      </trkpt>
      <trkpt lat="49.0537" lon="1.94328">
        <ele>93</ele>
        <time>2024-04-13T12:01:43Z</time>
      </trkpt>
      <trkpt lat="49.05368" lon="1.94343">
        <ele>93</ele>
        <time>2024-04-13T12:01:49Z</time>
      </trkpt>
      <trkpt lat="49.05367" lon="1.94354">
        <ele>93</ele>
        <time>2024-04-13T12:01:54Z</time>
      </trkpt>
      <trkpt lat="49.05366" lon="1.94366">
        <ele>93</ele>
        <time>2024-04-13T12:01:59Z</time>
      </trkpt>
      <trkpt lat="49.05362" lon="1.94377">
        <ele>93</ele>
        <time>2024-04-13T12:02:05Z</time>
      </trkpt>
      <trkpt lat="49.05358" lon="1.94388">
        <ele>93.1</ele>
        <time>2024-04-13T12:02:11Z</time>
      </trkpt>
      <trkpt lat="49.05354" lon="1.94398">
        <ele>93.1</ele>
        <time>2024-04-13T12:02:17Z</time>
      </trkpt>
      <trkpt lat="49.05349" lon="1.94405">
        <ele>93</ele>
        <time>2024-04-13T12:02:22Z</time>
      </trkpt>
      <trkpt lat="49.05342" lon="1.94413">
        <ele>92.8</ele>
        <time>2024-04-13T12:02:28Z</time>
      </trkpt>
      <trkpt lat="49.05334" lon="1.94417">
        <ele>92.6</ele>
        <time>2024-04-13T12:02:34Z</time>
      </trkpt>
      <trkpt lat="49.05326" lon="1.94422">
        <ele>92.7</ele>
        <time>2024-04-13T12:02:39Z</time>
      </trkpt>
      <trkpt lat="49.05323" lon="1.94429">
        <ele>92.5</ele>
        <time>2024-04-13T12:02:44Z</time>
      </trkpt>
      <trkpt lat="49.0532" lon="1.94442">
        <ele>92.1</ele>
        <time>2024-04-13T12:02:50Z</time>
      </trkpt>
      <trkpt lat="49.05321" lon="1.94452">
        <ele>91.8</ele>
        <time>2024-04-13T12:02:55Z</time>
      </trkpt>
      <trkpt lat="49.05318" lon="1.94457">
        <ele>91.6</ele>
        <time>2024-04-13T12:03:00Z</time>
      </trkpt>
      <trkpt lat="49.05316" lon="1.94469">
        <ele>91.9</ele>
        <time>2024-04-13T12:03:06Z</time>
      </trkpt>
      <trkpt lat="49.05311" lon="1.94483">
        <ele>92.4</ele>
        <time>2024-04-13T12:03:12Z</time>
      </trkpt>
      <trkpt lat="49.05309" lon="1.94493">
        <ele>92.9</ele>
        <time>2024-04-13T12:03:17Z</time>
      </trkpt>
      <trkpt lat="49.05304" lon="1.94506">
        <ele>93.4</ele>
        <time>2024-04-13T12:03:23Z</time>
      </trkpt>
      <trkpt lat="49.05301" lon="1.94514">
        <ele>93.8</ele>
        <time>2024-04-13T12:03:28Z</time>
      </trkpt>
      <trkpt lat="49.05296" lon="1.94523">
        <ele>94.4</ele>
        <time>2024-04-13T12:03:34Z</time>
      </trkpt>
      <trkpt lat="49.05293" lon="1.94534">
        <ele>94.8</ele>
        <time>2024-04-13T12:03:40Z</time>
      </trkpt>
      <trkpt lat="49.0529" lon="1.9454">
        <ele>95.1</ele>
        <time>2024-04-13T12:03:45Z</time>
      </trkpt>
      <trkpt lat="49.05283" lon="1.94552">
        <ele>95.4</ele>
        <time>2024-04-13T12:03:51Z</time>
      </trkpt>
      <trkpt lat="49.05279" lon="1.94556">
        <ele>95.5</ele>
        <time>2024-04-13T12:03:56Z</time>
      </trkpt>
      <trkpt lat="49.05275" lon="1.94565">
        <ele>95.6</ele>
        <time>2024-04-13T12:04:02Z</time>
      </trkpt>
      <trkpt lat="49.0527" lon="1.94577">
        <ele>95.8</ele>
        <time>2024-04-13T12:04:08Z</time>
      </trkpt>
      <trkpt lat="49.05264" lon="1.94586">
        <ele>96</ele>
        <time>2024-04-13T12:04:14Z</time>
      </trkpt>
      <trkpt lat="49.05259" lon="1.94595">
        <ele>96.3</ele>
        <time>2024-04-13T12:04:20Z</time>
      </trkpt>
      <trkpt lat="49.05254" lon="1.94604">
        <ele>96.3</ele>
        <time>2024-04-13T12:04:25Z</time>
      </trkpt>
      <trkpt lat="49.0525" lon="1.94612">
        <ele>96.4</ele>
        <time>2024-04-13T12:04:30Z</time>
      </trkpt>
      <trkpt lat="49.05247" lon="1.94622">
        <ele>96.4</ele>
        <time>2024-04-13T12:04:35Z</time>
      </trkpt>
      <trkpt lat="49.05243" lon="1.94635">
        <ele>96.4</ele>
        <time>2024-04-13T12:04:41Z</time>
      </trkpt>
      <trkpt lat="49.05237" lon="1.94647">
        <ele>96.4</ele>
        <time>2024-04-13T12:04:47Z</time>
      </trkpt>
      <trkpt lat="49.05233" lon="1.94658">
        <ele>96.1</ele>
        <time>2024-04-13T12:04:53Z</time>
      </trkpt>
      <trkpt lat="49.05228" lon="1.94667">
        <ele>95.9</ele>
        <time>2024-04-13T12:04:59Z</time>
      </trkpt>
      <trkpt lat="49.05224" lon="1.94677">
        <ele>95.8</ele>
        <time>2024-04-13T12:05:04Z</time>
      </trkpt>
      <trkpt lat="49.05219" lon="1.94683">
        <ele>95.9</ele>
        <time>2024-04-13T12:05:09Z</time>
      </trkpt>
      <trkpt lat="49.05215" lon="1.94692">
        <ele>96.2</ele>
        <time>2024-04-13T12:05:15Z</time>
      </trkpt>
      <trkpt lat="49.0521" lon="1.94702">
        <ele>96.3</ele>
        <time>2024-04-13T12:05:21Z</time>
      </trkpt>
      <trkpt lat="49.05205" lon="1.94709">
        <ele>96.3</ele>
        <time>2024-04-13T12:05:27Z</time>
      </trkpt>
      <trkpt lat="49.05198" lon="1.94717">
        <ele>96.3</ele>
        <time>2024-04-13T12:05:33Z</time>
      </trkpt>
      <trkpt lat="49.05192" lon="1.94726">
        <ele>96.2</ele>
        <time>2024-04-13T12:05:39Z</time>
      </trkpt>
      <trkpt lat="49.05188" lon="1.94734">
        <ele>96.3</ele>
        <time>2024-04-13T12:05:45Z</time>
      </trkpt>
      <trkpt lat="49.05184" lon="1.94742">
        <ele>96.5</ele>
        <time>2024-04-13T12:05:50Z</time>
      </trkpt>
      <trkpt lat="49.0518" lon="1.94749">
        <ele>96.5</ele>
        <time>2024-04-13T12:05:56Z</time>
      </trkpt>
      <trkpt lat="49.05172" lon="1.94752">
        <ele>96.5</ele>
        <time>2024-04-13T12:06:02Z</time>
      </trkpt>
      <trkpt lat="49.05167" lon="1.94756">
        <ele>96.5</ele>
        <time>2024-04-13T12:06:07Z</time>
      </trkpt>
      <trkpt lat="49.05157" lon="1.94765">
        <ele>96.4</ele>
        <time>2024-04-13T12:06:13Z</time>
      </trkpt>
      <trkpt lat="49.0515" lon="1.9477">
        <ele>96.2</ele>
        <time>2024-04-13T12:06:18Z</time>
      </trkpt>
      <trkpt lat="49.05142" lon="1.94779">
        <ele>96.2</ele>
        <time>2024-04-13T12:06:24Z</time>
      </trkpt>
      <trkpt lat="49.05136" lon="1.94789">
        <ele>96</ele>
        <time>2024-04-13T12:06:30Z</time>
      </trkpt>
      <trkpt lat="49.0513" lon="1.948">
        <ele>95.6</ele>
        <time>2024-04-13T12:06:36Z</time>
      </trkpt>
      <trkpt lat="49.05123" lon="1.9481">
        <ele>95.3</ele>
        <time>2024-04-13T12:06:42Z</time>
      </trkpt>
      <trkpt lat="49.05118" lon="1.94819">
        <ele>95.1</ele>
        <time>2024-04-13T12:06:47Z</time>
      </trkpt>
      <trkpt lat="49.05114" lon="1.9483">
        <ele>94.8</ele>
        <time>2024-04-13T12:06:53Z</time>
      </trkpt>
      <trkpt lat="49.05109" lon="1.94836">
        <ele>94.5</ele>
        <time>2024-04-13T12:06:58Z</time>
      </trkpt>
      <trkpt lat="49.05105" lon="1.94843">
        <ele>94.1</ele>
        <time>2024-04-13T12:07:04Z</time>
      </trkpt>
      <trkpt lat="49.05097" lon="1.94853">
        <ele>93.9</ele>
        <time>2024-04-13T12:07:10Z</time>
      </trkpt>
      <trkpt lat="49.05092" lon="1.94863">
        <ele>93.8</ele>
        <time>2024-04-13T12:07:15Z</time>
      </trkpt>
      <trkpt lat="49.05086" lon="1.94871">
        <ele>93.7</ele>
        <time>2024-04-13T12:07:21Z</time>
      </trkpt>
      <trkpt lat="49.05081" lon="1.94877">
        <ele>93.4</ele>
        <time>2024-04-13T12:07:27Z</time>
      </trkpt>
      <trkpt lat="49.0508" lon="1.94873">
        <ele>93.2</ele>
        <time>2024-04-13T12:07:32Z</time>
      </trkpt>
      <trkpt lat="49.05081" lon="1.94874">
        <ele>93.1</ele>
        <time>2024-04-13T12:07:38Z</time>
      </trkpt>
      <trkpt lat="49.0508" lon="1.94874">
        <ele>93.1</ele>
        <time>2024-04-13T12:07:44Z</time>
      </trkpt>
      <trkpt lat="49.0508" lon="1.94875">
        <ele>92.8</ele>
        <time>2024-04-13T12:07:50Z</time>
      </trkpt>
      <trkpt lat="49.05079" lon="1.94875">
        <ele>92.6</ele>
        <time>2024-04-13T12:07:55Z</time>
      </trkpt>
      <trkpt lat="49.05078" lon="1.94875">
        <ele>92.5</ele>
        <time>2024-04-13T12:08:00Z</time>
      </trkpt>
      <trkpt lat="49.05076" lon="1.94877">
        <ele>92.4</ele>
        <time>2024-04-13T12:08:06Z</time>
      </trkpt>
      <trkpt lat="49.05075" lon="1.94875">
        <ele>92.4</ele>
        <time>2024-04-13T12:08:11Z</time>
      </trkpt>
      <trkpt lat="49.0507" lon="1.94865">
        <ele>92.4</ele>
        <time>2024-04-13T12:08:16Z</time>
      </trkpt>
      <trkpt lat="49.05059" lon="1.94856">
        <ele>92.6</ele>
        <time>2024-04-13T12:08:22Z</time>
      </trkpt>
      <trkpt lat="49.05054" lon="1.94856">
        <ele>92.8</ele>
        <time>2024-04-13T12:08:27Z</time>
      </trkpt>
      <trkpt lat="49.05055" lon="1.94855">
        <ele>92.8</ele>
        <time>2024-04-13T12:08:32Z</time>
      </trkpt>
      <trkpt lat="49.05057" lon="1.94854">
        <ele>92.9</ele>
        <time>2024-04-13T12:08:38Z</time>
      </trkpt>
      <trkpt lat="49.05058" lon="1.94855">
        <ele>92.9</ele>
        <time>2024-04-13T12:08:43Z</time>
      </trkpt>
      <trkpt lat="49.05058" lon="1.94855">
        <ele>92.8</ele>
        <time>2024-04-13T12:08:49Z</time>
      </trkpt>
      <trkpt lat="49.05059" lon="1.94856">
        <ele>92.8</ele>
        <time>2024-04-13T12:08:55Z</time>
      </trkpt>
      <trkpt lat="49.05059" lon="1.94857">
        <ele>92.8</ele>
        <time>2024-04-13T12:09:01Z</time>
      </trkpt>
      <trkpt lat="49.05057" lon="1.94855">
        <ele>92.8</ele>
        <time>2024-04-13T12:09:07Z</time>
      </trkpt>
      <trkpt lat="49.05054" lon="1.94857">
        <ele>92.6</ele>
        <time>2024-04-13T12:09:12Z</time>
      </trkpt>
      <trkpt lat="49.0505" lon="1.94866">
        <ele>92.3</ele>
        <time>2024-04-13T12:09:18Z</time>
      </trkpt>
      <trkpt lat="49.05043" lon="1.94871">
        <ele>92.2</ele>
        <time>2024-04-13T12:09:23Z</time>
      </trkpt>
      <trkpt lat="49.05038" lon="1.94877">
        <ele>92.3</ele>
        <time>2024-04-13T12:09:28Z</time>
      </trkpt>
      <trkpt lat="49.05031" lon="1.94884">
        <ele>92.2</ele>
        <time>2024-04-13T12:09:34Z</time>
      </trkpt>
      <trkpt lat="49.05023" lon="1.94889">
        <ele>91.9</ele>
        <time>2024-04-13T12:09:40Z</time>
      </trkpt>
      <trkpt lat="49.05015" lon="1.94896">
        <ele>91.4</ele>
        <time>2024-04-13T12:09:45Z</time>
      </trkpt>
      <trkpt lat="49.05009" lon="1.94904">
        <ele>91</ele>
        <time>2024-04-13T12:09:50Z</time>
      </trkpt>
      <trkpt lat="49.05003" lon="1.94913">
        <ele>90.6</ele>
        <time>2024-04-13T12:09:56Z</time>
      </trkpt>
      <trkpt lat="49.04999" lon="1.9492">
        <ele>90.3</ele>
        <time>2024-04-13T12:10:01Z</time>
      </trkpt>
      <trkpt lat="49.04994" lon="1.94925">
        <ele>90</ele>
        <time>2024-04-13T12:10:06Z</time>
      </trkpt>
      <trkpt lat="49.04987" lon="1.9493">
        <ele>89.6</ele>
        <time>2024-04-13T12:10:12Z</time>
      </trkpt>
      <trkpt lat="49.04981" lon="1.94936">
        <ele>89.1</ele>
        <time>2024-04-13T12:10:17Z</time>
      </trkpt>
      <trkpt lat="49.04973" lon="1.94944">
        <ele>88.7</ele>
        <time>2024-04-13T12:10:23Z</time>
      </trkpt>
      <trkpt lat="49.04964" lon="1.9495">
        <ele>88.5</ele>
        <time>2024-04-13T12:10:29Z</time>
      </trkpt>
      <trkpt lat="49.04955" lon="1.94959">
        <ele>88.5</ele>
        <time>2024-04-13T12:10:35Z</time>
      </trkpt>
      <trkpt lat="49.04951" lon="1.94966">
        <ele>88.5</ele>
        <time>2024-04-13T12:10:40Z</time>
      </trkpt>
      <trkpt lat="49.04945" lon="1.94975">
        <ele>88.7</ele>
        <time>2024-04-13T12:10:46Z</time>
      </trkpt>
      <trkpt lat="49.04939" lon="1.94984">
        <ele>88.9</ele>
        <time>2024-04-13T12:10:51Z</time>
      </trkpt>
      <trkpt lat="49.04933" lon="1.94991">
        <ele>89.2</ele>
        <time>2024-04-13T12:10:57Z</time>
      </trkpt>
      <trkpt lat="49.04927" lon="1.94997">
        <ele>89.4</ele>
        <time>2024-04-13T12:11:02Z</time>
      </trkpt>
      <trkpt lat="49.0492" lon="1.95001">
        <ele>89.5</ele>
        <time>2024-04-13T12:11:08Z</time>
      </trkpt>
      <trkpt lat="49.04914" lon="1.95007">
        <ele>89.6</ele>
        <time>2024-04-13T12:11:13Z</time>
      </trkpt>
      <trkpt lat="49.04907" lon="1.95013">
        <ele>89.5</ele>
        <time>2024-04-13T12:11:18Z</time>
      </trkpt>
      <trkpt lat="49.04902" lon="1.95019">
        <ele>89.3</ele>
        <time>2024-04-13T12:11:24Z</time>
      </trkpt>
      <trkpt lat="49.04894" lon="1.9503">
        <ele>89.1</ele>
        <time>2024-04-13T12:11:30Z</time>
      </trkpt>
      <trkpt lat="49.04889" lon="1.95039">
        <ele>89</ele>
        <time>2024-04-13T12:11:35Z</time>
      </trkpt>
      <trkpt lat="49.04883" lon="1.95047">
        <ele>88.9</ele>
        <time>2024-04-13T12:11:40Z</time>
      </trkpt>
      <trkpt lat="49.04877" lon="1.95054">
        <ele>88.9</ele>
        <time>2024-04-13T12:11:46Z</time>
      </trkpt>
      <trkpt lat="49.04869" lon="1.95062">
        <ele>88.9</ele>
        <time>2024-04-13T12:11:51Z</time>
      </trkpt>
      <trkpt lat="49.04863" lon="1.95067">
        <ele>88.8</ele>
        <time>2024-04-13T12:11:56Z</time>
      </trkpt>
      <trkpt lat="49.04858" lon="1.95076">
        <ele>88.5</ele>
        <time>2024-04-13T12:12:02Z</time>
      </trkpt>
      <trkpt lat="49.04852" lon="1.95085">
        <ele>88.1</ele>
        <time>2024-04-13T12:12:08Z</time>
      </trkpt>
      <trkpt lat="49.04846" lon="1.95091">
        <ele>87.7</ele>
        <time>2024-04-13T12:12:13Z</time>
      </trkpt>
      <trkpt lat="49.04842" lon="1.951">
        <ele>87.4</ele>
        <time>2024-04-13T12:12:18Z</time>
      </trkpt>
      <trkpt lat="49.04831" lon="1.95103">
        <ele>87</ele>
        <time>2024-04-13T12:12:24Z</time>
      </trkpt>
      <trkpt lat="49.04823" lon="1.95108">
        <ele>86.9</ele>
        <time>2024-04-13T12:12:30Z</time>
      </trkpt>
      <trkpt lat="49.04818" lon="1.95113">
        <ele>87</ele>
        <time>2024-04-13T12:12:35Z</time>
      </trkpt>
      <trkpt lat="49.0481" lon="1.95118">
        <ele>87.1</ele>
        <time>2024-04-13T12:12:41Z</time>
      </trkpt>
      <trkpt lat="49.04805" lon="1.95119">
        <ele>87.2</ele>
        <time>2024-04-13T12:12:46Z</time>
      </trkpt>
      <trkpt lat="49.04796" lon="1.95118">
        <ele>87.3</ele>
        <time>2024-04-13T12:12:52Z</time>
      </trkpt>
      <trkpt lat="49.04788" lon="1.95118">
        <ele>87.3</ele>
        <time>2024-04-13T12:12:58Z</time>
      </trkpt>
      <trkpt lat="49.04779" lon="1.95116">
        <ele>87.2</ele>
        <time>2024-04-13T12:13:03Z</time>
      </trkpt>
      <trkpt lat="49.04772" lon="1.95112">
        <ele>87.1</ele>
        <time>2024-04-13T12:13:08Z</time>
      </trkpt>
      <trkpt lat="49.04766" lon="1.95109">
        <ele>87.1</ele>
        <time>2024-04-13T12:13:14Z</time>
      </trkpt>
      <trkpt lat="49.0476" lon="1.9511">
        <ele>87.1</ele>
        <time>2024-04-13T12:13:19Z</time>
      </trkpt>
      <trkpt lat="49.04752" lon="1.95109">
        <ele>87</ele>
        <time>2024-04-13T12:13:25Z</time>
      </trkpt>
      <trkpt lat="49.04746" lon="1.95109">
        <ele>87</ele>
        <time>2024-04-13T12:13:30Z</time>
      </trkpt>
      <trkpt lat="49.04736" lon="1.95113">
        <ele>86.9</ele>
        <time>2024-04-13T12:13:36Z</time>
      </trkpt>
      <trkpt lat="49.04729" lon="1.95114">
        <ele>86.5</ele>
        <time>2024-04-13T12:13:42Z</time>
      </trkpt>
      <trkpt lat="49.04721" lon="1.95107">
        <ele>86</ele>
        <time>2024-04-13T12:13:48Z</time>
      </trkpt>
      <trkpt lat="49.04713" lon="1.95107">
        <ele>85.6</ele>
        <time>2024-04-13T12:13:54Z</time>
      </trkpt>
      <trkpt lat="49.04707" lon="1.95107">
        <ele>85.3</ele>
        <time>2024-04-13T12:13:59Z</time>
      </trkpt>
      <trkpt lat="49.04697" lon="1.95105">
        <ele>85.3</ele>
        <time>2024-04-13T12:14:05Z</time>
      </trkpt>
      <trkpt lat="49.04687" lon="1.95103">
        <ele>85.4</ele>
        <time>2024-04-13T12:14:11Z</time>
      </trkpt>
      <trkpt lat="49.04681" lon="1.95102">
        <ele>86</ele>
        <time>2024-04-13T12:14:17Z</time>
      </trkpt>
      <trkpt lat="49.04675" lon="1.95106">
        <ele>86.6</ele>
        <time>2024-04-13T12:14:23Z</time>
      </trkpt>
      <trkpt lat="49.04675" lon="1.95106">
        <ele>86.9</ele>
        <time>2024-04-13T12:14:28Z</time>
      </trkpt>
      <trkpt lat="49.04676" lon="1.95106">
        <ele>87</ele>
        <time>2024-04-13T12:14:34Z</time>
      </trkpt>
      <trkpt lat="49.04675" lon="1.95108">
        <ele>87.7</ele>
        <time>2024-04-13T12:14:39Z</time>
      </trkpt>
      <trkpt lat="49.04677" lon="1.95109">
        <ele>87.9</ele>
        <time>2024-04-13T12:14:44Z</time>
      </trkpt>
      <trkpt lat="49.04677" lon="1.95109">
        <ele>88.1</ele>
        <time>2024-04-13T12:14:50Z</time>
      </trkpt>
      <trkpt lat="49.04678" lon="1.95109">
        <ele>88.7</ele>
        <time>2024-04-13T12:14:55Z</time>
      </trkpt>
      <trkpt lat="49.04677" lon="1.95107">
        <ele>89.3</ele>
        <time>2024-04-13T12:15:00Z</time>
      </trkpt>
      <trkpt lat="49.04677" lon="1.95106">
        <ele>89.7</ele>
        <time>2024-04-13T12:15:05Z</time>
      </trkpt>
      <trkpt lat="49.04677" lon="1.95107">
        <ele>90.3</ele>
        <time>2024-04-13T12:15:11Z</time>
      </trkpt>
      <trkpt lat="49.04677" lon="1.95107">
        <ele>90.4</ele>
        <time>2024-04-13T12:15:17Z</time>
      </trkpt>
      <trkpt lat="49.04677" lon="1.95107">
        <ele>90.5</ele>
        <time>2024-04-13T12:15:23Z</time>
      </trkpt>
      <trkpt lat="49.04676" lon="1.95106">
        <ele>91</ele>
        <time>2024-04-13T12:15:29Z</time>
      </trkpt>
      <trkpt lat="49.04668" lon="1.95099">
        <ele>91.5</ele>
        <time>2024-04-13T12:15:35Z</time>
      </trkpt>
      <trkpt lat="49.04662" lon="1.95096">
        <ele>92</ele>
        <time>2024-04-13T12:15:40Z</time>
      </trkpt>
      <trkpt lat="49.04656" lon="1.95096">
        <ele>92.6</ele>
        <time>2024-04-13T12:15:45Z</time>
      </trkpt>
      <trkpt lat="49.0465" lon="1.9509">
        <ele>92.8</ele>
        <time>2024-04-13T12:15:51Z</time>
      </trkpt>
      <trkpt lat="49.04644" lon="1.95083">
        <ele>93</ele>
        <time>2024-04-13T12:15:57Z</time>
      </trkpt>
      <trkpt lat="49.04639" lon="1.95079">
        <ele>92.8</ele>
        <time>2024-04-13T12:16:03Z</time>
      </trkpt>
      <trkpt lat="49.04634" lon="1.95074">
        <ele>92.6</ele>
        <time>2024-04-13T12:16:08Z</time>
      </trkpt>
      <trkpt lat="49.04627" lon="1.95072">
        <ele>92.4</ele>
        <time>2024-04-13T12:16:14Z</time>
      </trkpt>
      <trkpt lat="49.04621" lon="1.95069">
        <ele>92.3</ele>
        <time>2024-04-13T12:16:19Z</time>
      </trkpt>
      <trkpt lat="49.04614" lon="1.95064">
        <ele>92.3</ele>
        <time>2024-04-13T12:16:25Z</time>
      </trkpt>
      <trkpt lat="49.04608" lon="1.95059">
        <ele>92.4</ele>
        <time>2024-04-13T12:16:30Z</time>
      </trkpt>
      <trkpt lat="49.046" lon="1.95054">
        <ele>92.7</ele>
        <time>2024-04-13T12:16:36Z</time>
      </trkpt>
      <trkpt lat="49.04593" lon="1.9505">
        <ele>93.2</ele>
        <time>2024-04-13T12:16:41Z</time>
      </trkpt>
      <trkpt lat="49.04587" lon="1.95046">
        <ele>93.5</ele>
        <time>2024-04-13T12:16:46Z</time>
      </trkpt>
      <trkpt lat="49.04579" lon="1.95038">
        <ele>93.9</ele>
        <time>2024-04-13T12:16:52Z</time>
      </trkpt>
      <trkpt lat="49.04572" lon="1.95032">
        <ele>94.1</ele>
        <time>2024-04-13T12:16:57Z</time>
      </trkpt>
      <trkpt lat="49.04565" lon="1.95031">
        <ele>94.4</ele>
        <time>2024-04-13T12:17:03Z</time>
      </trkpt>
      <trkpt lat="49.04561" lon="1.95032">
        <ele>94.4</ele>
        <time>2024-04-13T12:17:08Z</time>
      </trkpt>
      <trkpt lat="49.04562" lon="1.95032">
        <ele>94.4</ele>
        <time>2024-04-13T12:17:14Z</time>
      </trkpt>
      <trkpt lat="49.04563" lon="1.95032">
        <ele>94.7</ele>
        <time>2024-04-13T12:17:20Z</time>
      </trkpt>
      <trkpt lat="49.04562" lon="1.95033">
        <ele>94.7</ele>
        <time>2024-04-13T12:17:25Z</time>
      </trkpt>
      <trkpt lat="49.04558" lon="1.95023">
        <ele>94.6</ele>
        <time>2024-04-13T12:17:30Z</time>
      </trkpt>
      <trkpt lat="49.04555" lon="1.95015">
        <ele>94.2</ele>
        <time>2024-04-13T12:17:35Z</time>
      </trkpt>
      <trkpt lat="49.04546" lon="1.95005">
        <ele>93.9</ele>
        <time>2024-04-13T12:17:41Z</time>
      </trkpt>
      <trkpt lat="49.04542" lon="1.95001">
        <ele>93.9</ele>
        <time>2024-04-13T12:17:46Z</time>
      </trkpt>
      <trkpt lat="49.04536" lon="1.94998">
        <ele>94</ele>
        <time>2024-04-13T12:17:52Z</time>
      </trkpt>
      <trkpt lat="49.04532" lon="1.94998">
        <ele>93.7</ele>
        <time>2024-04-13T12:17:58Z</time>
      </trkpt>
      <trkpt lat="49.04524" lon="1.94994">
        <ele>93.5</ele>
        <time>2024-04-13T12:18:04Z</time>
      </trkpt>
      <trkpt lat="49.04517" lon="1.9499">
        <ele>93.5</ele>
        <time>2024-04-13T12:18:10Z</time>
      </trkpt>
      <trkpt lat="49.0451" lon="1.94984">
        <ele>93.1</ele>
        <time>2024-04-13T12:18:16Z</time>
      </trkpt>
      <trkpt lat="49.04504" lon="1.9498">
        <ele>92.5</ele>
        <time>2024-04-13T12:18:22Z</time>
      </trkpt>
      <trkpt lat="49.04502" lon="1.94968">
        <ele>92</ele>
        <time>2024-04-13T12:18:28Z</time>
      </trkpt>
      <trkpt lat="49.04503" lon="1.94953">
        <ele>91.5</ele>
        <time>2024-04-13T12:18:34Z</time>
      </trkpt>
      <trkpt lat="49.04505" lon="1.94943">
        <ele>91.4</ele>
        <time>2024-04-13T12:18:40Z</time>
      </trkpt>
      <trkpt lat="49.04506" lon="1.94931">
        <ele>91.4</ele>
        <time>2024-04-13T12:18:45Z</time>
      </trkpt>
      <trkpt lat="49.04506" lon="1.94918">
        <ele>91.2</ele>
        <time>2024-04-13T12:18:51Z</time>
      </trkpt>
      <trkpt lat="49.04507" lon="1.94907">
        <ele>91.2</ele>
        <time>2024-04-13T12:18:56Z</time>
      </trkpt>
      <trkpt lat="49.04508" lon="1.94897">
        <ele>91.2</ele>
        <time>2024-04-13T12:19:01Z</time>
      </trkpt>
      <trkpt lat="49.0451" lon="1.94887">
        <ele>91.3</ele>
        <time>2024-04-13T12:19:07Z</time>
      </trkpt>
      <trkpt lat="49.0451" lon="1.94876">
        <ele>91.3</ele>
        <time>2024-04-13T12:19:12Z</time>
      </trkpt>
      <trkpt lat="49.04511" lon="1.94863">
        <ele>91.1</ele>
        <time>2024-04-13T12:19:17Z</time>
      </trkpt>
      <trkpt lat="49.04512" lon="1.94852">
        <ele>91</ele>
        <time>2024-04-13T12:19:23Z</time>
      </trkpt>
      <trkpt lat="49.04512" lon="1.94842">
        <ele>90.8</ele>
        <time>2024-04-13T12:19:28Z</time>
      </trkpt>
      <trkpt lat="49.0451" lon="1.94833">
        <ele>90.5</ele>
        <time>2024-04-13T12:19:33Z</time>
      </trkpt>
      <trkpt lat="49.04505" lon="1.94821">
        <ele>90.1</ele>
        <time>2024-04-13T12:19:39Z</time>
      </trkpt>
      <trkpt lat="49.04502" lon="1.94812">
        <ele>90.1</ele>
        <time>2024-04-13T12:19:45Z</time>
      </trkpt>
      <trkpt lat="49.045" lon="1.94804">
        <ele>90</ele>
        <time>2024-04-13T12:19:50Z</time>
      </trkpt>
      <trkpt lat="49.04498" lon="1.94793">
        <ele>90</ele>
        <time>2024-04-13T12:19:56Z</time>
      </trkpt>
      <trkpt lat="49.04494" lon="1.94782">
        <ele>89.8</ele>
        <time>2024-04-13T12:20:02Z</time>
      </trkpt>
      <trkpt lat="49.04493" lon="1.94772">
        <ele>89.7</ele>
        <time>2024-04-13T12:20:07Z</time>
      </trkpt>
      <trkpt lat="49.04491" lon="1.94761">
        <ele>89.5</ele>
        <time>2024-04-13T12:20:13Z</time>
      </trkpt>
      <trkpt lat="49.04487" lon="1.94752">
        <ele>89.5</ele>
        <time>2024-04-13T12:20:18Z</time>
      </trkpt>
      <trkpt lat="49.04483" lon="1.94742">
        <ele>89.7</ele>
        <time>2024-04-13T12:20:24Z</time>
      </trkpt>
      <trkpt lat="49.04479" lon="1.94732">
        <ele>89.9</ele>
        <time>2024-04-13T12:20:29Z</time>
      </trkpt>
      <trkpt lat="49.04476" lon="1.94722">
        <ele>90</ele>
        <time>2024-04-13T12:20:34Z</time>
      </trkpt>
      <trkpt lat="49.04473" lon="1.94711">
        <ele>90.1</ele>
        <time>2024-04-13T12:20:40Z</time>
      </trkpt>
      <trkpt lat="49.04473" lon="1.947">
        <ele>90.4</ele>
        <time>2024-04-13T12:20:45Z</time>
      </trkpt>
      <trkpt lat="49.04471" lon="1.9469">
        <ele>90.5</ele>
        <time>2024-04-13T12:20:51Z</time>
      </trkpt>
      <trkpt lat="49.04467" lon="1.94675">
        <ele>90.7</ele>
        <time>2024-04-13T12:20:57Z</time>
      </trkpt>
      <trkpt lat="49.04466" lon="1.94666">
        <ele>90.8</ele>
        <time>2024-04-13T12:21:03Z</time>
      </trkpt>
      <trkpt lat="49.04463" lon="1.94655">
        <ele>90.9</ele>
        <time>2024-04-13T12:21:09Z</time>
      </trkpt>
      <trkpt lat="49.0446" lon="1.94645">
        <ele>90.7</ele>
        <time>2024-04-13T12:21:15Z</time>
      </trkpt>
      <trkpt lat="49.04457" lon="1.94636">
        <ele>90.4</ele>
        <time>2024-04-13T12:21:20Z</time>
      </trkpt>
      <trkpt lat="49.04459" lon="1.94632">
        <ele>90.3</ele>
        <time>2024-04-13T12:21:26Z</time>
      </trkpt>
      <trkpt lat="49.0446" lon="1.94634">
        <ele>90.3</ele>
        <time>2024-04-13T12:21:31Z</time>
      </trkpt>
      <trkpt lat="49.04462" lon="1.94635">
        <ele>90.3</ele>
        <time>2024-04-13T12:21:37Z</time>
      </trkpt>
      <trkpt lat="49.04464" lon="1.94633">
        <ele>90.3</ele>
        <time>2024-04-13T12:21:42Z</time>
      </trkpt>
      <trkpt lat="49.04464" lon="1.94633">
        <ele>90.1</ele>
        <time>2024-04-13T12:21:48Z</time>
      </trkpt>
      <trkpt lat="49.04462" lon="1.94633">
        <ele>90</ele>
        <time>2024-04-13T12:21:53Z</time>
      </trkpt>
      <trkpt lat="49.0446" lon="1.9463">
        <ele>89.8</ele>
        <time>2024-04-13T12:21:59Z</time>
      </trkpt>
      <trkpt lat="49.04461" lon="1.9463">
        <ele>89.5</ele>
        <time>2024-04-13T12:22:05Z</time>
      </trkpt>
      <trkpt lat="49.04458" lon="1.94627">
        <ele>89.3</ele>
        <time>2024-04-13T12:22:12Z</time>
      </trkpt>
      <trkpt lat="49.04458" lon="1.94626">
        <ele>89.2</ele>
        <time>2024-04-13T12:22:17Z</time>
      </trkpt>
      <trkpt lat="49.04458" lon="1.94626">
        <ele>89.1</ele>
        <time>2024-04-13T12:22:23Z</time>
      </trkpt>
      <trkpt lat="49.04458" lon="1.94628">
        <ele>88.9</ele>
        <time>2024-04-13T12:22:28Z</time>
      </trkpt>
      <trkpt lat="49.04457" lon="1.94628">
        <ele>88.6</ele>
        <time>2024-04-13T12:22:34Z</time>
      </trkpt>
      <trkpt lat="49.04456" lon="1.94628">
        <ele>88.6</ele>
        <time>2024-04-13T12:22:39Z</time>
      </trkpt>
      <trkpt lat="49.04455" lon="1.94621">
        <ele>88.6</ele>
        <time>2024-04-13T12:22:45Z</time>
      </trkpt>
      <trkpt lat="49.04453" lon="1.94611">
        <ele>88.5</ele>
        <time>2024-04-13T12:22:51Z</time>
      </trkpt>
      <trkpt lat="49.04448" lon="1.946">
        <ele>88.4</ele>
        <time>2024-04-13T12:22:57Z</time>
      </trkpt>
      <trkpt lat="49.04445" lon="1.94589">
        <ele>88.5</ele>
        <time>2024-04-13T12:23:02Z</time>
      </trkpt>
      <trkpt lat="49.04442" lon="1.94577">
        <ele>88.5</ele>
        <time>2024-04-13T12:23:08Z</time>
      </trkpt>
      <trkpt lat="49.0444" lon="1.94571">
        <ele>88.4</ele>
        <time>2024-04-13T12:23:13Z</time>
      </trkpt>
      <trkpt lat="49.04438" lon="1.94563">
        <ele>88.6</ele>
        <time>2024-04-13T12:23:19Z</time>
      </trkpt>
      <trkpt lat="49.04435" lon="1.94553">
        <ele>88.7</ele>
        <time>2024-04-13T12:23:24Z</time>
      </trkpt>
      <trkpt lat="49.04431" lon="1.94542">
        <ele>88.8</ele>
        <time>2024-04-13T12:23:30Z</time>
      </trkpt>
      <trkpt lat="49.04427" lon="1.9453">
        <ele>89</ele>
        <time>2024-04-13T12:23:36Z</time>
      </trkpt>
      <trkpt lat="49.04424" lon="1.94524">
        <ele>89.1</ele>
        <time>2024-04-13T12:23:41Z</time>
      </trkpt>
      <trkpt lat="49.0442" lon="1.94514">
        <ele>88.9</ele>
        <time>2024-04-13T12:23:46Z</time>
      </trkpt>
      <trkpt lat="49.04417" lon="1.94503">
        <ele>88.8</ele>
        <time>2024-04-13T12:23:51Z</time>
      </trkpt>
      <trkpt lat="49.04415" lon="1.94491">
        <ele>88.6</ele>
        <time>2024-04-13T12:23:57Z</time>
      </trkpt>
      <trkpt lat="49.04412" lon="1.94481">
        <ele>88.4</ele>
        <time>2024-04-13T12:24:02Z</time>
      </trkpt>
      <trkpt lat="49.04409" lon="1.94473">
        <ele>87.9</ele>
        <time>2024-04-13T12:24:08Z</time>
      </trkpt>
      <trkpt lat="49.04407" lon="1.94462">
        <ele>87.6</ele>
        <time>2024-04-13T12:24:14Z</time>
      </trkpt>
      <trkpt lat="49.04405" lon="1.94451">
        <ele>87.6</ele>
        <time>2024-04-13T12:24:20Z</time>
      </trkpt>
      <trkpt lat="49.04401" lon="1.94442">
        <ele>87.6</ele>
        <time>2024-04-13T12:24:26Z</time>
      </trkpt>
      <trkpt lat="49.044" lon="1.94432">
        <ele>87.5</ele>
        <time>2024-04-13T12:24:32Z</time>
      </trkpt>
      <trkpt lat="49.04397" lon="1.9442">
        <ele>87.6</ele>
        <time>2024-04-13T12:24:38Z</time>
      </trkpt>
      <trkpt lat="49.04395" lon="1.94409">
        <ele>87.8</ele>
        <time>2024-04-13T12:24:44Z</time>
      </trkpt>
      <trkpt lat="49.04393" lon="1.94398">
        <ele>88.2</ele>
        <time>2024-04-13T12:24:50Z</time>
      </trkpt>
      <trkpt lat="49.04392" lon="1.94388">
        <ele>88.7</ele>
        <time>2024-04-13T12:24:56Z</time>
      </trkpt>
      <trkpt lat="49.04387" lon="1.94376">
        <ele>88.9</ele>
        <time>2024-04-13T12:25:02Z</time>
      </trkpt>
      <trkpt lat="49.04385" lon="1.94364">
        <ele>88.8</ele>
        <time>2024-04-13T12:25:08Z</time>
      </trkpt>
      <trkpt lat="49.04382" lon="1.94355">
        <ele>88.7</ele>
        <time>2024-04-13T12:25:13Z</time>
      </trkpt>
      <trkpt lat="49.0438" lon="1.94345">
        <ele>88.5</ele>
        <time>2024-04-13T12:25:19Z</time>
      </trkpt>
      <trkpt lat="49.04375" lon="1.94335">
        <ele>88.3</ele>
        <time>2024-04-13T12:25:25Z</time>
      </trkpt>
      <trkpt lat="49.04372" lon="1.94326">
        <ele>88.1</ele>
        <time>2024-04-13T12:25:30Z</time>
      </trkpt>
      <trkpt lat="49.04367" lon="1.94325">
        <ele>87.9</ele>
        <time>2024-04-13T12:25:36Z</time>
      </trkpt>
      <trkpt lat="49.04367" lon="1.94327">
        <ele>88</ele>
        <time>2024-04-13T12:25:42Z</time>
      </trkpt>
      <trkpt lat="49.04365" lon="1.94327">
        <ele>88.1</ele>
        <time>2024-04-13T12:25:48Z</time>
      </trkpt>
      <trkpt lat="49.04365" lon="1.94328">
        <ele>88.1</ele>
        <time>2024-04-13T12:25:53Z</time>
      </trkpt>
      <trkpt lat="49.04365" lon="1.94328">
        <ele>88.1</ele>
        <time>2024-04-13T12:25:59Z</time>
      </trkpt>
      <trkpt lat="49.04366" lon="1.94329">
        <ele>88.1</ele>
        <time>2024-04-13T12:26:05Z</time>
      </trkpt>
      <trkpt lat="49.04366" lon="1.94329">
        <ele>88.1</ele>
        <time>2024-04-13T12:26:10Z</time>
      </trkpt>
      <trkpt lat="49.04366" lon="1.94329">
        <ele>88</ele>
        <time>2024-04-13T12:26:15Z</time>
      </trkpt>
      <trkpt lat="49.04366" lon="1.94329">
        <ele>88</ele>
        <time>2024-04-13T12:26:20Z</time>
      </trkpt>
      <trkpt lat="49.04366" lon="1.94329">
        <ele>87.9</ele>
        <time>2024-04-13T12:26:26Z</time>
      </trkpt>
      <trkpt lat="49.04366" lon="1.94329">
        <ele>87.8</ele>
        <time>2024-04-13T12:26:32Z</time>
      </trkpt>
      <trkpt lat="49.04367" lon="1.94331">
        <ele>87.5</ele>
        <time>2024-04-13T12:26:38Z</time>
      </trkpt>
      <trkpt lat="49.04368" lon="1.9433">
        <ele>87.3</ele>
        <time>2024-04-13T12:26:44Z</time>
      </trkpt>
      <trkpt lat="49.04368" lon="1.9433">
        <ele>87.3</ele>
        <time>2024-04-13T12:26:50Z</time>
      </trkpt>
      <trkpt lat="49.04369" lon="1.94329">
        <ele>87.3</ele>
        <time>2024-04-13T12:26:55Z</time>
      </trkpt>
      <trkpt lat="49.04368" lon="1.94318">
        <ele>87.8</ele>
        <time>2024-04-13T12:27:01Z</time>
      </trkpt>
      <trkpt lat="49.04366" lon="1.94319">
        <ele>88</ele>
        <time>2024-04-13T12:27:06Z</time>
      </trkpt>
      <trkpt lat="49.04363" lon="1.94312">
        <ele>88.4</ele>
        <time>2024-04-13T12:27:12Z</time>
      </trkpt>
      <trkpt lat="49.04359" lon="1.94303">
        <ele>88.6</ele>
        <time>2024-04-13T12:27:18Z</time>
      </trkpt>
      <trkpt lat="49.04353" lon="1.94295">
        <ele>88.9</ele>
        <time>2024-04-13T12:27:24Z</time>
      </trkpt>
      <trkpt lat="49.04348" lon="1.9429">
        <ele>89.1</ele>
        <time>2024-04-13T12:27:29Z</time>
      </trkpt>
      <trkpt lat="49.04343" lon="1.94286">
        <ele>89.4</ele>
        <time>2024-04-13T12:27:35Z</time>
      </trkpt>
      <trkpt lat="49.04338" lon="1.94284">
        <ele>89.6</ele>
        <time>2024-04-13T12:27:40Z</time>
      </trkpt>
      <trkpt lat="49.04329" lon="1.94285">
        <ele>89.8</ele>
        <time>2024-04-13T12:27:46Z</time>
      </trkpt>
      <trkpt lat="49.04322" lon="1.94283">
        <ele>90.1</ele>
        <time>2024-04-13T12:27:52Z</time>
      </trkpt>
      <trkpt lat="49.04318" lon="1.94283">
        <ele>90.4</ele>
        <time>2024-04-13T12:27:58Z</time>
      </trkpt>
      <trkpt lat="49.04315" lon="1.94282">
        <ele>90.5</ele>
        <time>2024-04-13T12:28:03Z</time>
      </trkpt>
      <trkpt lat="49.04305" lon="1.94281">
        <ele>90.8</ele>
        <time>2024-04-13T12:28:09Z</time>
      </trkpt>
      <trkpt lat="49.04296" lon="1.94281">
        <ele>90.9</ele>
        <time>2024-04-13T12:28:15Z</time>
      </trkpt>
      <trkpt lat="49.04289" lon="1.94282">
        <ele>91</ele>
        <time>2024-04-13T12:28:21Z</time>
      </trkpt>
      <trkpt lat="49.04282" lon="1.94283">
        <ele>91.1</ele>
        <time>2024-04-13T12:28:26Z</time>
      </trkpt>
      <trkpt lat="49.04276" lon="1.94283">
        <ele>91.4</ele>
        <time>2024-04-13T12:28:32Z</time>
      </trkpt>
      <trkpt lat="49.0427" lon="1.94286">
        <ele>91.5</ele>
        <time>2024-04-13T12:28:37Z</time>
      </trkpt>
      <trkpt lat="49.04261" lon="1.94287">
        <ele>91.7</ele>
        <time>2024-04-13T12:28:43Z</time>
      </trkpt>
      <trkpt lat="49.04252" lon="1.94284">
        <ele>92</ele>
        <time>2024-04-13T12:28:49Z</time>
      </trkpt>
      <trkpt lat="49.04245" lon="1.94283">
        <ele>92.2</ele>
        <time>2024-04-13T12:28:55Z</time>
      </trkpt>
      <trkpt lat="49.04239" lon="1.94286">
        <ele>92.2</ele>
        <time>2024-04-13T12:29:01Z</time>
      </trkpt>
      <trkpt lat="49.04233" lon="1.9429">
        <ele>92.3</ele>
        <time>2024-04-13T12:29:07Z</time>
      </trkpt>
      <trkpt lat="49.04226" lon="1.94292">
        <ele>92.4</ele>
        <time>2024-04-13T12:29:12Z</time>
      </trkpt>
      <trkpt lat="49.04218" lon="1.94296">
        <ele>92.5</ele>
        <time>2024-04-13T12:29:18Z</time>
      </trkpt>
      <trkpt lat="49.04212" lon="1.94298">
        <ele>92.5</ele>
        <time>2024-04-13T12:29:23Z</time>
      </trkpt>
      <trkpt lat="49.04203" lon="1.94302">
        <ele>92.4</ele>
        <time>2024-04-13T12:29:29Z</time>
      </trkpt>
      <trkpt lat="49.04198" lon="1.94306">
        <ele>92.6</ele>
        <time>2024-04-13T12:29:34Z</time>
      </trkpt>
      <trkpt lat="49.0419" lon="1.94307">
        <ele>92.9</ele>
        <time>2024-04-13T12:29:40Z</time>
      </trkpt>
      <trkpt lat="49.04182" lon="1.94306">
        <ele>93.2</ele>
        <time>2024-04-13T12:29:46Z</time>
      </trkpt>
      <trkpt lat="49.04174" lon="1.94303">
        <ele>93.1</ele>
        <time>2024-04-13T12:29:52Z</time>
      </trkpt>
      <trkpt lat="49.04167" lon="1.943">
        <ele>93.2</ele>
        <time>2024-04-13T12:29:57Z</time>
      </trkpt>
      <trkpt lat="49.0416" lon="1.94297">
        <ele>93.6</ele>
        <time>2024-04-13T12:30:03Z</time>
      </trkpt>
      <trkpt lat="49.04154" lon="1.9429">
        <ele>93.9</ele>
        <time>2024-04-13T12:30:09Z</time>
      </trkpt>
      <trkpt lat="49.04148" lon="1.94283">
        <ele>93.9</ele>
        <time>2024-04-13T12:30:14Z</time>
      </trkpt>
      <trkpt lat="49.0414" lon="1.9428">
        <ele>93.7</ele>
        <time>2024-04-13T12:30:20Z</time>
      </trkpt>
      <trkpt lat="49.04136" lon="1.94276">
        <ele>93.5</ele>
        <time>2024-04-13T12:30:26Z</time>
      </trkpt>
      <trkpt lat="49.0413" lon="1.94269">
        <ele>93.1</ele>
        <time>2024-04-13T12:30:31Z</time>
      </trkpt>
      <trkpt lat="49.04124" lon="1.94265">
        <ele>92.6</ele>
        <time>2024-04-13T12:30:37Z</time>
      </trkpt>
      <trkpt lat="49.04122" lon="1.94257">
        <ele>92.2</ele>
        <time>2024-04-13T12:30:42Z</time>
      </trkpt>
      <trkpt lat="49.04116" lon="1.9425">
        <ele>92</ele>
        <time>2024-04-13T12:30:48Z</time>
      </trkpt>
      <trkpt lat="49.04109" lon="1.94246">
        <ele>91.9</ele>
        <time>2024-04-13T12:30:54Z</time>
      </trkpt>
      <trkpt lat="49.04104" lon="1.94242">
        <ele>91.9</ele>
        <time>2024-04-13T12:30:59Z</time>
      </trkpt>
      <trkpt lat="49.041" lon="1.94234">
        <ele>92.1</ele>
        <time>2024-04-13T12:31:04Z</time>
      </trkpt>
      <trkpt lat="49.04095" lon="1.94227">
        <ele>92.3</ele>
        <time>2024-04-13T12:31:10Z</time>
      </trkpt>
      <trkpt lat="49.0409" lon="1.94214">
        <ele>92.4</ele>
        <time>2024-04-13T12:31:16Z</time>
      </trkpt>
      <trkpt lat="49.04088" lon="1.94204">
        <ele>92.7</ele>
        <time>2024-04-13T12:31:21Z</time>
      </trkpt>
      <trkpt lat="49.04083" lon="1.94196">
        <ele>93.3</ele>
        <time>2024-04-13T12:31:27Z</time>
      </trkpt>
      <trkpt lat="49.04077" lon="1.94186">
        <ele>93.9</ele>
        <time>2024-04-13T12:31:33Z</time>
      </trkpt>
      <trkpt lat="49.04075" lon="1.94179">
        <ele>94.4</ele>
        <time>2024-04-13T12:31:39Z</time>
      </trkpt>
      <trkpt lat="49.04071" lon="1.9417">
        <ele>95.1</ele>
        <time>2024-04-13T12:31:44Z</time>
      </trkpt>
      <trkpt lat="49.04066" lon="1.94163">
        <ele>95.6</ele>
        <time>2024-04-13T12:31:50Z</time>
      </trkpt>
      <trkpt lat="49.04064" lon="1.94155">
        <ele>95.9</ele>
        <time>2024-04-13T12:31:55Z</time>
      </trkpt>
      <trkpt lat="49.04062" lon="1.94146">
        <ele>96.3</ele>
        <time>2024-04-13T12:32:01Z</time>
      </trkpt>
      <trkpt lat="49.0406" lon="1.94142">
        <ele>96.5</ele>
        <time>2024-04-13T12:32:06Z</time>
      </trkpt>
      <trkpt lat="49.04056" lon="1.94146">
        <ele>96.8</ele>
        <time>2024-04-13T12:32:12Z</time>
      </trkpt>
      <trkpt lat="49.04053" lon="1.94145">
        <ele>96.9</ele>
        <time>2024-04-13T12:32:17Z</time>
      </trkpt>
      <trkpt lat="49.04048" lon="1.9414">
        <ele>96.8</ele>
        <time>2024-04-13T12:32:22Z</time>
      </trkpt>
      <trkpt lat="49.04042" lon="1.94137">
        <ele>96.5</ele>
        <time>2024-04-13T12:32:28Z</time>
      </trkpt>
      <trkpt lat="49.04037" lon="1.94133">
        <ele>96.1</ele>
        <time>2024-04-13T12:32:34Z</time>
      </trkpt>
      <trkpt lat="49.04032" lon="1.94129">
        <ele>95.8</ele>
        <time>2024-04-13T12:32:40Z</time>
      </trkpt>
      <trkpt lat="49.04026" lon="1.9413">
        <ele>95.4</ele>
        <time>2024-04-13T12:32:45Z</time>
      </trkpt>
      <trkpt lat="49.04023" lon="1.94131">
        <ele>95.3</ele>
        <time>2024-04-13T12:32:50Z</time>
      </trkpt>
      <trkpt lat="49.04019" lon="1.94131">
        <ele>95.2</ele>
        <time>2024-04-13T12:32:55Z</time>
      </trkpt>
      <trkpt lat="49.04013" lon="1.94128">
        <ele>95.1</ele>
        <time>2024-04-13T12:33:00Z</time>
      </trkpt>
      <trkpt lat="49.0401" lon="1.9413">
        <ele>94.9</ele>
        <time>2024-04-13T12:33:05Z</time>
      </trkpt>
      <trkpt lat="49.04002" lon="1.94138">
        <ele>94.4</ele>
        <time>2024-04-13T12:33:11Z</time>
      </trkpt>
      <trkpt lat="49.03998" lon="1.94145">
        <ele>93.8</ele>
        <time>2024-04-13T12:33:16Z</time>
      </trkpt>
      <trkpt lat="49.03992" lon="1.94158">
        <ele>92.9</ele>
        <time>2024-04-13T12:33:22Z</time>
      </trkpt>
      <trkpt lat="49.03988" lon="1.9417">
        <ele>92.4</ele>
        <time>2024-04-13T12:33:27Z</time>
      </trkpt>
      <trkpt lat="49.03985" lon="1.94178">
        <ele>91.9</ele>
        <time>2024-04-13T12:33:33Z</time>
      </trkpt>
      <trkpt lat="49.03983" lon="1.94192">
        <ele>91.3</ele>
        <time>2024-04-13T12:33:39Z</time>
      </trkpt>
      <trkpt lat="49.03979" lon="1.94202">
        <ele>90.7</ele>
        <time>2024-04-13T12:33:45Z</time>
      </trkpt>
      <trkpt lat="49.0398" lon="1.94213">
        <ele>90.4</ele>
        <time>2024-04-13T12:33:50Z</time>
      </trkpt>
      <trkpt lat="49.03978" lon="1.94225">
        <ele>90.4</ele>
        <time>2024-04-13T12:33:55Z</time>
      </trkpt>
      <trkpt lat="49.03979" lon="1.94237">
        <ele>90.5</ele>
        <time>2024-04-13T12:34:01Z</time>
      </trkpt>
      <trkpt lat="49.03982" lon="1.94248">
        <ele>90.7</ele>
        <time>2024-04-13T12:34:06Z</time>
      </trkpt>
      <trkpt lat="49.03982" lon="1.94257">
        <ele>90.7</ele>
        <time>2024-04-13T12:34:11Z</time>
      </trkpt>
      <trkpt lat="49.0398" lon="1.94265">
        <ele>90.4</ele>
        <time>2024-04-13T12:34:17Z</time>
      </trkpt>
      <trkpt lat="49.03977" lon="1.94275">
        <ele>89.9</ele>
        <time>2024-04-13T12:34:22Z</time>
      </trkpt>
      <trkpt lat="49.03978" lon="1.94285">
        <ele>89.3</ele>
        <time>2024-04-13T12:34:27Z</time>
      </trkpt>
      <trkpt lat="49.03976" lon="1.94289">
        <ele>88.8</ele>
        <time>2024-04-13T12:34:33Z</time>
      </trkpt>
      <trkpt lat="49.03974" lon="1.94291">
        <ele>88.8</ele>
        <time>2024-04-13T12:34:38Z</time>
      </trkpt>
      <trkpt lat="49.03974" lon="1.94291">
        <ele>88.8</ele>
        <time>2024-04-13T12:34:44Z</time>
      </trkpt>
      <trkpt lat="49.03974" lon="1.94293">
        <ele>88.8</ele>
        <time>2024-04-13T12:34:49Z</time>
      </trkpt>
      <trkpt lat="49.03975" lon="1.94295">
        <ele>88.8</ele>
        <time>2024-04-13T12:34:55Z</time>
      </trkpt>
      <trkpt lat="49.03976" lon="1.94295">
        <ele>88.8</ele>
        <time>2024-04-13T12:35:01Z</time>
      </trkpt>
      <trkpt lat="49.03974" lon="1.94293">
        <ele>88.9</ele>
        <time>2024-04-13T12:35:07Z</time>
      </trkpt>
      <trkpt lat="49.03969" lon="1.94295">
        <ele>89.2</ele>
        <time>2024-04-13T12:35:13Z</time>
      </trkpt>
      <trkpt lat="49.03965" lon="1.94304">
        <ele>89.3</ele>
        <time>2024-04-13T12:35:19Z</time>
      </trkpt>
      <trkpt lat="49.03967" lon="1.9431">
        <ele>89.2</ele>
        <time>2024-04-13T12:35:24Z</time>
      </trkpt>
      <trkpt lat="49.03976" lon="1.94319">
        <ele>89.1</ele>
        <time>2024-04-13T12:35:30Z</time>
      </trkpt>
      <trkpt lat="49.0398" lon="1.94324">
        <ele>89</ele>
        <time>2024-04-13T12:35:35Z</time>
      </trkpt>
      <trkpt lat="49.03982" lon="1.94335">
        <ele>88.8</ele>
        <time>2024-04-13T12:35:41Z</time>
      </trkpt>
      <trkpt lat="49.03985" lon="1.94344">
        <ele>88.6</ele>
        <time>2024-04-13T12:35:46Z</time>
      </trkpt>
      <trkpt lat="49.03986" lon="1.94351">
        <ele>88.5</ele>
        <time>2024-04-13T12:35:52Z</time>
      </trkpt>
      <trkpt lat="49.03985" lon="1.94365">
        <ele>88.2</ele>
        <time>2024-04-13T12:35:58Z</time>
      </trkpt>
      <trkpt lat="49.03983" lon="1.94375">
        <ele>87.9</ele>
        <time>2024-04-13T12:36:04Z</time>
      </trkpt>
      <trkpt lat="49.03985" lon="1.94384">
        <ele>88</ele>
        <time>2024-04-13T12:36:09Z</time>
      </trkpt>
      <trkpt lat="49.03984" lon="1.94395">
        <ele>87.9</ele>
        <time>2024-04-13T12:36:14Z</time>
      </trkpt>
      <trkpt lat="49.03981" lon="1.94405">
        <ele>88</ele>
        <time>2024-04-13T12:36:20Z</time>
      </trkpt>
      <trkpt lat="49.03977" lon="1.94411">
        <ele>88</ele>
        <time>2024-04-13T12:36:26Z</time>
      </trkpt>
      <trkpt lat="49.03976" lon="1.94422">
        <ele>87.8</ele>
        <time>2024-04-13T12:36:31Z</time>
      </trkpt>
      <trkpt lat="49.03973" lon="1.94431">
        <ele>87.3</ele>
        <time>2024-04-13T12:36:37Z</time>
      </trkpt>
      <trkpt lat="49.03969" lon="1.94438">
        <ele>86.9</ele>
        <time>2024-04-13T12:36:43Z</time>
      </trkpt>
      <trkpt lat="49.03964" lon="1.94444">
        <ele>86.7</ele>
        <time>2024-04-13T12:36:48Z</time>
      </trkpt>
      <trkpt lat="49.03958" lon="1.94451">
        <ele>86.2</ele>
        <time>2024-04-13T12:36:53Z</time>
      </trkpt>
      <trkpt lat="49.03954" lon="1.94457">
        <ele>85.7</ele>
        <time>2024-04-13T12:36:58Z</time>
      </trkpt>
      <trkpt lat="49.03951" lon="1.94463">
        <ele>85.5</ele>
        <time>2024-04-13T12:37:04Z</time>
      </trkpt>
      <trkpt lat="49.03949" lon="1.94471">
        <ele>85.4</ele>
        <time>2024-04-13T12:37:09Z</time>
      </trkpt>
      <trkpt lat="49.03943" lon="1.94481">
        <ele>85.1</ele>
        <time>2024-04-13T12:37:15Z</time>
      </trkpt>
      <trkpt lat="49.03937" lon="1.94489">
        <ele>84.4</ele>
        <time>2024-04-13T12:37:21Z</time>
      </trkpt>
      <trkpt lat="49.0393" lon="1.94496">
        <ele>83.3</ele>
        <time>2024-04-13T12:37:27Z</time>
      </trkpt>
      <trkpt lat="49.03925" lon="1.94499">
        <ele>82.1</ele>
        <time>2024-04-13T12:37:32Z</time>
      </trkpt>
      <trkpt lat="49.03919" lon="1.94505">
        <ele>80.9</ele>
        <time>2024-04-13T12:37:38Z</time>
      </trkpt>
      <trkpt lat="49.03911" lon="1.9451">
        <ele>80.3</ele>
        <time>2024-04-13T12:37:44Z</time>
      </trkpt>
      <trkpt lat="49.03903" lon="1.94514">
        <ele>80.2</ele>
        <time>2024-04-13T12:37:50Z</time>
      </trkpt>
      <trkpt lat="49.03896" lon="1.94518">
        <ele>80.5</ele>
        <time>2024-04-13T12:37:56Z</time>
      </trkpt>
      <trkpt lat="49.03894" lon="1.94518">
        <ele>81.1</ele>
        <time>2024-04-13T12:38:01Z</time>
      </trkpt>
      <trkpt lat="49.03888" lon="1.94516">
        <ele>82</ele>
        <time>2024-04-13T12:38:07Z</time>
      </trkpt>
      <trkpt lat="49.03883" lon="1.94516">
        <ele>82.9</ele>
        <time>2024-04-13T12:38:13Z</time>
      </trkpt>
      <trkpt lat="49.03876" lon="1.94518">
        <ele>83.5</ele>
        <time>2024-04-13T12:38:18Z</time>
      </trkpt>
      <trkpt lat="49.03871" lon="1.94521">
        <ele>84.4</ele>
        <time>2024-04-13T12:38:24Z</time>
      </trkpt>
      <trkpt lat="49.03866" lon="1.94524">
        <ele>85</ele>
        <time>2024-04-13T12:38:29Z</time>
      </trkpt>
      <trkpt lat="49.03859" lon="1.94528">
        <ele>86</ele>
        <time>2024-04-13T12:38:35Z</time>
      </trkpt>
      <trkpt lat="49.03854" lon="1.94531">
        <ele>87</ele>
        <time>2024-04-13T12:38:40Z</time>
      </trkpt>
      <trkpt lat="49.03846" lon="1.94533">
        <ele>88.2</ele>
        <time>2024-04-13T12:38:46Z</time>
      </trkpt>
      <trkpt lat="49.03841" lon="1.94536">
        <ele>89.7</ele>
        <time>2024-04-13T12:38:51Z</time>
      </trkpt>
      <trkpt lat="49.03837" lon="1.94539">
        <ele>90.9</ele>
        <time>2024-04-13T12:38:56Z</time>
      </trkpt>
      <trkpt lat="49.03828" lon="1.9454">
        <ele>92.2</ele>
        <time>2024-04-13T12:39:02Z</time>
      </trkpt>
      <trkpt lat="49.03824" lon="1.94543">
        <ele>93.2</ele>
        <time>2024-04-13T12:39:07Z</time>
      </trkpt>
      <trkpt lat="49.03818" lon="1.94549">
        <ele>94.2</ele>
        <time>2024-04-13T12:39:13Z</time>
      </trkpt>
      <trkpt lat="49.03814" lon="1.94558">
        <ele>95.2</ele>
        <time>2024-04-13T12:39:19Z</time>
      </trkpt>
      <trkpt lat="49.03804" lon="1.94565">
        <ele>96.5</ele>
        <time>2024-04-13T12:39:25Z</time>
      </trkpt>
      <trkpt lat="49.03799" lon="1.9457">
        <ele>97.6</ele>
        <time>2024-04-13T12:39:30Z</time>
      </trkpt>
      <trkpt lat="49.03791" lon="1.94576">
        <ele>98.8</ele>
        <time>2024-04-13T12:39:36Z</time>
      </trkpt>
      <trkpt lat="49.03785" lon="1.94582">
        <ele>100.2</ele>
        <time>2024-04-13T12:39:42Z</time>
      </trkpt>
      <trkpt lat="49.0378" lon="1.94585">
        <ele>101.5</ele>
        <time>2024-04-13T12:39:47Z</time>
      </trkpt>
      <trkpt lat="49.03771" lon="1.94587">
        <ele>102.8</ele>
        <time>2024-04-13T12:39:53Z</time>
      </trkpt>
      <trkpt lat="49.03765" lon="1.94592">
        <ele>103.8</ele>
        <time>2024-04-13T12:39:58Z</time>
      </trkpt>
      <trkpt lat="49.03759" lon="1.94598">
        <ele>104.8</ele>
        <time>2024-04-13T12:40:04Z</time>
      </trkpt>
      <trkpt lat="49.03752" lon="1.94604">
        <ele>105.8</ele>
        <time>2024-04-13T12:40:10Z</time>
      </trkpt>
      <trkpt lat="49.03745" lon="1.94608">
        <ele>106.6</ele>
        <time>2024-04-13T12:40:16Z</time>
      </trkpt>
      <trkpt lat="49.03738" lon="1.94612">
        <ele>107.2</ele>
        <time>2024-04-13T12:40:21Z</time>
      </trkpt>
      <trkpt lat="49.03731" lon="1.94616">
        <ele>108</ele>
        <time>2024-04-13T12:40:27Z</time>
      </trkpt>
      <trkpt lat="49.03722" lon="1.94619">
        <ele>108.5</ele>
        <time>2024-04-13T12:40:33Z</time>
      </trkpt>
      <trkpt lat="49.03714" lon="1.94625">
        <ele>108.7</ele>
        <time>2024-04-13T12:40:39Z</time>
      </trkpt>
      <trkpt lat="49.03706" lon="1.94629">
        <ele>108.6</ele>
        <time>2024-04-13T12:40:44Z</time>
      </trkpt>
      <trkpt lat="49.03699" lon="1.94631">
        <ele>108.4</ele>
        <time>2024-04-13T12:40:49Z</time>
      </trkpt>
      <trkpt lat="49.03692" lon="1.94634">
        <ele>108.2</ele>
        <time>2024-04-13T12:40:55Z</time>
      </trkpt>
      <trkpt lat="49.03684" lon="1.94638">
        <ele>108</ele>
        <time>2024-04-13T12:41:01Z</time>
      </trkpt>
      <trkpt lat="49.03679" lon="1.94643">
        <ele>107.8</ele>
        <time>2024-04-13T12:41:06Z</time>
      </trkpt>
      <trkpt lat="49.03673" lon="1.94647">
        <ele>107.5</ele>
        <time>2024-04-13T12:41:12Z</time>
      </trkpt>
      <trkpt lat="49.03666" lon="1.94653">
        <ele>107.2</ele>
        <time>2024-04-13T12:41:18Z</time>
      </trkpt>
      <trkpt lat="49.03659" lon="1.94659">
        <ele>106.9</ele>
        <time>2024-04-13T12:41:24Z</time>
      </trkpt>
      <trkpt lat="49.0365" lon="1.94664">
        <ele>106.7</ele>
        <time>2024-04-13T12:41:30Z</time>
      </trkpt>
      <trkpt lat="49.03642" lon="1.94669">
        <ele>106.5</ele>
        <time>2024-04-13T12:41:35Z</time>
      </trkpt>
      <trkpt lat="49.03634" lon="1.94672">
        <ele>106.6</ele>
        <time>2024-04-13T12:41:41Z</time>
      </trkpt>
      <trkpt lat="49.03627" lon="1.94677">
        <ele>106.7</ele>
        <time>2024-04-13T12:41:47Z</time>
      </trkpt>
      <trkpt lat="49.03621" lon="1.94679">
        <ele>106.8</ele>
        <time>2024-04-13T12:41:52Z</time>
      </trkpt>
      <trkpt lat="49.03614" lon="1.94682">
        <ele>106.9</ele>
        <time>2024-04-13T12:41:58Z</time>
      </trkpt>
      <trkpt lat="49.03606" lon="1.94685">
        <ele>107.1</ele>
        <time>2024-04-13T12:42:04Z</time>
      </trkpt>
      <trkpt lat="49.03597" lon="1.94689">
        <ele>107.2</ele>
        <time>2024-04-13T12:42:10Z</time>
      </trkpt>
      <trkpt lat="49.0359" lon="1.94692">
        <ele>107.5</ele>
        <time>2024-04-13T12:42:15Z</time>
      </trkpt>
      <trkpt lat="49.03583" lon="1.94694">
        <ele>107.9</ele>
        <time>2024-04-13T12:42:20Z</time>
      </trkpt>
      <trkpt lat="49.03576" lon="1.94696">
        <ele>108.3</ele>
        <time>2024-04-13T12:42:26Z</time>
      </trkpt>
      <trkpt lat="49.03569" lon="1.94698">
        <ele>108.5</ele>
        <time>2024-04-13T12:42:31Z</time>
      </trkpt>
      <trkpt lat="49.03562" lon="1.94698">
        <ele>108.9</ele>
        <time>2024-04-13T12:42:37Z</time>
      </trkpt>
      <trkpt lat="49.03556" lon="1.94697">
        <ele>109.1</ele>
        <time>2024-04-13T12:42:42Z</time>
      </trkpt>
      <trkpt lat="49.03549" lon="1.94697">
        <ele>109.2</ele>
        <time>2024-04-13T12:42:48Z</time>
      </trkpt>
      <trkpt lat="49.03541" lon="1.94697">
        <ele>109.6</ele>
        <time>2024-04-13T12:42:54Z</time>
      </trkpt>
      <trkpt lat="49.03534" lon="1.94696">
        <ele>110.1</ele>
        <time>2024-04-13T12:42:59Z</time>
      </trkpt>
      <trkpt lat="49.03526" lon="1.94694">
        <ele>111</ele>
        <time>2024-04-13T12:43:05Z</time>
      </trkpt>
      <trkpt lat="49.03517" lon="1.94694">
        <ele>112</ele>
        <time>2024-04-13T12:43:11Z</time>
      </trkpt>
      <trkpt lat="49.03508" lon="1.94692">
        <ele>113</ele>
        <time>2024-04-13T12:43:17Z</time>
      </trkpt>
      <trkpt lat="49.035" lon="1.9469">
        <ele>113.8</ele>
        <time>2024-04-13T12:43:23Z</time>
      </trkpt>
      <trkpt lat="49.03491" lon="1.94692">
        <ele>114.6</ele>
        <time>2024-04-13T12:43:29Z</time>
      </trkpt>
      <trkpt lat="49.03483" lon="1.94692">
        <ele>115.3</ele>
        <time>2024-04-13T12:43:35Z</time>
      </trkpt>
      <trkpt lat="49.03478" lon="1.9469">
        <ele>115.9</ele>
        <time>2024-04-13T12:43:40Z</time>
      </trkpt>
      <trkpt lat="49.03471" lon="1.94691">
        <ele>116.7</ele>
        <time>2024-04-13T12:43:46Z</time>
      </trkpt>
      <trkpt lat="49.03463" lon="1.94691">
        <ele>117.1</ele>
        <time>2024-04-13T12:43:52Z</time>
      </trkpt>
      <trkpt lat="49.03456" lon="1.94691">
        <ele>117.5</ele>
        <time>2024-04-13T12:43:57Z</time>
      </trkpt>
      <trkpt lat="49.03448" lon="1.94691">
        <ele>118.1</ele>
        <time>2024-04-13T12:44:03Z</time>
      </trkpt>
      <trkpt lat="49.03443" lon="1.94689">
        <ele>118.4</ele>
        <time>2024-04-13T12:44:08Z</time>
      </trkpt>
      <trkpt lat="49.03434" lon="1.94691">
        <ele>118.7</ele>
        <time>2024-04-13T12:44:14Z</time>
      </trkpt>
      <trkpt lat="49.03426" lon="1.9469">
        <ele>119</ele>
        <time>2024-04-13T12:44:20Z</time>
      </trkpt>
      <trkpt lat="49.03418" lon="1.94694">
        <ele>119.5</ele>
        <time>2024-04-13T12:44:25Z</time>
      </trkpt>
      <trkpt lat="49.03411" lon="1.94694">
        <ele>120.3</ele>
        <time>2024-04-13T12:44:31Z</time>
      </trkpt>
      <trkpt lat="49.03402" lon="1.94695">
        <ele>121.1</ele>
        <time>2024-04-13T12:44:37Z</time>
      </trkpt>
      <trkpt lat="49.03395" lon="1.94698">
        <ele>121.7</ele>
        <time>2024-04-13T12:44:42Z</time>
      </trkpt>
      <trkpt lat="49.03387" lon="1.94699">
        <ele>122.4</ele>
        <time>2024-04-13T12:44:48Z</time>
      </trkpt>
      <trkpt lat="49.0338" lon="1.94701">
        <ele>123.3</ele>
        <time>2024-04-13T12:44:54Z</time>
      </trkpt>
      <trkpt lat="49.03373" lon="1.94702">
        <ele>124.2</ele>
        <time>2024-04-13T12:45:00Z</time>
      </trkpt>
      <trkpt lat="49.03367" lon="1.94709">
        <ele>124.9</ele>
        <time>2024-04-13T12:45:05Z</time>
      </trkpt>
      <trkpt lat="49.03362" lon="1.94713">
        <ele>125.6</ele>
        <time>2024-04-13T12:45:10Z</time>
      </trkpt>
      <trkpt lat="49.03355" lon="1.94722">
        <ele>126.3</ele>
        <time>2024-04-13T12:45:16Z</time>
      </trkpt>
      <trkpt lat="49.03348" lon="1.94727">
        <ele>126.9</ele>
        <time>2024-04-13T12:45:21Z</time>
      </trkpt>
      <trkpt lat="49.03344" lon="1.94737">
        <ele>127.6</ele>
        <time>2024-04-13T12:45:27Z</time>
      </trkpt>
      <trkpt lat="49.03339" lon="1.94744">
        <ele>128.2</ele>
        <time>2024-04-13T12:45:33Z</time>
      </trkpt>
      <trkpt lat="49.03334" lon="1.94755">
        <ele>128.7</ele>
        <time>2024-04-13T12:45:39Z</time>
      </trkpt>
      <trkpt lat="49.03329" lon="1.94763">
        <ele>129.2</ele>
        <time>2024-04-13T12:45:45Z</time>
      </trkpt>
      <trkpt lat="49.03326" lon="1.94773">
        <ele>129.4</ele>
        <time>2024-04-13T12:45:50Z</time>
      </trkpt>
      <trkpt lat="49.03321" lon="1.9478">
        <ele>129.5</ele>
        <time>2024-04-13T12:45:56Z</time>
      </trkpt>
      <trkpt lat="49.03314" lon="1.94792">
        <ele>129.6</ele>
        <time>2024-04-13T12:46:02Z</time>
      </trkpt>
      <trkpt lat="49.0331" lon="1.94799">
        <ele>129.7</ele>
        <time>2024-04-13T12:46:07Z</time>
      </trkpt>
      <trkpt lat="49.03306" lon="1.94809">
        <ele>129.9</ele>
        <time>2024-04-13T12:46:13Z</time>
      </trkpt>
      <trkpt lat="49.033" lon="1.9482">
        <ele>130.2</ele>
        <time>2024-04-13T12:46:19Z</time>
      </trkpt>
      <trkpt lat="49.03295" lon="1.9483">
        <ele>130.3</ele>
        <time>2024-04-13T12:46:25Z</time>
      </trkpt>
      <trkpt lat="49.0329" lon="1.9484">
        <ele>130.3</ele>
        <time>2024-04-13T12:46:31Z</time>
      </trkpt>
      <trkpt lat="49.03286" lon="1.94847">
        <ele>130.3</ele>
        <time>2024-04-13T12:46:36Z</time>
      </trkpt>
      <trkpt lat="49.03281" lon="1.94852">
        <ele>130.1</ele>
        <time>2024-04-13T12:46:41Z</time>
      </trkpt>
      <trkpt lat="49.03277" lon="1.94859">
        <ele>130</ele>
        <time>2024-04-13T12:46:46Z</time>
      </trkpt>
      <trkpt lat="49.03274" lon="1.94859">
        <ele>130</ele>
        <time>2024-04-13T12:46:52Z</time>
      </trkpt>
      <trkpt lat="49.03274" lon="1.94859">
        <ele>129.9</ele>
        <time>2024-04-13T12:46:58Z</time>
      </trkpt>
      <trkpt lat="49.03271" lon="1.94858">
        <ele>129.9</ele>
        <time>2024-04-13T12:47:04Z</time>
      </trkpt>
      <trkpt lat="49.03271" lon="1.94857">
        <ele>129.9</ele>
        <time>2024-04-13T12:47:10Z</time>
      </trkpt>
      <trkpt lat="49.03271" lon="1.94857">
        <ele>129.9</ele>
        <time>2024-04-13T12:47:16Z</time>
      </trkpt>
      <trkpt lat="49.03271" lon="1.94856">
        <ele>129.4</ele>
        <time>2024-04-13T12:47:22Z</time>
      </trkpt>
      <trkpt lat="49.03271" lon="1.94856">
        <ele>129.3</ele>
        <time>2024-04-13T12:47:28Z</time>
      </trkpt>
      <trkpt lat="49.03271" lon="1.94856">
        <ele>129.3</ele>
        <time>2024-04-13T12:47:34Z</time>
      </trkpt>
      <trkpt lat="49.03271" lon="1.94855">
        <ele>129.2</ele>
        <time>2024-04-13T12:47:39Z</time>
      </trkpt>
      <trkpt lat="49.03271" lon="1.94855">
        <ele>129.2</ele>
        <time>2024-04-13T12:47:44Z</time>
      </trkpt>
      <trkpt lat="49.03271" lon="1.94856">
        <ele>129</ele>
        <time>2024-04-13T12:47:50Z</time>
      </trkpt>
      <trkpt lat="49.0327" lon="1.94856">
        <ele>128.9</ele>
        <time>2024-04-13T12:47:56Z</time>
      </trkpt>
      <trkpt lat="49.0327" lon="1.94857">
        <ele>128.9</ele>
        <time>2024-04-13T12:48:02Z</time>
      </trkpt>
      <trkpt lat="49.0327" lon="1.94857">
        <ele>128.8</ele>
        <time>2024-04-13T12:48:08Z</time>
      </trkpt>
      <trkpt lat="49.0327" lon="1.94857">
        <ele>128.8</ele>
        <time>2024-04-13T12:48:13Z</time>
      </trkpt>
      <trkpt lat="49.0327" lon="1.94857">
        <ele>128.8</ele>
        <time>2024-04-13T12:48:18Z</time>
      </trkpt>
      <trkpt lat="49.0327" lon="1.94858">
        <ele>128.7</ele>
        <time>2024-04-13T12:48:24Z</time>
      </trkpt>
      <trkpt lat="49.03267" lon="1.94861">
        <ele>128.6</ele>
        <time>2024-04-13T12:48:29Z</time>
      </trkpt>
      <trkpt lat="49.03262" lon="1.94866">
        <ele>128.4</ele>
        <time>2024-04-13T12:48:34Z</time>
      </trkpt>
      <trkpt lat="49.03259" lon="1.94875">
        <ele>128.2</ele>
        <time>2024-04-13T12:48:39Z</time>
      </trkpt>
      <trkpt lat="49.03254" lon="1.94887">
        <ele>127.9</ele>
        <time>2024-04-13T12:48:45Z</time>
      </trkpt>
      <trkpt lat="49.03249" lon="1.94895">
        <ele>127.3</ele>
        <time>2024-04-13T12:48:51Z</time>
      </trkpt>
      <trkpt lat="49.03243" lon="1.94906">
        <ele>127.1</ele>
        <time>2024-04-13T12:48:56Z</time>
      </trkpt>
      <trkpt lat="49.03239" lon="1.94912">
        <ele>127.2</ele>
        <time>2024-04-13T12:49:01Z</time>
      </trkpt>
      <trkpt lat="49.03235" lon="1.94921">
        <ele>127.3</ele>
        <time>2024-04-13T12:49:06Z</time>
      </trkpt>
      <trkpt lat="49.03231" lon="1.94928">
        <ele>127.4</ele>
        <time>2024-04-13T12:49:12Z</time>
      </trkpt>
      <trkpt lat="49.03226" lon="1.94939">
        <ele>127.4</ele>
        <time>2024-04-13T12:49:18Z</time>
      </trkpt>
      <trkpt lat="49.03223" lon="1.94949">
        <ele>127.4</ele>
        <time>2024-04-13T12:49:24Z</time>
      </trkpt>
      <trkpt lat="49.03218" lon="1.94957">
        <ele>127.7</ele>
        <time>2024-04-13T12:49:30Z</time>
      </trkpt>
      <trkpt lat="49.03212" lon="1.94965">
        <ele>128.1</ele>
        <time>2024-04-13T12:49:36Z</time>
      </trkpt>
      <trkpt lat="49.03206" lon="1.94974">
        <ele>128.4</ele>
        <time>2024-04-13T12:49:42Z</time>
      </trkpt>
      <trkpt lat="49.032" lon="1.94984">
        <ele>128.8</ele>
        <time>2024-04-13T12:49:48Z</time>
      </trkpt>
      <trkpt lat="49.03196" lon="1.94992">
        <ele>129</ele>
        <time>2024-04-13T12:49:54Z</time>
      </trkpt>
      <trkpt lat="49.0319" lon="1.95">
        <ele>129.3</ele>
        <time>2024-04-13T12:49:59Z</time>
      </trkpt>
      <trkpt lat="49.03186" lon="1.95009">
        <ele>129.6</ele>
        <time>2024-04-13T12:50:04Z</time>
      </trkpt>
      <trkpt lat="49.03179" lon="1.95013">
        <ele>129.7</ele>
        <time>2024-04-13T12:50:09Z</time>
      </trkpt>
      <trkpt lat="49.03171" lon="1.95019">
        <ele>129.7</ele>
        <time>2024-04-13T12:50:15Z</time>
      </trkpt>
      <trkpt lat="49.03167" lon="1.95026">
        <ele>129.7</ele>
        <time>2024-04-13T12:50:20Z</time>
      </trkpt>
      <trkpt lat="49.03162" lon="1.95032">
        <ele>129.6</ele>
        <time>2024-04-13T12:50:25Z</time>
      </trkpt>
      <trkpt lat="49.03153" lon="1.95038">
        <ele>129.6</ele>
        <time>2024-04-13T12:50:31Z</time>
      </trkpt>
      <trkpt lat="49.03149" lon="1.9505">
        <ele>129.6</ele>
        <time>2024-04-13T12:50:37Z</time>
      </trkpt>
      <trkpt lat="49.03142" lon="1.95055">
        <ele>129.6</ele>
        <time>2024-04-13T12:50:42Z</time>
      </trkpt>
      <trkpt lat="49.03132" lon="1.9506">
        <ele>129.7</ele>
        <time>2024-04-13T12:50:48Z</time>
      </trkpt>
      <trkpt lat="49.03127" lon="1.95064">
        <ele>129.6</ele>
        <time>2024-04-13T12:50:53Z</time>
      </trkpt>
      <trkpt lat="49.03119" lon="1.95071">
        <ele>129.8</ele>
        <time>2024-04-13T12:50:59Z</time>
      </trkpt>
      <trkpt lat="49.03111" lon="1.95076">
        <ele>129.9</ele>
        <time>2024-04-13T12:51:04Z</time>
      </trkpt>
      <trkpt lat="49.03103" lon="1.95079">
        <ele>130</ele>
        <time>2024-04-13T12:51:10Z</time>
      </trkpt>
      <trkpt lat="49.03095" lon="1.95089">
        <ele>130.5</ele>
        <time>2024-04-13T12:51:16Z</time>
      </trkpt>
      <trkpt lat="49.0309" lon="1.95096">
        <ele>130.8</ele>
        <time>2024-04-13T12:51:21Z</time>
      </trkpt>
      <trkpt lat="49.03087" lon="1.95099">
        <ele>130.9</ele>
        <time>2024-04-13T12:51:27Z</time>
      </trkpt>
      <trkpt lat="49.03086" lon="1.95098">
        <ele>130.8</ele>
        <time>2024-04-13T12:51:33Z</time>
      </trkpt>
      <trkpt lat="49.03085" lon="1.95099">
        <ele>130.7</ele>
        <time>2024-04-13T12:51:38Z</time>
      </trkpt>
      <trkpt lat="49.03087" lon="1.951">
        <ele>130.6</ele>
        <time>2024-04-13T12:51:44Z</time>
      </trkpt>
      <trkpt lat="49.03086" lon="1.95099">
        <ele>130.4</ele>
        <time>2024-04-13T12:51:50Z</time>
      </trkpt>
      <trkpt lat="49.03087" lon="1.95099">
        <ele>130.2</ele>
        <time>2024-04-13T12:51:56Z</time>
      </trkpt>
      <trkpt lat="49.03084" lon="1.95098">
        <ele>130.2</ele>
        <time>2024-04-13T12:52:01Z</time>
      </trkpt>
      <trkpt lat="49.03076" lon="1.95099">
        <ele>130.2</ele>
        <time>2024-04-13T12:52:07Z</time>
      </trkpt>
      <trkpt lat="49.03071" lon="1.95101">
        <ele>129.9</ele>
        <time>2024-04-13T12:52:13Z</time>
      </trkpt>
      <trkpt lat="49.03065" lon="1.95103">
        <ele>129.7</ele>
        <time>2024-04-13T12:52:18Z</time>
      </trkpt>
      <trkpt lat="49.03058" lon="1.95106">
        <ele>129.4</ele>
        <time>2024-04-13T12:52:24Z</time>
      </trkpt>
      <trkpt lat="49.03051" lon="1.95104">
        <ele>129.2</ele>
        <time>2024-04-13T12:52:29Z</time>
      </trkpt>
      <trkpt lat="49.03046" lon="1.95101">
        <ele>129.1</ele>
        <time>2024-04-13T12:52:34Z</time>
      </trkpt>
      <trkpt lat="49.03038" lon="1.95101">
        <ele>128.8</ele>
        <time>2024-04-13T12:52:40Z</time>
      </trkpt>
      <trkpt lat="49.03032" lon="1.95101">
        <ele>128.3</ele>
        <time>2024-04-13T12:52:46Z</time>
      </trkpt>
      <trkpt lat="49.03027" lon="1.95098">
        <ele>127.7</ele>
        <time>2024-04-13T12:52:51Z</time>
      </trkpt>
      <trkpt lat="49.03021" lon="1.95096">
        <ele>127.4</ele>
        <time>2024-04-13T12:52:56Z</time>
      </trkpt>
      <trkpt lat="49.03013" lon="1.95098">
        <ele>127.3</ele>
        <time>2024-04-13T12:53:02Z</time>
      </trkpt>
      <trkpt lat="49.03003" lon="1.95096">
        <ele>127.2</ele>
        <time>2024-04-13T12:53:08Z</time>
      </trkpt>
      <trkpt lat="49.02997" lon="1.95094">
        <ele>127</ele>
        <time>2024-04-13T12:53:13Z</time>
      </trkpt>
      <trkpt lat="49.02988" lon="1.95091">
        <ele>126.9</ele>
        <time>2024-04-13T12:53:19Z</time>
      </trkpt>
      <trkpt lat="49.02979" lon="1.95092">
        <ele>126.9</ele>
        <time>2024-04-13T12:53:25Z</time>
      </trkpt>
      <trkpt lat="49.02974" lon="1.9509">
        <ele>127.1</ele>
        <time>2024-04-13T12:53:30Z</time>
      </trkpt>
      <trkpt lat="49.02966" lon="1.95088">
        <ele>127.2</ele>
        <time>2024-04-13T12:53:36Z</time>
      </trkpt>
      <trkpt lat="49.0296" lon="1.95086">
        <ele>127.3</ele>
        <time>2024-04-13T12:53:41Z</time>
      </trkpt>
      <trkpt lat="49.02954" lon="1.95084">
        <ele>127.5</ele>
        <time>2024-04-13T12:53:46Z</time>
      </trkpt>
      <trkpt lat="49.02948" lon="1.95084">
        <ele>127.9</ele>
        <time>2024-04-13T12:53:52Z</time>
      </trkpt>
      <trkpt lat="49.02941" lon="1.95081">
        <ele>128.3</ele>
        <time>2024-04-13T12:53:58Z</time>
      </trkpt>
      <trkpt lat="49.02934" lon="1.95078">
        <ele>128.4</ele>
        <time>2024-04-13T12:54:04Z</time>
      </trkpt>
      <trkpt lat="49.02928" lon="1.95074">
        <ele>128.4</ele>
        <time>2024-04-13T12:54:09Z</time>
      </trkpt>
      <trkpt lat="49.02923" lon="1.95071">
        <ele>128.4</ele>
        <time>2024-04-13T12:54:14Z</time>
      </trkpt>
      <trkpt lat="49.02915" lon="1.95067">
        <ele>128.7</ele>
        <time>2024-04-13T12:54:20Z</time>
      </trkpt>
      <trkpt lat="49.0291" lon="1.95064">
        <ele>129.1</ele>
        <time>2024-04-13T12:54:25Z</time>
      </trkpt>
      <trkpt lat="49.02905" lon="1.95061">
        <ele>129.5</ele>
        <time>2024-04-13T12:54:30Z</time>
      </trkpt>
      <trkpt lat="49.02899" lon="1.95055">
        <ele>129.8</ele>
        <time>2024-04-13T12:54:36Z</time>
      </trkpt>
      <trkpt lat="49.02892" lon="1.9505">
        <ele>130.3</ele>
        <time>2024-04-13T12:54:42Z</time>
      </trkpt>
      <trkpt lat="49.02885" lon="1.9504">
        <ele>131</ele>
        <time>2024-04-13T12:54:48Z</time>
      </trkpt>
      <trkpt lat="49.02878" lon="1.95036">
        <ele>131.9</ele>
        <time>2024-04-13T12:54:54Z</time>
      </trkpt>
      <trkpt lat="49.02871" lon="1.9503">
        <ele>132.6</ele>
        <time>2024-04-13T12:55:00Z</time>
      </trkpt>
      <trkpt lat="49.02866" lon="1.95025">
        <ele>133.3</ele>
        <time>2024-04-13T12:55:05Z</time>
      </trkpt>
      <trkpt lat="49.02858" lon="1.9502">
        <ele>134.1</ele>
        <time>2024-04-13T12:55:10Z</time>
      </trkpt>
      <trkpt lat="49.02853" lon="1.95016">
        <ele>134.9</ele>
        <time>2024-04-13T12:55:16Z</time>
      </trkpt>
      <trkpt lat="49.02846" lon="1.95011">
        <ele>135.7</ele>
        <time>2024-04-13T12:55:22Z</time>
      </trkpt>
      <trkpt lat="49.0284" lon="1.95008">
        <ele>136</ele>
        <time>2024-04-13T12:55:28Z</time>
      </trkpt>
      <trkpt lat="49.02835" lon="1.95005">
        <ele>136.2</ele>
        <time>2024-04-13T12:55:33Z</time>
      </trkpt>
      <trkpt lat="49.02828" lon="1.95">
        <ele>136.3</ele>
        <time>2024-04-13T12:55:39Z</time>
      </trkpt>
      <trkpt lat="49.02823" lon="1.94997">
        <ele>136.4</ele>
        <time>2024-04-13T12:55:44Z</time>
      </trkpt>
      <trkpt lat="49.02818" lon="1.94993">
        <ele>136.5</ele>
        <time>2024-04-13T12:55:49Z</time>
      </trkpt>
      <trkpt lat="49.02811" lon="1.94989">
        <ele>136.8</ele>
        <time>2024-04-13T12:55:55Z</time>
      </trkpt>
      <trkpt lat="49.02802" lon="1.94984">
        <ele>137.2</ele>
        <time>2024-04-13T12:56:01Z</time>
      </trkpt>
      <trkpt lat="49.02796" lon="1.94973">
        <ele>137.6</ele>
        <time>2024-04-13T12:56:07Z</time>
      </trkpt>
      <trkpt lat="49.02794" lon="1.9496">
        <ele>137.9</ele>
        <time>2024-04-13T12:56:13Z</time>
      </trkpt>
      <trkpt lat="49.02796" lon="1.94952">
        <ele>138.3</ele>
        <time>2024-04-13T12:56:18Z</time>
      </trkpt>
      <trkpt lat="49.02798" lon="1.9494">
        <ele>138.8</ele>
        <time>2024-04-13T12:56:24Z</time>
      </trkpt>
      <trkpt lat="49.028" lon="1.94931">
        <ele>139.1</ele>
        <time>2024-04-13T12:56:29Z</time>
      </trkpt>
      <trkpt lat="49.02802" lon="1.9492">
        <ele>139.5</ele>
        <time>2024-04-13T12:56:35Z</time>
      </trkpt>
      <trkpt lat="49.02805" lon="1.94908">
        <ele>139.5</ele>
        <time>2024-04-13T12:56:41Z</time>
      </trkpt>
      <trkpt lat="49.02806" lon="1.94897">
        <ele>139.5</ele>
        <time>2024-04-13T12:56:47Z</time>
      </trkpt>
      <trkpt lat="49.02807" lon="1.94885">
        <ele>139.5</ele>
        <time>2024-04-13T12:56:53Z</time>
      </trkpt>
      <trkpt lat="49.02809" lon="1.94876">
        <ele>139.7</ele>
        <time>2024-04-13T12:56:58Z</time>
      </trkpt>
      <trkpt lat="49.02811" lon="1.94866">
        <ele>139.7</ele>
        <time>2024-04-13T12:57:03Z</time>
      </trkpt>
      <trkpt lat="49.02813" lon="1.94855">
        <ele>139.6</ele>
        <time>2024-04-13T12:57:08Z</time>
      </trkpt>
      <trkpt lat="49.02816" lon="1.94844">
        <ele>139.3</ele>
        <time>2024-04-13T12:57:14Z</time>
      </trkpt>
      <trkpt lat="49.02817" lon="1.94833">
        <ele>138.9</ele>
        <time>2024-04-13T12:57:19Z</time>
      </trkpt>
      <trkpt lat="49.02818" lon="1.94822">
        <ele>138.5</ele>
        <time>2024-04-13T12:57:25Z</time>
      </trkpt>
      <trkpt lat="49.0282" lon="1.94811">
        <ele>138.1</ele>
        <time>2024-04-13T12:57:31Z</time>
      </trkpt>
      <trkpt lat="49.02821" lon="1.94796">
        <ele>137.7</ele>
        <time>2024-04-13T12:57:37Z</time>
      </trkpt>
      <trkpt lat="49.02823" lon="1.94786">
        <ele>137.4</ele>
        <time>2024-04-13T12:57:43Z</time>
      </trkpt>
      <trkpt lat="49.02824" lon="1.94777">
        <ele>136.9</ele>
        <time>2024-04-13T12:57:48Z</time>
      </trkpt>
      <trkpt lat="49.02825" lon="1.94761">
        <ele>136.5</ele>
        <time>2024-04-13T12:57:54Z</time>
      </trkpt>
      <trkpt lat="49.02827" lon="1.94748">
        <ele>135.9</ele>
        <time>2024-04-13T12:58:00Z</time>
      </trkpt>
      <trkpt lat="49.02828" lon="1.94736">
        <ele>135.4</ele>
        <time>2024-04-13T12:58:05Z</time>
      </trkpt>
      <trkpt lat="49.02829" lon="1.94724">
        <ele>134.9</ele>
        <time>2024-04-13T12:58:11Z</time>
      </trkpt>
      <trkpt lat="49.02834" lon="1.94712">
        <ele>134.2</ele>
        <time>2024-04-13T12:58:17Z</time>
      </trkpt>
      <trkpt lat="49.02836" lon="1.947">
        <ele>133.3</ele>
        <time>2024-04-13T12:58:23Z</time>
      </trkpt>
      <trkpt lat="49.02837" lon="1.94691">
        <ele>132.5</ele>
        <time>2024-04-13T12:58:28Z</time>
      </trkpt>
      <trkpt lat="49.02839" lon="1.94679">
        <ele>131.6</ele>
        <time>2024-04-13T12:58:33Z</time>
      </trkpt>
      <trkpt lat="49.0284" lon="1.94669">
        <ele>130.9</ele>
        <time>2024-04-13T12:58:38Z</time>
      </trkpt>
      <trkpt lat="49.02842" lon="1.9466">
        <ele>130.5</ele>
        <time>2024-04-13T12:58:43Z</time>
      </trkpt>
      <trkpt lat="49.02844" lon="1.9465">
        <ele>130.4</ele>
        <time>2024-04-13T12:58:49Z</time>
      </trkpt>
      <trkpt lat="49.02845" lon="1.9464">
        <ele>130.2</ele>
        <time>2024-04-13T12:58:54Z</time>
      </trkpt>
      <trkpt lat="49.02846" lon="1.94629">
        <ele>129.8</ele>
        <time>2024-04-13T12:59:00Z</time>
      </trkpt>
      <trkpt lat="49.02847" lon="1.94618">
        <ele>129.5</ele>
        <time>2024-04-13T12:59:05Z</time>
      </trkpt>
      <trkpt lat="49.02849" lon="1.94608">
        <ele>129.4</ele>
        <time>2024-04-13T12:59:11Z</time>
      </trkpt>
      <trkpt lat="49.02849" lon="1.94595">
        <ele>129.5</ele>
        <time>2024-04-13T12:59:17Z</time>
      </trkpt>
      <trkpt lat="49.0285" lon="1.94583">
        <ele>129.7</ele>
        <time>2024-04-13T12:59:23Z</time>
      </trkpt>
      <trkpt lat="49.02851" lon="1.94573">
        <ele>130.1</ele>
        <time>2024-04-13T12:59:28Z</time>
      </trkpt>
      <trkpt lat="49.02852" lon="1.94564">
        <ele>130.7</ele>
        <time>2024-04-13T12:59:33Z</time>
      </trkpt>
      <trkpt lat="49.02855" lon="1.94556">
        <ele>131.4</ele>
        <time>2024-04-13T12:59:38Z</time>
      </trkpt>
      <trkpt lat="49.02857" lon="1.94543">
        <ele>132.1</ele>
        <time>2024-04-13T12:59:44Z</time>
      </trkpt>
      <trkpt lat="49.0286" lon="1.94537">
        <ele>132.4</ele>
        <time>2024-04-13T12:59:49Z</time>
      </trkpt>
      <trkpt lat="49.02862" lon="1.94525">
        <ele>132.8</ele>
        <time>2024-04-13T12:59:55Z</time>
      </trkpt>
      <trkpt lat="49.02861" lon="1.94521">
        <ele>132.8</ele>
        <time>2024-04-13T13:00:01Z</time>
      </trkpt>
      <trkpt lat="49.0286" lon="1.94521">
        <ele>132.8</ele>
        <time>2024-04-13T13:00:07Z</time>
      </trkpt>
      <trkpt lat="49.0286" lon="1.94521">
        <ele>132.9</ele>
        <time>2024-04-13T13:00:13Z</time>
      </trkpt>
      <trkpt lat="49.0286" lon="1.9452">
        <ele>133.2</ele>
        <time>2024-04-13T13:00:18Z</time>
      </trkpt>
      <trkpt lat="49.0286" lon="1.94519">
        <ele>134</ele>
        <time>2024-04-13T13:00:24Z</time>
      </trkpt>
      <trkpt lat="49.0286" lon="1.94519">
        <ele>134.7</ele>
        <time>2024-04-13T13:00:30Z</time>
      </trkpt>
      <trkpt lat="49.02861" lon="1.94519">
        <ele>135</ele>
        <time>2024-04-13T13:00:36Z</time>
      </trkpt>
      <trkpt lat="49.02861" lon="1.94519">
        <ele>135.4</ele>
        <time>2024-04-13T13:00:42Z</time>
      </trkpt>
      <trkpt lat="49.02861" lon="1.94521">
        <ele>135.5</ele>
        <time>2024-04-13T13:00:47Z</time>
      </trkpt>
      <trkpt lat="49.02861" lon="1.94523">
        <ele>135.5</ele>
        <time>2024-04-13T13:00:53Z</time>
      </trkpt>
      <trkpt lat="49.02861" lon="1.94523">
        <ele>135.6</ele>
        <time>2024-04-13T13:00:58Z</time>
      </trkpt>
      <trkpt lat="49.02861" lon="1.94523">
        <ele>135.7</ele>
        <time>2024-04-13T13:01:03Z</time>
      </trkpt>
      <trkpt lat="49.02861" lon="1.94524">
        <ele>135.8</ele>
        <time>2024-04-13T13:01:08Z</time>
      </trkpt>
      <trkpt lat="49.02861" lon="1.94523">
        <ele>135.9</ele>
        <time>2024-04-13T13:01:14Z</time>
      </trkpt>
      <trkpt lat="49.02861" lon="1.94524">
        <ele>135.9</ele>
        <time>2024-04-13T13:01:20Z</time>
      </trkpt>
      <trkpt lat="49.02861" lon="1.94524">
        <ele>136</ele>
        <time>2024-04-13T13:01:26Z</time>
      </trkpt>
      <trkpt lat="49.0286" lon="1.94525">
        <ele>136.4</ele>
        <time>2024-04-13T13:01:32Z</time>
      </trkpt>
      <trkpt lat="49.0286" lon="1.94525">
        <ele>136.5</ele>
        <time>2024-04-13T13:01:38Z</time>
      </trkpt>
      <trkpt lat="49.0286" lon="1.94525">
        <ele>136.7</ele>
        <time>2024-04-13T13:01:43Z</time>
      </trkpt>
      <trkpt lat="49.0286" lon="1.94524">
        <ele>137.1</ele>
        <time>2024-04-13T13:01:49Z</time>
      </trkpt>
      <trkpt lat="49.0286" lon="1.94524">
        <ele>137.2</ele>
        <time>2024-04-13T13:01:54Z</time>
      </trkpt>
      <trkpt lat="49.0286" lon="1.94524">
        <ele>137.3</ele>
        <time>2024-04-13T13:01:59Z</time>
      </trkpt>
      <trkpt lat="49.0286" lon="1.94525">
        <ele>137.5</ele>
        <time>2024-04-13T13:02:05Z</time>
      </trkpt>
      <trkpt lat="49.0286" lon="1.94525">
        <ele>137.7</ele>
        <time>2024-04-13T13:02:10Z</time>
      </trkpt>
      <trkpt lat="49.0286" lon="1.94526">
        <ele>138</ele>
        <time>2024-04-13T13:02:16Z</time>
      </trkpt>
      <trkpt lat="49.0286" lon="1.94526">
        <ele>138.4</ele>
        <time>2024-04-13T13:02:22Z</time>
      </trkpt>
      <trkpt lat="49.02859" lon="1.94526">
        <ele>138.5</ele>
        <time>2024-04-13T13:02:27Z</time>
      </trkpt>
      <trkpt lat="49.02858" lon="1.94526">
        <ele>138.9</ele>
        <time>2024-04-13T13:02:33Z</time>
      </trkpt>
      <trkpt lat="49.02858" lon="1.94527">
        <ele>139.4</ele>
        <time>2024-04-13T13:02:38Z</time>
      </trkpt>
      <trkpt lat="49.02858" lon="1.94527">
        <ele>139.5</ele>
        <time>2024-04-13T13:02:44Z</time>
      </trkpt>
      <trkpt lat="49.02861" lon="1.94527">
        <ele>140.1</ele>
        <time>2024-04-13T13:02:50Z</time>
      </trkpt>
      <trkpt lat="49.02861" lon="1.94526">
        <ele>140.3</ele>
        <time>2024-04-13T13:02:55Z</time>
      </trkpt>
      <trkpt lat="49.02861" lon="1.94525">
        <ele>140.4</ele>
        <time>2024-04-13T13:03:00Z</time>
      </trkpt>
      <trkpt lat="49.02861" lon="1.94525">
        <ele>140.4</ele>
        <time>2024-04-13T13:03:06Z</time>
      </trkpt>
      <trkpt lat="49.02862" lon="1.94524">
        <ele>140.5</ele>
        <time>2024-04-13T13:03:12Z</time>
      </trkpt>
      <trkpt lat="49.02862" lon="1.94524">
        <ele>140.5</ele>
        <time>2024-04-13T13:03:17Z</time>
      </trkpt>
      <trkpt lat="49.02866" lon="1.94519">
        <ele>140.2</ele>
        <time>2024-04-13T13:03:23Z</time>
      </trkpt>
      <trkpt lat="49.0287" lon="1.94512">
        <ele>140.1</ele>
        <time>2024-04-13T13:03:28Z</time>
      </trkpt>
      <trkpt lat="49.02872" lon="1.94506">
        <ele>139.9</ele>
        <time>2024-04-13T13:03:34Z</time>
      </trkpt>
      <trkpt lat="49.02877" lon="1.94498">
        <ele>139.5</ele>
        <time>2024-04-13T13:03:39Z</time>
      </trkpt>
      <trkpt lat="49.0288" lon="1.94494">
        <ele>139.2</ele>
        <time>2024-04-13T13:03:45Z</time>
      </trkpt>
      <trkpt lat="49.02881" lon="1.9449">
        <ele>139</ele>
        <time>2024-04-13T13:03:50Z</time>
      </trkpt>
      <trkpt lat="49.02886" lon="1.94482">
        <ele>138.6</ele>
        <time>2024-04-13T13:03:56Z</time>
      </trkpt>
      <trkpt lat="49.02889" lon="1.94472">
        <ele>138.1</ele>
        <time>2024-04-13T13:04:02Z</time>
      </trkpt>
      <trkpt lat="49.02891" lon="1.94464">
        <ele>137.6</ele>
        <time>2024-04-13T13:04:07Z</time>
      </trkpt>
      <trkpt lat="49.02897" lon="1.94458">
        <ele>136.8</ele>
        <time>2024-04-13T13:04:13Z</time>
      </trkpt>
      <trkpt lat="49.02903" lon="1.94448">
        <ele>136</ele>
        <time>2024-04-13T13:04:19Z</time>
      </trkpt>
      <trkpt lat="49.02909" lon="1.94439">
        <ele>135.3</ele>
        <time>2024-04-13T13:04:25Z</time>
      </trkpt>
      <trkpt lat="49.02916" lon="1.94431">
        <ele>134.5</ele>
        <time>2024-04-13T13:04:31Z</time>
      </trkpt>
      <trkpt lat="49.02919" lon="1.94424">
        <ele>134</ele>
        <time>2024-04-13T13:04:36Z</time>
      </trkpt>
      <trkpt lat="49.02926" lon="1.94418">
        <ele>133.7</ele>
        <time>2024-04-13T13:04:42Z</time>
      </trkpt>
      <trkpt lat="49.02932" lon="1.9441">
        <ele>133.1</ele>
        <time>2024-04-13T13:04:48Z</time>
      </trkpt>
      <trkpt lat="49.02935" lon="1.94405">
        <ele>132.6</ele>
        <time>2024-04-13T13:04:53Z</time>
      </trkpt>
      <trkpt lat="49.02938" lon="1.94397">
        <ele>132.1</ele>
        <time>2024-04-13T13:04:59Z</time>
      </trkpt>
      <trkpt lat="49.02943" lon="1.94391">
        <ele>131.9</ele>
        <time>2024-04-13T13:05:05Z</time>
      </trkpt>
      <trkpt lat="49.02947" lon="1.94382">
        <ele>131.7</ele>
        <time>2024-04-13T13:05:10Z</time>
      </trkpt>
      <trkpt lat="49.02952" lon="1.94374">
        <ele>131.5</ele>
        <time>2024-04-13T13:05:16Z</time>
      </trkpt>
      <trkpt lat="49.02957" lon="1.94369">
        <ele>131.2</ele>
        <time>2024-04-13T13:05:22Z</time>
      </trkpt>
      <trkpt lat="49.02959" lon="1.94366">
        <ele>131</ele>
        <time>2024-04-13T13:05:28Z</time>
      </trkpt>
      <trkpt lat="49.02962" lon="1.94365">
        <ele>130.9</ele>
        <time>2024-04-13T13:05:34Z</time>
      </trkpt>
      <trkpt lat="49.0296" lon="1.94365">
        <ele>130.8</ele>
        <time>2024-04-13T13:05:40Z</time>
      </trkpt>
      <trkpt lat="49.0296" lon="1.94365">
        <ele>130.8</ele>
        <time>2024-04-13T13:05:46Z</time>
      </trkpt>
      <trkpt lat="49.0296" lon="1.94365">
        <ele>130.9</ele>
        <time>2024-04-13T13:05:51Z</time>
      </trkpt>
      <trkpt lat="49.0296" lon="1.94367">
        <ele>130.7</ele>
        <time>2024-04-13T13:05:57Z</time>
      </trkpt>
      <trkpt lat="49.02958" lon="1.94366">
        <ele>130.6</ele>
        <time>2024-04-13T13:06:02Z</time>
      </trkpt>
      <trkpt lat="49.02958" lon="1.94365">
        <ele>130.5</ele>
        <time>2024-04-13T13:06:08Z</time>
      </trkpt>
      <trkpt lat="49.02957" lon="1.94363">
        <ele>130.2</ele>
        <time>2024-04-13T13:06:14Z</time>
      </trkpt>
      <trkpt lat="49.02957" lon="1.94362">
        <ele>129.8</ele>
        <time>2024-04-13T13:06:20Z</time>
      </trkpt>
      <trkpt lat="49.02958" lon="1.94362">
        <ele>129.8</ele>
        <time>2024-04-13T13:06:25Z</time>
      </trkpt>
      <trkpt lat="49.02959" lon="1.94362">
        <ele>129.8</ele>
        <time>2024-04-13T13:06:31Z</time>
      </trkpt>
      <trkpt lat="49.02961" lon="1.94358">
        <ele>129.5</ele>
        <time>2024-04-13T13:06:36Z</time>
      </trkpt>
      <trkpt lat="49.02965" lon="1.94356">
        <ele>129</ele>
        <time>2024-04-13T13:06:41Z</time>
      </trkpt>
      <trkpt lat="49.02968" lon="1.94351">
        <ele>128.4</ele>
        <time>2024-04-13T13:06:46Z</time>
      </trkpt>
      <trkpt lat="49.02971" lon="1.94342">
        <ele>127.8</ele>
        <time>2024-04-13T13:06:52Z</time>
      </trkpt>
      <trkpt lat="49.02969" lon="1.94337">
        <ele>127.3</ele>
        <time>2024-04-13T13:06:58Z</time>
      </trkpt>
      <trkpt lat="49.02966" lon="1.94335">
        <ele>126.8</ele>
        <time>2024-04-13T13:07:04Z</time>
      </trkpt>
      <trkpt lat="49.02962" lon="1.9433">
        <ele>126.4</ele>
        <time>2024-04-13T13:07:09Z</time>
      </trkpt>
      <trkpt lat="49.02958" lon="1.94319">
        <ele>126</ele>
        <time>2024-04-13T13:07:15Z</time>
      </trkpt>
      <trkpt lat="49.02957" lon="1.94308">
        <ele>125.8</ele>
        <time>2024-04-13T13:07:21Z</time>
      </trkpt>
      <trkpt lat="49.02956" lon="1.943">
        <ele>125.7</ele>
        <time>2024-04-13T13:07:26Z</time>
      </trkpt>
      <trkpt lat="49.02953" lon="1.94287">
        <ele>125.4</ele>
        <time>2024-04-13T13:07:32Z</time>
      </trkpt>
      <trkpt lat="49.02951" lon="1.9428">
        <ele>125.4</ele>
        <time>2024-04-13T13:07:37Z</time>
      </trkpt>
      <trkpt lat="49.02948" lon="1.94271">
        <ele>125.1</ele>
        <time>2024-04-13T13:07:43Z</time>
      </trkpt>
      <trkpt lat="49.02945" lon="1.94261">
        <ele>125</ele>
        <time>2024-04-13T13:07:49Z</time>
      </trkpt>
      <trkpt lat="49.02941" lon="1.94253">
        <ele>124.8</ele>
        <time>2024-04-13T13:07:54Z</time>
      </trkpt>
      <trkpt lat="49.02939" lon="1.94246">
        <ele>124.6</ele>
        <time>2024-04-13T13:07:59Z</time>
      </trkpt>
      <trkpt lat="49.02937" lon="1.94238">
        <ele>124.4</ele>
        <time>2024-04-13T13:08:05Z</time>
      </trkpt>
      <trkpt lat="49.02936" lon="1.94226">
        <ele>124.5</ele>
        <time>2024-04-13T13:08:11Z</time>
      </trkpt>
      <trkpt lat="49.02937" lon="1.94216">
        <ele>124.7</ele>
        <time>2024-04-13T13:08:16Z</time>
      </trkpt>
      <trkpt lat="49.02936" lon="1.94205">
        <ele>125</ele>
        <time>2024-04-13T13:08:22Z</time>
      </trkpt>
      <trkpt lat="49.02935" lon="1.94193">
        <ele>125</ele>
        <time>2024-04-13T13:08:27Z</time>
      </trkpt>
      <trkpt lat="49.02937" lon="1.94184">
        <ele>124.8</ele>
        <time>2024-04-13T13:08:33Z</time>
      </trkpt>
      <trkpt lat="49.02938" lon="1.9418">
        <ele>124.7</ele>
        <time>2024-04-13T13:08:38Z</time>
      </trkpt>
      <trkpt lat="49.0294" lon="1.94171">
        <ele>124.4</ele>
        <time>2024-04-13T13:08:44Z</time>
      </trkpt>
      <trkpt lat="49.02942" lon="1.94162">
        <ele>123.9</ele>
        <time>2024-04-13T13:08:49Z</time>
      </trkpt>
      <trkpt lat="49.02942" lon="1.94149">
        <ele>122.6</ele>
        <time>2024-04-13T13:08:55Z</time>
      </trkpt>
      <trkpt lat="49.02942" lon="1.94136">
        <ele>120.8</ele>
        <time>2024-04-13T13:09:01Z</time>
      </trkpt>
      <trkpt lat="49.02941" lon="1.94124">
        <ele>119.2</ele>
        <time>2024-04-13T13:09:07Z</time>
      </trkpt>
      <trkpt lat="49.02941" lon="1.94116">
        <ele>117.9</ele>
        <time>2024-04-13T13:09:13Z</time>
      </trkpt>
      <trkpt lat="49.02939" lon="1.94103">
        <ele>116.9</ele>
        <time>2024-04-13T13:09:19Z</time>
      </trkpt>
      <trkpt lat="49.0294" lon="1.94089">
        <ele>115.8</ele>
        <time>2024-04-13T13:09:25Z</time>
      </trkpt>
      <trkpt lat="49.02942" lon="1.94078">
        <ele>115</ele>
        <time>2024-04-13T13:09:31Z</time>
      </trkpt>
      <trkpt lat="49.02944" lon="1.94071">
        <ele>114.2</ele>
        <time>2024-04-13T13:09:36Z</time>
      </trkpt>
      <trkpt lat="49.02946" lon="1.94064">
        <ele>113.4</ele>
        <time>2024-04-13T13:09:41Z</time>
      </trkpt>
      <trkpt lat="49.02947" lon="1.94054">
        <ele>112.2</ele>
        <time>2024-04-13T13:09:47Z</time>
      </trkpt>
      <trkpt lat="49.02945" lon="1.94044">
        <ele>110.8</ele>
        <time>2024-04-13T13:09:53Z</time>
      </trkpt>
      <trkpt lat="49.02945" lon="1.94033">
        <ele>109.6</ele>
        <time>2024-04-13T13:09:58Z</time>
      </trkpt>
      <trkpt lat="49.02946" lon="1.94021">
        <ele>108.5</ele>
        <time>2024-04-13T13:10:03Z</time>
      </trkpt>
      <trkpt lat="49.02946" lon="1.94016">
        <ele>107.7</ele>
        <time>2024-04-13T13:10:08Z</time>
      </trkpt>
      <trkpt lat="49.02948" lon="1.93999">
        <ele>106.7</ele>
        <time>2024-04-13T13:10:14Z</time>
      </trkpt>
      <trkpt lat="49.0295" lon="1.93992">
        <ele>106.1</ele>
        <time>2024-04-13T13:10:20Z</time>
      </trkpt>
      <trkpt lat="49.02951" lon="1.93985">
        <ele>105.5</ele>
        <time>2024-04-13T13:10:25Z</time>
      </trkpt>
      <trkpt lat="49.02952" lon="1.9397">
        <ele>104.7</ele>
        <time>2024-04-13T13:10:31Z</time>
      </trkpt>
      <trkpt lat="49.02953" lon="1.93962">
        <ele>103.9</ele>
        <time>2024-04-13T13:10:37Z</time>
      </trkpt>
      <trkpt lat="49.02954" lon="1.93955">
        <ele>103.3</ele>
        <time>2024-04-13T13:10:42Z</time>
      </trkpt>
      <trkpt lat="49.02956" lon="1.93945">
        <ele>102.3</ele>
        <time>2024-04-13T13:10:48Z</time>
      </trkpt>
      <trkpt lat="49.02957" lon="1.93933">
        <ele>101.3</ele>
        <time>2024-04-13T13:10:54Z</time>
      </trkpt>
      <trkpt lat="49.02958" lon="1.93922">
        <ele>100</ele>
        <time>2024-04-13T13:11:00Z</time>
      </trkpt>
      <trkpt lat="49.02958" lon="1.93908">
        <ele>98.7</ele>
        <time>2024-04-13T13:11:06Z</time>
      </trkpt>
      <trkpt lat="49.02959" lon="1.93898">
        <ele>97.6</ele>
        <time>2024-04-13T13:11:12Z</time>
      </trkpt>
      <trkpt lat="49.0296" lon="1.93886">
        <ele>96.3</ele>
        <time>2024-04-13T13:11:18Z</time>
      </trkpt>
      <trkpt lat="49.0296" lon="1.93874">
        <ele>94.9</ele>
        <time>2024-04-13T13:11:24Z</time>
      </trkpt>
      <trkpt lat="49.02961" lon="1.93866">
        <ele>93.6</ele>
        <time>2024-04-13T13:11:30Z</time>
      </trkpt>
      <trkpt lat="49.02963" lon="1.93856">
        <ele>92.4</ele>
        <time>2024-04-13T13:11:35Z</time>
      </trkpt>
      <trkpt lat="49.02963" lon="1.93849">
        <ele>91</ele>
        <time>2024-04-13T13:11:41Z</time>
      </trkpt>
      <trkpt lat="49.02963" lon="1.9384">
        <ele>89.8</ele>
        <time>2024-04-13T13:11:46Z</time>
      </trkpt>
      <trkpt lat="49.0296" lon="1.9383">
        <ele>88</ele>
        <time>2024-04-13T13:11:52Z</time>
      </trkpt>
      <trkpt lat="49.02957" lon="1.93821">
        <ele>86.4</ele>
        <time>2024-04-13T13:11:58Z</time>
      </trkpt>
      <trkpt lat="49.02955" lon="1.93814">
        <ele>85</ele>
        <time>2024-04-13T13:12:03Z</time>
      </trkpt>
      <trkpt lat="49.02955" lon="1.93814">
        <ele>84.1</ele>
        <time>2024-04-13T13:12:08Z</time>
      </trkpt>
      <trkpt lat="49.02955" lon="1.93815">
        <ele>83.9</ele>
        <time>2024-04-13T13:12:13Z</time>
      </trkpt>
      <trkpt lat="49.02954" lon="1.93813">
        <ele>82.9</ele>
        <time>2024-04-13T13:12:19Z</time>
      </trkpt>
      <trkpt lat="49.02954" lon="1.93811">
        <ele>82.3</ele>
        <time>2024-04-13T13:12:24Z</time>
      </trkpt>
      <trkpt lat="49.02955" lon="1.93813">
        <ele>81.5</ele>
        <time>2024-04-13T13:12:30Z</time>
      </trkpt>
      <trkpt lat="49.02956" lon="1.93813">
        <ele>81.1</ele>
        <time>2024-04-13T13:12:35Z</time>
      </trkpt>
      <trkpt lat="49.02957" lon="1.93814">
        <ele>80.4</ele>
        <time>2024-04-13T13:12:41Z</time>
      </trkpt>
      <trkpt lat="49.0296" lon="1.93816">
        <ele>79.7</ele>
        <time>2024-04-13T13:12:47Z</time>
      </trkpt>
      <trkpt lat="49.0296" lon="1.93816">
        <ele>79</ele>
        <time>2024-04-13T13:12:53Z</time>
      </trkpt>
      <trkpt lat="49.02958" lon="1.93817">
        <ele>78.5</ele>
        <time>2024-04-13T13:12:58Z</time>
      </trkpt>
      <trkpt lat="49.02955" lon="1.93814">
        <ele>81.3</ele>
        <time>2024-04-13T13:13:14Z</time>
      </trkpt>
      <trkpt lat="49.02957" lon="1.93823">
        <ele>85.8</ele>
        <time>2024-04-13T13:13:30Z</time>
      </trkpt>
      <trkpt lat="49.02957" lon="1.93823">
        <ele>87.4</ele>
        <time>2024-04-13T13:13:36Z</time>
      </trkpt>
      <trkpt lat="49.02955" lon="1.93822">
        <ele>89.9</ele>
        <time>2024-04-13T13:13:43Z</time>
      </trkpt>
      <trkpt lat="49.02956" lon="1.9382">
        <ele>91</ele>
        <time>2024-04-13T13:13:49Z</time>
      </trkpt>
      <trkpt lat="49.02953" lon="1.93821">
        <ele>92.2</ele>
        <time>2024-04-13T13:13:55Z</time>
      </trkpt>
      <trkpt lat="49.0295" lon="1.93819">
        <ele>95.1</ele>
        <time>2024-04-13T13:14:04Z</time>
      </trkpt>
      <trkpt lat="49.02941" lon="1.93822">
        <ele>95</ele>
        <time>2024-04-13T13:14:09Z</time>
      </trkpt>
      <trkpt lat="49.02944" lon="1.93818">
        <ele>94.7</ele>
        <time>2024-04-13T13:14:15Z</time>
      </trkpt>
      <trkpt lat="49.02949" lon="1.93817">
        <ele>94.9</ele>
        <time>2024-04-13T13:14:21Z</time>
      </trkpt>
      <trkpt lat="49.02952" lon="1.93823">
        <ele>94.7</ele>
        <time>2024-04-13T13:14:26Z</time>
      </trkpt>
      <trkpt lat="49.02953" lon="1.93822">
        <ele>94.6</ele>
        <time>2024-04-13T13:14:31Z</time>
      </trkpt>
      <trkpt lat="49.02953" lon="1.93822">
        <ele>94.6</ele>
        <time>2024-04-13T13:14:37Z</time>
      </trkpt>
      <trkpt lat="49.02954" lon="1.93822">
        <ele>94.7</ele>
        <time>2024-04-13T13:14:43Z</time>
      </trkpt>
      <trkpt lat="49.02956" lon="1.93825">
        <ele>95</ele>
        <time>2024-04-13T13:14:49Z</time>
      </trkpt>
      <trkpt lat="49.02956" lon="1.93825">
        <ele>95.2</ele>
        <time>2024-04-13T13:14:54Z</time>
      </trkpt>
      <trkpt lat="49.02957" lon="1.93825">
        <ele>95.4</ele>
        <time>2024-04-13T13:15:00Z</time>
      </trkpt>
      <trkpt lat="49.0296" lon="1.93827">
        <ele>95.5</ele>
        <time>2024-04-13T13:15:06Z</time>
      </trkpt>
      <trkpt lat="49.0296" lon="1.93831">
        <ele>95.7</ele>
        <time>2024-04-13T13:15:11Z</time>
      </trkpt>
      <trkpt lat="49.02958" lon="1.93835">
        <ele>95.9</ele>
        <time>2024-04-13T13:15:17Z</time>
      </trkpt>
      <trkpt lat="49.02956" lon="1.93836">
        <ele>96.3</ele>
        <time>2024-04-13T13:15:23Z</time>
      </trkpt>
      <trkpt lat="49.02955" lon="1.93835">
        <ele>96.5</ele>
        <time>2024-04-13T13:15:29Z</time>
      </trkpt>
      <trkpt lat="49.02954" lon="1.93834">
        <ele>97</ele>
        <time>2024-04-13T13:15:35Z</time>
      </trkpt>
      <trkpt lat="49.02955" lon="1.93832">
        <ele>97.2</ele>
        <time>2024-04-13T13:15:41Z</time>
      </trkpt>
      <trkpt lat="49.02957" lon="1.93831">
        <ele>97.2</ele>
        <time>2024-04-13T13:15:47Z</time>
      </trkpt>
      <trkpt lat="49.02957" lon="1.9383">
        <ele>97.1</ele>
        <time>2024-04-13T13:15:53Z</time>
      </trkpt>
      <trkpt lat="49.02955" lon="1.9383">
        <ele>97.1</ele>
        <time>2024-04-13T13:15:59Z</time>
      </trkpt>
      <trkpt lat="49.02954" lon="1.9383">
        <ele>97</ele>
        <time>2024-04-13T13:16:05Z</time>
      </trkpt>
      <trkpt lat="49.02954" lon="1.9383">
        <ele>96.8</ele>
        <time>2024-04-13T13:16:10Z</time>
      </trkpt>
      <trkpt lat="49.02955" lon="1.9383">
        <ele>96.4</ele>
        <time>2024-04-13T13:16:16Z</time>
      </trkpt>
      <trkpt lat="49.02954" lon="1.93829">
        <ele>96.2</ele>
        <time>2024-04-13T13:16:21Z</time>
      </trkpt>
      <trkpt lat="49.02954" lon="1.93827">
        <ele>96</ele>
        <time>2024-04-13T13:16:27Z</time>
      </trkpt>
      <trkpt lat="49.02954" lon="1.93827">
        <ele>95.9</ele>
        <time>2024-04-13T13:16:33Z</time>
      </trkpt>
      <trkpt lat="49.02954" lon="1.93827">
        <ele>95.8</ele>
        <time>2024-04-13T13:16:39Z</time>
      </trkpt>
      <trkpt lat="49.02952" lon="1.93826">
        <ele>95.6</ele>
        <time>2024-04-13T13:16:44Z</time>
      </trkpt>
      <trkpt lat="49.02952" lon="1.93825">
        <ele>95.4</ele>
        <time>2024-04-13T13:16:49Z</time>
      </trkpt>
      <trkpt lat="49.0295" lon="1.93825">
        <ele>95.1</ele>
        <time>2024-04-13T13:16:55Z</time>
      </trkpt>
      <trkpt lat="49.02952" lon="1.93825">
        <ele>95</ele>
        <time>2024-04-13T13:17:01Z</time>
      </trkpt>
      <trkpt lat="49.02952" lon="1.93825">
        <ele>94.9</ele>
        <time>2024-04-13T13:17:06Z</time>
      </trkpt>
      <trkpt lat="49.02952" lon="1.93825">
        <ele>94.9</ele>
        <time>2024-04-13T13:17:12Z</time>
      </trkpt>
      <trkpt lat="49.02952" lon="1.93825">
        <ele>94.9</ele>
        <time>2024-04-13T13:17:18Z</time>
      </trkpt>
      <trkpt lat="49.02952" lon="1.93825">
        <ele>94.9</ele>
        <time>2024-04-13T13:17:24Z</time>
      </trkpt>
      <trkpt lat="49.02953" lon="1.93824">
        <ele>94.8</ele>
        <time>2024-04-13T13:17:29Z</time>
      </trkpt>
      <trkpt lat="49.02954" lon="1.93824">
        <ele>94.7</ele>
        <time>2024-04-13T13:17:35Z</time>
      </trkpt>
      <trkpt lat="49.02956" lon="1.93824">
        <ele>94.4</ele>
        <time>2024-04-13T13:17:41Z</time>
      </trkpt>
      <trkpt lat="49.02959" lon="1.93818">
        <ele>94.1</ele>
        <time>2024-04-13T13:17:46Z</time>
      </trkpt>
      <trkpt lat="49.02965" lon="1.9381">
        <ele>93.6</ele>
        <time>2024-04-13T13:17:52Z</time>
      </trkpt>
      <trkpt lat="49.02967" lon="1.93804">
        <ele>93.3</ele>
        <time>2024-04-13T13:17:57Z</time>
      </trkpt>
      <trkpt lat="49.02969" lon="1.93795">
        <ele>92.5</ele>
        <time>2024-04-13T13:18:03Z</time>
      </trkpt>
      <trkpt lat="49.02972" lon="1.93785">
        <ele>91.7</ele>
        <time>2024-04-13T13:18:09Z</time>
      </trkpt>
      <trkpt lat="49.02977" lon="1.93773">
        <ele>91.1</ele>
        <time>2024-04-13T13:18:15Z</time>
      </trkpt>
      <trkpt lat="49.02981" lon="1.93768">
        <ele>90.7</ele>
        <time>2024-04-13T13:18:20Z</time>
      </trkpt>
      <trkpt lat="49.02985" lon="1.93763">
        <ele>90.3</ele>
        <time>2024-04-13T13:18:25Z</time>
      </trkpt>
      <trkpt lat="49.02989" lon="1.9376">
        <ele>89.6</ele>
        <time>2024-04-13T13:18:31Z</time>
      </trkpt>
      <trkpt lat="49.02991" lon="1.93753">
        <ele>88.4</ele>
        <time>2024-04-13T13:18:37Z</time>
      </trkpt>
      <trkpt lat="49.0299" lon="1.93747">
        <ele>87.9</ele>
        <time>2024-04-13T13:18:43Z</time>
      </trkpt>
      <trkpt lat="49.02992" lon="1.93745">
        <ele>87.5</ele>
        <time>2024-04-13T13:18:49Z</time>
      </trkpt>
      <trkpt lat="49.02993" lon="1.93743">
        <ele>87.4</ele>
        <time>2024-04-13T13:18:55Z</time>
      </trkpt>
      <trkpt lat="49.02994" lon="1.93742">
        <ele>87.3</ele>
        <time>2024-04-13T13:19:01Z</time>
      </trkpt>
      <trkpt lat="49.02995" lon="1.93742">
        <ele>87.2</ele>
        <time>2024-04-13T13:19:06Z</time>
      </trkpt>
      <trkpt lat="49.02996" lon="1.93743">
        <ele>86.9</ele>
        <time>2024-04-13T13:19:11Z</time>
      </trkpt>
      <trkpt lat="49.02996" lon="1.93742">
        <ele>86.2</ele>
        <time>2024-04-13T13:19:16Z</time>
      </trkpt>
      <trkpt lat="49.02997" lon="1.93743">
        <ele>85.6</ele>
        <time>2024-04-13T13:19:22Z</time>
      </trkpt>
      <trkpt lat="49.02999" lon="1.93747">
        <ele>85.3</ele>
        <time>2024-04-13T13:19:28Z</time>
      </trkpt>
      <trkpt lat="49.03002" lon="1.93748">
        <ele>85.1</ele>
        <time>2024-04-13T13:19:34Z</time>
      </trkpt>
      <trkpt lat="49.03009" lon="1.93745">
        <ele>84.9</ele>
        <time>2024-04-13T13:19:40Z</time>
      </trkpt>
      <trkpt lat="49.03014" lon="1.93739">
        <ele>84.8</ele>
        <time>2024-04-13T13:19:45Z</time>
      </trkpt>
      <trkpt lat="49.03021" lon="1.93732">
        <ele>84.7</ele>
        <time>2024-04-13T13:19:51Z</time>
      </trkpt>
      <trkpt lat="49.03027" lon="1.93725">
        <ele>84.7</ele>
        <time>2024-04-13T13:19:56Z</time>
      </trkpt>
      <trkpt lat="49.03032" lon="1.93718">
        <ele>84.7</ele>
        <time>2024-04-13T13:20:02Z</time>
      </trkpt>
      <trkpt lat="49.03036" lon="1.93712">
        <ele>84.7</ele>
        <time>2024-04-13T13:20:07Z</time>
      </trkpt>
      <trkpt lat="49.0304" lon="1.93708">
        <ele>84.7</ele>
        <time>2024-04-13T13:20:13Z</time>
      </trkpt>
      <trkpt lat="49.0304" lon="1.93708">
        <ele>84.7</ele>
        <time>2024-04-13T13:20:18Z</time>
      </trkpt>
      <trkpt lat="49.0304" lon="1.93708">
        <ele>84.7</ele>
        <time>2024-04-13T13:20:24Z</time>
      </trkpt>
      <trkpt lat="49.03039" lon="1.93708">
        <ele>84.8</ele>
        <time>2024-04-13T13:20:30Z</time>
      </trkpt>
      <trkpt lat="49.03039" lon="1.93708">
        <ele>84.8</ele>
        <time>2024-04-13T13:20:36Z</time>
      </trkpt>
      <trkpt lat="49.03039" lon="1.93709">
        <ele>84.9</ele>
        <time>2024-04-13T13:20:42Z</time>
      </trkpt>
      <trkpt lat="49.03039" lon="1.93709">
        <ele>84.9</ele>
        <time>2024-04-13T13:20:48Z</time>
      </trkpt>
      <trkpt lat="49.03039" lon="1.93709">
        <ele>85</ele>
        <time>2024-04-13T13:20:54Z</time>
      </trkpt>
      <trkpt lat="49.03039" lon="1.93709">
        <ele>85</ele>
        <time>2024-04-13T13:21:00Z</time>
      </trkpt>
      <trkpt lat="49.03039" lon="1.93709">
        <ele>85.1</ele>
        <time>2024-04-13T13:21:05Z</time>
      </trkpt>
      <trkpt lat="49.03039" lon="1.93709">
        <ele>85.1</ele>
        <time>2024-04-13T13:21:11Z</time>
      </trkpt>
      <trkpt lat="49.03039" lon="1.93707">
        <ele>85.1</ele>
        <time>2024-04-13T13:21:17Z</time>
      </trkpt>
      <trkpt lat="49.03043" lon="1.937">
        <ele>85.1</ele>
        <time>2024-04-13T13:21:23Z</time>
      </trkpt>
      <trkpt lat="49.03047" lon="1.93692">
        <ele>84.9</ele>
        <time>2024-04-13T13:21:28Z</time>
      </trkpt>
      <trkpt lat="49.03052" lon="1.93684">
        <ele>84.5</ele>
        <time>2024-04-13T13:21:34Z</time>
      </trkpt>
      <trkpt lat="49.03056" lon="1.93678">
        <ele>84</ele>
        <time>2024-04-13T13:21:39Z</time>
      </trkpt>
      <trkpt lat="49.0306" lon="1.93671">
        <ele>83.4</ele>
        <time>2024-04-13T13:21:45Z</time>
      </trkpt>
      <trkpt lat="49.03063" lon="1.93666">
        <ele>83.1</ele>
        <time>2024-04-13T13:21:50Z</time>
      </trkpt>
      <trkpt lat="49.03062" lon="1.93665">
        <ele>82.9</ele>
        <time>2024-04-13T13:21:56Z</time>
      </trkpt>
      <trkpt lat="49.03062" lon="1.93665">
        <ele>82.9</ele>
        <time>2024-04-13T13:22:02Z</time>
      </trkpt>
      <trkpt lat="49.03066" lon="1.93662">
        <ele>83.1</ele>
        <time>2024-04-13T13:22:07Z</time>
      </trkpt>
      <trkpt lat="49.03072" lon="1.93656">
        <ele>83.4</ele>
        <time>2024-04-13T13:22:13Z</time>
      </trkpt>
      <trkpt lat="49.03077" lon="1.93648">
        <ele>83.4</ele>
        <time>2024-04-13T13:22:19Z</time>
      </trkpt>
      <trkpt lat="49.03081" lon="1.93639">
        <ele>83.3</ele>
        <time>2024-04-13T13:22:25Z</time>
      </trkpt>
      <trkpt lat="49.03084" lon="1.93633">
        <ele>83.2</ele>
        <time>2024-04-13T13:22:30Z</time>
      </trkpt>
      <trkpt lat="49.03088" lon="1.93628">
        <ele>83.2</ele>
        <time>2024-04-13T13:22:35Z</time>
      </trkpt>
      <trkpt lat="49.03093" lon="1.9362">
        <ele>83.2</ele>
        <time>2024-04-13T13:22:41Z</time>
      </trkpt>
      <trkpt lat="49.03094" lon="1.93614">
        <ele>83.3</ele>
        <time>2024-04-13T13:22:47Z</time>
      </trkpt>
      <trkpt lat="49.03093" lon="1.93607">
        <ele>83.5</ele>
        <time>2024-04-13T13:22:53Z</time>
      </trkpt>
      <trkpt lat="49.03089" lon="1.93599">
        <ele>83.8</ele>
        <time>2024-04-13T13:22:59Z</time>
      </trkpt>
      <trkpt lat="49.03086" lon="1.93594">
        <ele>84.3</ele>
        <time>2024-04-13T13:23:04Z</time>
      </trkpt>
      <trkpt lat="49.03083" lon="1.93588">
        <ele>84.7</ele>
        <time>2024-04-13T13:23:09Z</time>
      </trkpt>
      <trkpt lat="49.03081" lon="1.9358">
        <ele>85.3</ele>
        <time>2024-04-13T13:23:15Z</time>
      </trkpt>
      <trkpt lat="49.0308" lon="1.93573">
        <ele>86.1</ele>
        <time>2024-04-13T13:23:21Z</time>
      </trkpt>
      <trkpt lat="49.03079" lon="1.93561">
        <ele>86.8</ele>
        <time>2024-04-13T13:23:27Z</time>
      </trkpt>
      <trkpt lat="49.03082" lon="1.93551">
        <ele>87.1</ele>
        <time>2024-04-13T13:23:33Z</time>
      </trkpt>
      <trkpt lat="49.03082" lon="1.93541">
        <ele>87.2</ele>
        <time>2024-04-13T13:23:39Z</time>
      </trkpt>
      <trkpt lat="49.03083" lon="1.93531">
        <ele>87.3</ele>
        <time>2024-04-13T13:23:45Z</time>
      </trkpt>
      <trkpt lat="49.03085" lon="1.93523">
        <ele>87.2</ele>
        <time>2024-04-13T13:23:50Z</time>
      </trkpt>
      <trkpt lat="49.03086" lon="1.93513">
        <ele>87</ele>
        <time>2024-04-13T13:23:56Z</time>
      </trkpt>
      <trkpt lat="49.03089" lon="1.93503">
        <ele>86.8</ele>
        <time>2024-04-13T13:24:02Z</time>
      </trkpt>
      <trkpt lat="49.03093" lon="1.93494">
        <ele>86.7</ele>
        <time>2024-04-13T13:24:08Z</time>
      </trkpt>
      <trkpt lat="49.03096" lon="1.93485">
        <ele>86.4</ele>
        <time>2024-04-13T13:24:13Z</time>
      </trkpt>
      <trkpt lat="49.03098" lon="1.93475">
        <ele>86.1</ele>
        <time>2024-04-13T13:24:18Z</time>
      </trkpt>
      <trkpt lat="49.03099" lon="1.93464">
        <ele>86.1</ele>
        <time>2024-04-13T13:24:24Z</time>
      </trkpt>
      <trkpt lat="49.03099" lon="1.93457">
        <ele>86.1</ele>
        <time>2024-04-13T13:24:29Z</time>
      </trkpt>
      <trkpt lat="49.03097" lon="1.93446">
        <ele>86.1</ele>
        <time>2024-04-13T13:24:35Z</time>
      </trkpt>
      <trkpt lat="49.03094" lon="1.93437">
        <ele>86</ele>
        <time>2024-04-13T13:24:40Z</time>
      </trkpt>
      <trkpt lat="49.03092" lon="1.93428">
        <ele>86.2</ele>
        <time>2024-04-13T13:24:46Z</time>
      </trkpt>
      <trkpt lat="49.03089" lon="1.93417">
        <ele>86.3</ele>
        <time>2024-04-13T13:24:52Z</time>
      </trkpt>
      <trkpt lat="49.03087" lon="1.93407">
        <ele>86.7</ele>
        <time>2024-04-13T13:24:57Z</time>
      </trkpt>
      <trkpt lat="49.03085" lon="1.93399">
        <ele>87.2</ele>
        <time>2024-04-13T13:25:03Z</time>
      </trkpt>
      <trkpt lat="49.03087" lon="1.93399">
        <ele>87.7</ele>
        <time>2024-04-13T13:25:08Z</time>
      </trkpt>
      <trkpt lat="49.03092" lon="1.93399">
        <ele>88.6</ele>
        <time>2024-04-13T13:25:14Z</time>
      </trkpt>
      <trkpt lat="49.03091" lon="1.93397">
        <ele>89.1</ele>
        <time>2024-04-13T13:25:19Z</time>
      </trkpt>
      <trkpt lat="49.03095" lon="1.93392">
        <ele>89.9</ele>
        <time>2024-04-13T13:25:24Z</time>
      </trkpt>
      <trkpt lat="49.03095" lon="1.93381">
        <ele>90.8</ele>
        <time>2024-04-13T13:25:30Z</time>
      </trkpt>
      <trkpt lat="49.03093" lon="1.93371">
        <ele>91.7</ele>
        <time>2024-04-13T13:25:36Z</time>
      </trkpt>
      <trkpt lat="49.03096" lon="1.93361">
        <ele>92.5</ele>
        <time>2024-04-13T13:25:42Z</time>
      </trkpt>
      <trkpt lat="49.03099" lon="1.93352">
        <ele>92.9</ele>
        <time>2024-04-13T13:25:48Z</time>
      </trkpt>
      <trkpt lat="49.03103" lon="1.93346">
        <ele>93.2</ele>
        <time>2024-04-13T13:25:53Z</time>
      </trkpt>
      <trkpt lat="49.03109" lon="1.93342">
        <ele>93.3</ele>
        <time>2024-04-13T13:25:59Z</time>
      </trkpt>
      <trkpt lat="49.03116" lon="1.93336">
        <ele>93.3</ele>
        <time>2024-04-13T13:26:05Z</time>
      </trkpt>
      <trkpt lat="49.03121" lon="1.9333">
        <ele>93.4</ele>
        <time>2024-04-13T13:26:10Z</time>
      </trkpt>
      <trkpt lat="49.03125" lon="1.93323">
        <ele>93.5</ele>
        <time>2024-04-13T13:26:16Z</time>
      </trkpt>
      <trkpt lat="49.03131" lon="1.93318">
        <ele>93.7</ele>
        <time>2024-04-13T13:26:21Z</time>
      </trkpt>
      <trkpt lat="49.03134" lon="1.93315">
        <ele>93.9</ele>
        <time>2024-04-13T13:26:26Z</time>
      </trkpt>
      <trkpt lat="49.0314" lon="1.93311">
        <ele>94.2</ele>
        <time>2024-04-13T13:26:32Z</time>
      </trkpt>
      <trkpt lat="49.03148" lon="1.93309">
        <ele>94.6</ele>
        <time>2024-04-13T13:26:38Z</time>
      </trkpt>
      <trkpt lat="49.03154" lon="1.93308">
        <ele>95.1</ele>
        <time>2024-04-13T13:26:44Z</time>
      </trkpt>
      <trkpt lat="49.03161" lon="1.93306">
        <ele>95.5</ele>
        <time>2024-04-13T13:26:50Z</time>
      </trkpt>
      <trkpt lat="49.03168" lon="1.93308">
        <ele>95.8</ele>
        <time>2024-04-13T13:26:55Z</time>
      </trkpt>
      <trkpt lat="49.03174" lon="1.93312">
        <ele>96.2</ele>
        <time>2024-04-13T13:27:01Z</time>
      </trkpt>
      <trkpt lat="49.03177" lon="1.93316">
        <ele>96.5</ele>
        <time>2024-04-13T13:27:07Z</time>
      </trkpt>
      <trkpt lat="49.03182" lon="1.93321">
        <ele>96.8</ele>
        <time>2024-04-13T13:27:13Z</time>
      </trkpt>
      <trkpt lat="49.0319" lon="1.93328">
        <ele>97</ele>
        <time>2024-04-13T13:27:19Z</time>
      </trkpt>
      <trkpt lat="49.03196" lon="1.93335">
        <ele>97.2</ele>
        <time>2024-04-13T13:27:25Z</time>
      </trkpt>
      <trkpt lat="49.03201" lon="1.9334">
        <ele>97.4</ele>
        <time>2024-04-13T13:27:31Z</time>
      </trkpt>
      <trkpt lat="49.03206" lon="1.93345">
        <ele>97.8</ele>
        <time>2024-04-13T13:27:37Z</time>
      </trkpt>
      <trkpt lat="49.03211" lon="1.9335">
        <ele>98.5</ele>
        <time>2024-04-13T13:27:43Z</time>
      </trkpt>
      <trkpt lat="49.03213" lon="1.93357">
        <ele>99.1</ele>
        <time>2024-04-13T13:27:48Z</time>
      </trkpt>
      <trkpt lat="49.03219" lon="1.93361">
        <ele>99.7</ele>
        <time>2024-04-13T13:27:53Z</time>
      </trkpt>
      <trkpt lat="49.03227" lon="1.93366">
        <ele>100.6</ele>
        <time>2024-04-13T13:27:59Z</time>
      </trkpt>
      <trkpt lat="49.03233" lon="1.93371">
        <ele>101.5</ele>
        <time>2024-04-13T13:28:05Z</time>
      </trkpt>
      <trkpt lat="49.03238" lon="1.93378">
        <ele>102.4</ele>
        <time>2024-04-13T13:28:11Z</time>
      </trkpt>
      <trkpt lat="49.03244" lon="1.93384">
        <ele>103.5</ele>
        <time>2024-04-13T13:28:17Z</time>
      </trkpt>
      <trkpt lat="49.03248" lon="1.93392">
        <ele>104.8</ele>
        <time>2024-04-13T13:28:23Z</time>
      </trkpt>
      <trkpt lat="49.03253" lon="1.93398">
        <ele>106</ele>
        <time>2024-04-13T13:28:29Z</time>
      </trkpt>
      <trkpt lat="49.03259" lon="1.93401">
        <ele>107</ele>
        <time>2024-04-13T13:28:34Z</time>
      </trkpt>
      <trkpt lat="49.03264" lon="1.93407">
        <ele>107.8</ele>
        <time>2024-04-13T13:28:39Z</time>
      </trkpt>
      <trkpt lat="49.03269" lon="1.93412">
        <ele>108.3</ele>
        <time>2024-04-13T13:28:44Z</time>
      </trkpt>
      <trkpt lat="49.03274" lon="1.93415">
        <ele>108.8</ele>
        <time>2024-04-13T13:28:49Z</time>
      </trkpt>
      <trkpt lat="49.03279" lon="1.93419">
        <ele>109.1</ele>
        <time>2024-04-13T13:28:55Z</time>
      </trkpt>
      <trkpt lat="49.03287" lon="1.93422">
        <ele>109.2</ele>
        <time>2024-04-13T13:29:01Z</time>
      </trkpt>
      <trkpt lat="49.03293" lon="1.93419">
        <ele>109.4</ele>
        <time>2024-04-13T13:29:06Z</time>
      </trkpt>
      <trkpt lat="49.03299" lon="1.93417">
        <ele>109.7</ele>
        <time>2024-04-13T13:29:12Z</time>
      </trkpt>
      <trkpt lat="49.03305" lon="1.93412">
        <ele>110</ele>
        <time>2024-04-13T13:29:18Z</time>
      </trkpt>
      <trkpt lat="49.03312" lon="1.93406">
        <ele>110.4</ele>
        <time>2024-04-13T13:29:24Z</time>
      </trkpt>
      <trkpt lat="49.03318" lon="1.93401">
        <ele>110.7</ele>
        <time>2024-04-13T13:29:30Z</time>
      </trkpt>
      <trkpt lat="49.03323" lon="1.93394">
        <ele>111.2</ele>
        <time>2024-04-13T13:29:36Z</time>
      </trkpt>
      <trkpt lat="49.03328" lon="1.9339">
        <ele>111.6</ele>
        <time>2024-04-13T13:29:41Z</time>
      </trkpt>
      <trkpt lat="49.03332" lon="1.93383">
        <ele>112</ele>
        <time>2024-04-13T13:29:47Z</time>
      </trkpt>
      <trkpt lat="49.03337" lon="1.93376">
        <ele>112.2</ele>
        <time>2024-04-13T13:29:53Z</time>
      </trkpt>
      <trkpt lat="49.03343" lon="1.93371">
        <ele>112.3</ele>
        <time>2024-04-13T13:29:59Z</time>
      </trkpt>
      <trkpt lat="49.03349" lon="1.93365">
        <ele>112.6</ele>
        <time>2024-04-13T13:30:05Z</time>
      </trkpt>
      <trkpt lat="49.03355" lon="1.93359">
        <ele>113</ele>
        <time>2024-04-13T13:30:10Z</time>
      </trkpt>
      <trkpt lat="49.03359" lon="1.93352">
        <ele>113.4</ele>
        <time>2024-04-13T13:30:16Z</time>
      </trkpt>
      <trkpt lat="49.03365" lon="1.93346">
        <ele>113.7</ele>
        <time>2024-04-13T13:30:22Z</time>
      </trkpt>
      <trkpt lat="49.03371" lon="1.93339">
        <ele>114</ele>
        <time>2024-04-13T13:30:28Z</time>
      </trkpt>
      <trkpt lat="49.03376" lon="1.93335">
        <ele>114.5</ele>
        <time>2024-04-13T13:30:34Z</time>
      </trkpt>
      <trkpt lat="49.03382" lon="1.93329">
        <ele>115.1</ele>
        <time>2024-04-13T13:30:39Z</time>
      </trkpt>
      <trkpt lat="49.03386" lon="1.93322">
        <ele>115.7</ele>
        <time>2024-04-13T13:30:45Z</time>
      </trkpt>
      <trkpt lat="49.03392" lon="1.93314">
        <ele>116.1</ele>
        <time>2024-04-13T13:30:51Z</time>
      </trkpt>
      <trkpt lat="49.03397" lon="1.9331">
        <ele>116.2</ele>
        <time>2024-04-13T13:30:56Z</time>
      </trkpt>
      <trkpt lat="49.03404" lon="1.93305">
        <ele>116.5</ele>
        <time>2024-04-13T13:31:02Z</time>
      </trkpt>
      <trkpt lat="49.0341" lon="1.933">
        <ele>116.7</ele>
        <time>2024-04-13T13:31:07Z</time>
      </trkpt>
      <trkpt lat="49.03416" lon="1.93296">
        <ele>117</ele>
        <time>2024-04-13T13:31:12Z</time>
      </trkpt>
      <trkpt lat="49.03421" lon="1.9329">
        <ele>117.3</ele>
        <time>2024-04-13T13:31:18Z</time>
      </trkpt>
      <trkpt lat="49.03429" lon="1.93287">
        <ele>117.6</ele>
        <time>2024-04-13T13:31:24Z</time>
      </trkpt>
      <trkpt lat="49.03436" lon="1.93283">
        <ele>117.9</ele>
        <time>2024-04-13T13:31:30Z</time>
      </trkpt>
      <trkpt lat="49.03441" lon="1.93279">
        <ele>118</ele>
        <time>2024-04-13T13:31:35Z</time>
      </trkpt>
      <trkpt lat="49.03449" lon="1.93274">
        <ele>118.1</ele>
        <time>2024-04-13T13:31:41Z</time>
      </trkpt>
      <trkpt lat="49.03457" lon="1.93271">
        <ele>118.4</ele>
        <time>2024-04-13T13:31:47Z</time>
      </trkpt>
      <trkpt lat="49.03462" lon="1.93267">
        <ele>118.7</ele>
        <time>2024-04-13T13:31:52Z</time>
      </trkpt>
      <trkpt lat="49.0347" lon="1.93261">
        <ele>119.1</ele>
        <time>2024-04-13T13:31:58Z</time>
      </trkpt>
      <trkpt lat="49.03478" lon="1.93258">
        <ele>119.6</ele>
        <time>2024-04-13T13:32:04Z</time>
      </trkpt>
      <trkpt lat="49.03483" lon="1.93256">
        <ele>119.8</ele>
        <time>2024-04-13T13:32:09Z</time>
      </trkpt>
      <trkpt lat="49.03489" lon="1.93254">
        <ele>119.8</ele>
        <time>2024-04-13T13:32:14Z</time>
      </trkpt>
      <trkpt lat="49.03497" lon="1.93249">
        <ele>119.7</ele>
        <time>2024-04-13T13:32:20Z</time>
      </trkpt>
      <trkpt lat="49.03502" lon="1.93244">
        <ele>119.7</ele>
        <time>2024-04-13T13:32:26Z</time>
      </trkpt>
      <trkpt lat="49.03509" lon="1.93239">
        <ele>119.7</ele>
        <time>2024-04-13T13:32:31Z</time>
      </trkpt>
      <trkpt lat="49.03514" lon="1.93234">
        <ele>119.7</ele>
        <time>2024-04-13T13:32:36Z</time>
      </trkpt>
      <trkpt lat="49.03522" lon="1.93227">
        <ele>120</ele>
        <time>2024-04-13T13:32:42Z</time>
      </trkpt>
      <trkpt lat="49.03527" lon="1.93221">
        <ele>120.3</ele>
        <time>2024-04-13T13:32:48Z</time>
      </trkpt>
      <trkpt lat="49.03531" lon="1.93217">
        <ele>120.5</ele>
        <time>2024-04-13T13:32:53Z</time>
      </trkpt>
      <trkpt lat="49.0354" lon="1.93213">
        <ele>120.4</ele>
        <time>2024-04-13T13:32:59Z</time>
      </trkpt>
      <trkpt lat="49.03546" lon="1.93212">
        <ele>120.4</ele>
        <time>2024-04-13T13:33:04Z</time>
      </trkpt>
      <trkpt lat="49.03546" lon="1.93213">
        <ele>120.4</ele>
        <time>2024-04-13T13:33:10Z</time>
      </trkpt>
      <trkpt lat="49.03546" lon="1.93212">
        <ele>120.5</ele>
        <time>2024-04-13T13:33:16Z</time>
      </trkpt>
      <trkpt lat="49.03546" lon="1.93212">
        <ele>120.6</ele>
        <time>2024-04-13T13:33:21Z</time>
      </trkpt>
      <trkpt lat="49.03546" lon="1.93212">
        <ele>120.7</ele>
        <time>2024-04-13T13:33:26Z</time>
      </trkpt>
      <trkpt lat="49.03545" lon="1.9321">
        <ele>121</ele>
        <time>2024-04-13T13:33:32Z</time>
      </trkpt>
      <trkpt lat="49.03543" lon="1.93204">
        <ele>121.5</ele>
        <time>2024-04-13T13:33:37Z</time>
      </trkpt>
      <trkpt lat="49.03548" lon="1.93196">
        <ele>122.3</ele>
        <time>2024-04-13T13:33:43Z</time>
      </trkpt>
      <trkpt lat="49.03551" lon="1.93186">
        <ele>122.6</ele>
        <time>2024-04-13T13:33:49Z</time>
      </trkpt>
      <trkpt lat="49.03555" lon="1.93179">
        <ele>122.6</ele>
        <time>2024-04-13T13:33:54Z</time>
      </trkpt>
      <trkpt lat="49.0356" lon="1.93175">
        <ele>122.6</ele>
        <time>2024-04-13T13:34:00Z</time>
      </trkpt>
      <trkpt lat="49.03564" lon="1.93167">
        <ele>122.5</ele>
        <time>2024-04-13T13:34:05Z</time>
      </trkpt>
      <trkpt lat="49.03567" lon="1.93159">
        <ele>122.5</ele>
        <time>2024-04-13T13:34:10Z</time>
      </trkpt>
      <trkpt lat="49.03569" lon="1.9315">
        <ele>122.2</ele>
        <time>2024-04-13T13:34:16Z</time>
      </trkpt>
      <trkpt lat="49.03574" lon="1.9314">
        <ele>122</ele>
        <time>2024-04-13T13:34:22Z</time>
      </trkpt>
      <trkpt lat="49.03577" lon="1.93135">
        <ele>121.7</ele>
        <time>2024-04-13T13:34:27Z</time>
      </trkpt>
      <trkpt lat="49.0358" lon="1.93131">
        <ele>121.5</ele>
        <time>2024-04-13T13:34:32Z</time>
      </trkpt>
      <trkpt lat="49.03583" lon="1.9312">
        <ele>121.3</ele>
        <time>2024-04-13T13:34:38Z</time>
      </trkpt>
      <trkpt lat="49.03587" lon="1.93111">
        <ele>121.5</ele>
        <time>2024-04-13T13:34:44Z</time>
      </trkpt>
      <trkpt lat="49.03588" lon="1.93099">
        <ele>121.6</ele>
        <time>2024-04-13T13:34:50Z</time>
      </trkpt>
      <trkpt lat="49.0359" lon="1.9309">
        <ele>121.6</ele>
        <time>2024-04-13T13:34:55Z</time>
      </trkpt>
      <trkpt lat="49.03593" lon="1.93081">
        <ele>122</ele>
        <time>2024-04-13T13:35:01Z</time>
      </trkpt>
      <trkpt lat="49.03595" lon="1.93073">
        <ele>122.3</ele>
        <time>2024-04-13T13:35:06Z</time>
      </trkpt>
      <trkpt lat="49.03596" lon="1.93066">
        <ele>122.7</ele>
        <time>2024-04-13T13:35:11Z</time>
      </trkpt>
      <trkpt lat="49.03599" lon="1.93057">
        <ele>123.3</ele>
        <time>2024-04-13T13:35:17Z</time>
      </trkpt>
      <trkpt lat="49.03601" lon="1.93048">
        <ele>123.9</ele>
        <time>2024-04-13T13:35:23Z</time>
      </trkpt>
      <trkpt lat="49.03603" lon="1.93038">
        <ele>124.2</ele>
        <time>2024-04-13T13:35:28Z</time>
      </trkpt>
      <trkpt lat="49.03607" lon="1.93031">
        <ele>124.5</ele>
        <time>2024-04-13T13:35:33Z</time>
      </trkpt>
      <trkpt lat="49.0361" lon="1.93024">
        <ele>125.1</ele>
        <time>2024-04-13T13:35:39Z</time>
      </trkpt>
      <trkpt lat="49.03615" lon="1.93019">
        <ele>125.8</ele>
        <time>2024-04-13T13:35:44Z</time>
      </trkpt>
      <trkpt lat="49.03619" lon="1.93013">
        <ele>126.3</ele>
        <time>2024-04-13T13:35:49Z</time>
      </trkpt>
      <trkpt lat="49.03624" lon="1.93007">
        <ele>126.8</ele>
        <time>2024-04-13T13:35:55Z</time>
      </trkpt>
      <trkpt lat="49.03629" lon="1.93">
        <ele>127.3</ele>
        <time>2024-04-13T13:36:01Z</time>
      </trkpt>
      <trkpt lat="49.03634" lon="1.92997">
        <ele>127.7</ele>
        <time>2024-04-13T13:36:06Z</time>
      </trkpt>
      <trkpt lat="49.03638" lon="1.9299">
        <ele>128.5</ele>
        <time>2024-04-13T13:36:12Z</time>
      </trkpt>
      <trkpt lat="49.03642" lon="1.92985">
        <ele>129.4</ele>
        <time>2024-04-13T13:36:18Z</time>
      </trkpt>
      <trkpt lat="49.03649" lon="1.92981">
        <ele>129.9</ele>
        <time>2024-04-13T13:36:24Z</time>
      </trkpt>
      <trkpt lat="49.03656" lon="1.92974">
        <ele>130.2</ele>
        <time>2024-04-13T13:36:30Z</time>
      </trkpt>
      <trkpt lat="49.0366" lon="1.92966">
        <ele>130.6</ele>
        <time>2024-04-13T13:36:36Z</time>
      </trkpt>
      <trkpt lat="49.03664" lon="1.92961">
        <ele>131</ele>
        <time>2024-04-13T13:36:42Z</time>
      </trkpt>
      <trkpt lat="49.03669" lon="1.92958">
        <ele>131.3</ele>
        <time>2024-04-13T13:36:47Z</time>
      </trkpt>
      <trkpt lat="49.03674" lon="1.9295">
        <ele>131.5</ele>
        <time>2024-04-13T13:36:53Z</time>
      </trkpt>
      <trkpt lat="49.03678" lon="1.92945">
        <ele>132</ele>
        <time>2024-04-13T13:36:58Z</time>
      </trkpt>
      <trkpt lat="49.03682" lon="1.92939">
        <ele>132.4</ele>
        <time>2024-04-13T13:37:04Z</time>
      </trkpt>
      <trkpt lat="49.03689" lon="1.92932">
        <ele>132.8</ele>
        <time>2024-04-13T13:37:10Z</time>
      </trkpt>
      <trkpt lat="49.03694" lon="1.92926">
        <ele>133.4</ele>
        <time>2024-04-13T13:37:16Z</time>
      </trkpt>
      <trkpt lat="49.03699" lon="1.9292">
        <ele>134.3</ele>
        <time>2024-04-13T13:37:22Z</time>
      </trkpt>
      <trkpt lat="49.03703" lon="1.92913">
        <ele>135</ele>
        <time>2024-04-13T13:37:27Z</time>
      </trkpt>
      <trkpt lat="49.03709" lon="1.92908">
        <ele>135.9</ele>
        <time>2024-04-13T13:37:33Z</time>
      </trkpt>
      <trkpt lat="49.03715" lon="1.929">
        <ele>136.7</ele>
        <time>2024-04-13T13:37:39Z</time>
      </trkpt>
      <trkpt lat="49.0372" lon="1.92895">
        <ele>137.3</ele>
        <time>2024-04-13T13:37:44Z</time>
      </trkpt>
      <trkpt lat="49.03726" lon="1.92889">
        <ele>137.9</ele>
        <time>2024-04-13T13:37:50Z</time>
      </trkpt>
      <trkpt lat="49.0373" lon="1.92883">
        <ele>138.3</ele>
        <time>2024-04-13T13:37:55Z</time>
      </trkpt>
      <trkpt lat="49.03735" lon="1.92875">
        <ele>138.8</ele>
        <time>2024-04-13T13:38:01Z</time>
      </trkpt>
      <trkpt lat="49.03738" lon="1.92867">
        <ele>139.2</ele>
        <time>2024-04-13T13:38:06Z</time>
      </trkpt>
      <trkpt lat="49.03743" lon="1.92859">
        <ele>139.7</ele>
        <time>2024-04-13T13:38:12Z</time>
      </trkpt>
      <trkpt lat="49.03747" lon="1.92854">
        <ele>140.1</ele>
        <time>2024-04-13T13:38:17Z</time>
      </trkpt>
      <trkpt lat="49.03753" lon="1.92847">
        <ele>140.3</ele>
        <time>2024-04-13T13:38:23Z</time>
      </trkpt>
      <trkpt lat="49.03757" lon="1.92841">
        <ele>140.7</ele>
        <time>2024-04-13T13:38:28Z</time>
      </trkpt>
      <trkpt lat="49.03762" lon="1.92832">
        <ele>141.2</ele>
        <time>2024-04-13T13:38:34Z</time>
      </trkpt>
      <trkpt lat="49.03767" lon="1.92824">
        <ele>141.7</ele>
        <time>2024-04-13T13:38:40Z</time>
      </trkpt>
      <trkpt lat="49.03771" lon="1.92818">
        <ele>141.9</ele>
        <time>2024-04-13T13:38:45Z</time>
      </trkpt>
      <trkpt lat="49.03775" lon="1.92806">
        <ele>142.1</ele>
        <time>2024-04-13T13:38:51Z</time>
      </trkpt>
      <trkpt lat="49.03781" lon="1.92797">
        <ele>142.4</ele>
        <time>2024-04-13T13:38:57Z</time>
      </trkpt>
      <trkpt lat="49.03784" lon="1.9279">
        <ele>142.6</ele>
        <time>2024-04-13T13:39:03Z</time>
      </trkpt>
      <trkpt lat="49.03787" lon="1.92782">
        <ele>142.8</ele>
        <time>2024-04-13T13:39:08Z</time>
      </trkpt>
      <trkpt lat="49.03791" lon="1.92773">
        <ele>143</ele>
        <time>2024-04-13T13:39:14Z</time>
      </trkpt>
      <trkpt lat="49.03796" lon="1.92763">
        <ele>143.2</ele>
        <time>2024-04-13T13:39:20Z</time>
      </trkpt>
      <trkpt lat="49.03799" lon="1.92756">
        <ele>143.3</ele>
        <time>2024-04-13T13:39:25Z</time>
      </trkpt>
      <trkpt lat="49.03802" lon="1.92748">
        <ele>143.6</ele>
        <time>2024-04-13T13:39:31Z</time>
      </trkpt>
      <trkpt lat="49.03809" lon="1.92743">
        <ele>144</ele>
        <time>2024-04-13T13:39:37Z</time>
      </trkpt>
      <trkpt lat="49.03815" lon="1.92745">
        <ele>144.3</ele>
        <time>2024-04-13T13:39:43Z</time>
      </trkpt>
      <trkpt lat="49.03815" lon="1.92744">
        <ele>144.4</ele>
        <time>2024-04-13T13:39:48Z</time>
      </trkpt>
      <trkpt lat="49.03814" lon="1.92739">
        <ele>144.6</ele>
        <time>2024-04-13T13:39:54Z</time>
      </trkpt>
      <trkpt lat="49.03814" lon="1.92728">
        <ele>144.8</ele>
        <time>2024-04-13T13:39:59Z</time>
      </trkpt>
      <trkpt lat="49.03814" lon="1.92714">
        <ele>145.1</ele>
        <time>2024-04-13T13:40:05Z</time>
      </trkpt>
      <trkpt lat="49.03814" lon="1.92703">
        <ele>145.7</ele>
        <time>2024-04-13T13:40:11Z</time>
      </trkpt>
      <trkpt lat="49.03815" lon="1.92692">
        <ele>146.2</ele>
        <time>2024-04-13T13:40:17Z</time>
      </trkpt>
      <trkpt lat="49.03816" lon="1.92679">
        <ele>146.5</ele>
        <time>2024-04-13T13:40:23Z</time>
      </trkpt>
      <trkpt lat="49.03817" lon="1.9267">
        <ele>146.6</ele>
        <time>2024-04-13T13:40:28Z</time>
      </trkpt>
      <trkpt lat="49.03819" lon="1.92656">
        <ele>146.9</ele>
        <time>2024-04-13T13:40:34Z</time>
      </trkpt>
      <trkpt lat="49.03821" lon="1.92644">
        <ele>147.2</ele>
        <time>2024-04-13T13:40:40Z</time>
      </trkpt>
      <trkpt lat="49.03823" lon="1.92635">
        <ele>147.8</ele>
        <time>2024-04-13T13:40:46Z</time>
      </trkpt>
      <trkpt lat="49.03825" lon="1.92626">
        <ele>148.1</ele>
        <time>2024-04-13T13:40:51Z</time>
      </trkpt>
      <trkpt lat="49.03826" lon="1.92614">
        <ele>148.4</ele>
        <time>2024-04-13T13:40:57Z</time>
      </trkpt>
      <trkpt lat="49.03826" lon="1.92604">
        <ele>148.7</ele>
        <time>2024-04-13T13:41:02Z</time>
      </trkpt>
      <trkpt lat="49.03828" lon="1.92592">
        <ele>149.1</ele>
        <time>2024-04-13T13:41:08Z</time>
      </trkpt>
      <trkpt lat="49.03827" lon="1.92581">
        <ele>149.3</ele>
        <time>2024-04-13T13:41:14Z</time>
      </trkpt>
      <trkpt lat="49.0383" lon="1.92572">
        <ele>149.3</ele>
        <time>2024-04-13T13:41:20Z</time>
      </trkpt>
      <trkpt lat="49.0383" lon="1.92561">
        <ele>149.3</ele>
        <time>2024-04-13T13:41:26Z</time>
      </trkpt>
      <trkpt lat="49.03831" lon="1.92551">
        <ele>149.3</ele>
        <time>2024-04-13T13:41:32Z</time>
      </trkpt>
      <trkpt lat="49.03834" lon="1.92539">
        <ele>149.3</ele>
        <time>2024-04-13T13:41:38Z</time>
      </trkpt>
      <trkpt lat="49.03835" lon="1.9253">
        <ele>149.5</ele>
        <time>2024-04-13T13:41:44Z</time>
      </trkpt>
      <trkpt lat="49.03836" lon="1.92518">
        <ele>149.8</ele>
        <time>2024-04-13T13:41:50Z</time>
      </trkpt>
      <trkpt lat="49.03838" lon="1.92508">
        <ele>150.2</ele>
        <time>2024-04-13T13:41:56Z</time>
      </trkpt>
      <trkpt lat="49.0384" lon="1.92497">
        <ele>150.7</ele>
        <time>2024-04-13T13:42:02Z</time>
      </trkpt>
      <trkpt lat="49.03839" lon="1.92486">
        <ele>151.4</ele>
        <time>2024-04-13T13:42:08Z</time>
      </trkpt>
      <trkpt lat="49.0384" lon="1.92475">
        <ele>151.9</ele>
        <time>2024-04-13T13:42:14Z</time>
      </trkpt>
      <trkpt lat="49.0384" lon="1.92465">
        <ele>152.2</ele>
        <time>2024-04-13T13:42:20Z</time>
      </trkpt>
      <trkpt lat="49.03841" lon="1.92455">
        <ele>152.4</ele>
        <time>2024-04-13T13:42:26Z</time>
      </trkpt>
      <trkpt lat="49.03839" lon="1.92443">
        <ele>152.5</ele>
        <time>2024-04-13T13:42:31Z</time>
      </trkpt>
      <trkpt lat="49.0384" lon="1.92433">
        <ele>152.5</ele>
        <time>2024-04-13T13:42:36Z</time>
      </trkpt>
      <trkpt lat="49.03842" lon="1.92423">
        <ele>152.6</ele>
        <time>2024-04-13T13:42:42Z</time>
      </trkpt>
      <trkpt lat="49.03844" lon="1.92412">
        <ele>152.7</ele>
        <time>2024-04-13T13:42:48Z</time>
      </trkpt>
      <trkpt lat="49.03846" lon="1.92399">
        <ele>152.8</ele>
        <time>2024-04-13T13:42:54Z</time>
      </trkpt>
      <trkpt lat="49.03846" lon="1.92387">
        <ele>152.9</ele>
        <time>2024-04-13T13:43:00Z</time>
      </trkpt>
      <trkpt lat="49.03847" lon="1.92377">
        <ele>153</ele>
        <time>2024-04-13T13:43:06Z</time>
      </trkpt>
      <trkpt lat="49.03848" lon="1.92363">
        <ele>153.1</ele>
        <time>2024-04-13T13:43:12Z</time>
      </trkpt>
      <trkpt lat="49.0385" lon="1.92355">
        <ele>153.2</ele>
        <time>2024-04-13T13:43:18Z</time>
      </trkpt>
      <trkpt lat="49.03852" lon="1.92341">
        <ele>153.4</ele>
        <time>2024-04-13T13:43:24Z</time>
      </trkpt>
      <trkpt lat="49.03854" lon="1.92333">
        <ele>153.4</ele>
        <time>2024-04-13T13:43:29Z</time>
      </trkpt>
      <trkpt lat="49.03854" lon="1.92318">
        <ele>153.7</ele>
        <time>2024-04-13T13:43:35Z</time>
      </trkpt>
      <trkpt lat="49.03856" lon="1.92305">
        <ele>154.1</ele>
        <time>2024-04-13T13:43:41Z</time>
      </trkpt>
      <trkpt lat="49.03857" lon="1.92292">
        <ele>154.3</ele>
        <time>2024-04-13T13:43:47Z</time>
      </trkpt>
      <trkpt lat="49.0386" lon="1.9228">
        <ele>154.6</ele>
        <time>2024-04-13T13:43:52Z</time>
      </trkpt>
      <trkpt lat="49.03861" lon="1.92272">
        <ele>155</ele>
        <time>2024-04-13T13:43:57Z</time>
      </trkpt>
      <trkpt lat="49.0386" lon="1.92259">
        <ele>155.3</ele>
        <time>2024-04-13T13:44:03Z</time>
      </trkpt>
      <trkpt lat="49.03862" lon="1.9225">
        <ele>155.6</ele>
        <time>2024-04-13T13:44:08Z</time>
      </trkpt>
      <trkpt lat="49.03864" lon="1.9224">
        <ele>156.2</ele>
        <time>2024-04-13T13:44:14Z</time>
      </trkpt>
      <trkpt lat="49.03866" lon="1.9223">
        <ele>156.8</ele>
        <time>2024-04-13T13:44:19Z</time>
      </trkpt>
      <trkpt lat="49.03869" lon="1.9222">
        <ele>157.4</ele>
        <time>2024-04-13T13:44:25Z</time>
      </trkpt>
      <trkpt lat="49.0387" lon="1.92205">
        <ele>157.9</ele>
        <time>2024-04-13T13:44:31Z</time>
      </trkpt>
      <trkpt lat="49.03871" lon="1.92196">
        <ele>158.3</ele>
        <time>2024-04-13T13:44:37Z</time>
      </trkpt>
      <trkpt lat="49.03871" lon="1.92186">
        <ele>158.7</ele>
        <time>2024-04-13T13:44:42Z</time>
      </trkpt>
      <trkpt lat="49.03872" lon="1.92176">
        <ele>158.9</ele>
        <time>2024-04-13T13:44:47Z</time>
      </trkpt>
      <trkpt lat="49.03874" lon="1.92164">
        <ele>159.2</ele>
        <time>2024-04-13T13:44:53Z</time>
      </trkpt>
      <trkpt lat="49.03874" lon="1.9215">
        <ele>159.6</ele>
        <time>2024-04-13T13:44:59Z</time>
      </trkpt>
      <trkpt lat="49.03875" lon="1.92138">
        <ele>159.6</ele>
        <time>2024-04-13T13:45:05Z</time>
      </trkpt>
      <trkpt lat="49.03878" lon="1.92127">
        <ele>159.4</ele>
        <time>2024-04-13T13:45:11Z</time>
      </trkpt>
      <trkpt lat="49.03878" lon="1.92117">
        <ele>159.3</ele>
        <time>2024-04-13T13:45:16Z</time>
      </trkpt>
      <trkpt lat="49.03878" lon="1.92104">
        <ele>159.3</ele>
        <time>2024-04-13T13:45:21Z</time>
      </trkpt>
      <trkpt lat="49.0388" lon="1.92092">
        <ele>159.2</ele>
        <time>2024-04-13T13:45:27Z</time>
      </trkpt>
      <trkpt lat="49.03882" lon="1.92077">
        <ele>159.1</ele>
        <time>2024-04-13T13:45:33Z</time>
      </trkpt>
      <trkpt lat="49.03883" lon="1.92068">
        <ele>159.2</ele>
        <time>2024-04-13T13:45:38Z</time>
      </trkpt>
      <trkpt lat="49.03884" lon="1.92058">
        <ele>159.5</ele>
        <time>2024-04-13T13:45:43Z</time>
      </trkpt>
      <trkpt lat="49.03886" lon="1.92046">
        <ele>159.9</ele>
        <time>2024-04-13T13:45:49Z</time>
      </trkpt>
      <trkpt lat="49.03887" lon="1.92034">
        <ele>160.2</ele>
        <time>2024-04-13T13:45:55Z</time>
      </trkpt>
      <trkpt lat="49.03888" lon="1.9202">
        <ele>160.4</ele>
        <time>2024-04-13T13:46:01Z</time>
      </trkpt>
      <trkpt lat="49.03888" lon="1.92007">
        <ele>160.5</ele>
        <time>2024-04-13T13:46:07Z</time>
      </trkpt>
      <trkpt lat="49.0389" lon="1.91997">
        <ele>160.5</ele>
        <time>2024-04-13T13:46:12Z</time>
      </trkpt>
      <trkpt lat="49.03891" lon="1.91985">
        <ele>160.5</ele>
        <time>2024-04-13T13:46:18Z</time>
      </trkpt>
      <trkpt lat="49.03894" lon="1.91976">
        <ele>160.7</ele>
        <time>2024-04-13T13:46:24Z</time>
      </trkpt>
      <trkpt lat="49.03895" lon="1.91962">
        <ele>160.8</ele>
        <time>2024-04-13T13:46:30Z</time>
      </trkpt>
      <trkpt lat="49.03897" lon="1.91952">
        <ele>160.9</ele>
        <time>2024-04-13T13:46:35Z</time>
      </trkpt>
      <trkpt lat="49.03898" lon="1.9194">
        <ele>161.1</ele>
        <time>2024-04-13T13:46:41Z</time>
      </trkpt>
      <trkpt lat="49.039" lon="1.91931">
        <ele>161.4</ele>
        <time>2024-04-13T13:46:47Z</time>
      </trkpt>
      <trkpt lat="49.03902" lon="1.9192">
        <ele>161.7</ele>
        <time>2024-04-13T13:46:53Z</time>
      </trkpt>
      <trkpt lat="49.03907" lon="1.91914">
        <ele>162.2</ele>
        <time>2024-04-13T13:46:59Z</time>
      </trkpt>
      <trkpt lat="49.0391" lon="1.91914">
        <ele>162.6</ele>
        <time>2024-04-13T13:47:05Z</time>
      </trkpt>
      <trkpt lat="49.03909" lon="1.91914">
        <ele>162.8</ele>
        <time>2024-04-13T13:47:11Z</time>
      </trkpt>
      <trkpt lat="49.03909" lon="1.91914">
        <ele>162.9</ele>
        <time>2024-04-13T13:47:17Z</time>
      </trkpt>
      <trkpt lat="49.03909" lon="1.91914">
        <ele>162.9</ele>
        <time>2024-04-13T13:47:23Z</time>
      </trkpt>
      <trkpt lat="49.03909" lon="1.91914">
        <ele>162.9</ele>
        <time>2024-04-13T13:47:29Z</time>
      </trkpt>
      <trkpt lat="49.03909" lon="1.91914">
        <ele>163</ele>
        <time>2024-04-13T13:47:34Z</time>
      </trkpt>
      <trkpt lat="49.03909" lon="1.91915">
        <ele>163</ele>
        <time>2024-04-13T13:47:40Z</time>
      </trkpt>
      <trkpt lat="49.03909" lon="1.91915">
        <ele>163</ele>
        <time>2024-04-13T13:47:46Z</time>
      </trkpt>
      <trkpt lat="49.03911" lon="1.91916">
        <ele>163.1</ele>
        <time>2024-04-13T13:47:51Z</time>
      </trkpt>
      <trkpt lat="49.03912" lon="1.91918">
        <ele>163.1</ele>
        <time>2024-04-13T13:47:56Z</time>
      </trkpt>
      <trkpt lat="49.03918" lon="1.9192">
        <ele>163.1</ele>
        <time>2024-04-13T13:48:02Z</time>
      </trkpt>
      <trkpt lat="49.03926" lon="1.91926">
        <ele>163.2</ele>
        <time>2024-04-13T13:48:08Z</time>
      </trkpt>
      <trkpt lat="49.03932" lon="1.91931">
        <ele>163.2</ele>
        <time>2024-04-13T13:48:14Z</time>
      </trkpt>
      <trkpt lat="49.03938" lon="1.91938">
        <ele>163.1</ele>
        <time>2024-04-13T13:48:20Z</time>
      </trkpt>
      <trkpt lat="49.03939" lon="1.9194">
        <ele>163.2</ele>
        <time>2024-04-13T13:48:25Z</time>
      </trkpt>
      <trkpt lat="49.03938" lon="1.91939">
        <ele>163.1</ele>
        <time>2024-04-13T13:48:30Z</time>
      </trkpt>
      <trkpt lat="49.03939" lon="1.91941">
        <ele>163.1</ele>
        <time>2024-04-13T13:48:36Z</time>
      </trkpt>
      <trkpt lat="49.03944" lon="1.91945">
        <ele>163.1</ele>
        <time>2024-04-13T13:48:42Z</time>
      </trkpt>
      <trkpt lat="49.0395" lon="1.91948">
        <ele>162.9</ele>
        <time>2024-04-13T13:48:48Z</time>
      </trkpt>
      <trkpt lat="49.03955" lon="1.91952">
        <ele>162.9</ele>
        <time>2024-04-13T13:48:54Z</time>
      </trkpt>
      <trkpt lat="49.03961" lon="1.91959">
        <ele>162.8</ele>
        <time>2024-04-13T13:49:00Z</time>
      </trkpt>
      <trkpt lat="49.03968" lon="1.91965">
        <ele>162.8</ele>
        <time>2024-04-13T13:49:05Z</time>
      </trkpt>
      <trkpt lat="49.03974" lon="1.91968">
        <ele>162.8</ele>
        <time>2024-04-13T13:49:11Z</time>
      </trkpt>
      <trkpt lat="49.03979" lon="1.91972">
        <ele>162.8</ele>
        <time>2024-04-13T13:49:17Z</time>
      </trkpt>
      <trkpt lat="49.03987" lon="1.91977">
        <ele>163</ele>
        <time>2024-04-13T13:49:23Z</time>
      </trkpt>
      <trkpt lat="49.03993" lon="1.9198">
        <ele>163.2</ele>
        <time>2024-04-13T13:49:29Z</time>
      </trkpt>
      <trkpt lat="49.03999" lon="1.91986">
        <ele>163.2</ele>
        <time>2024-04-13T13:49:34Z</time>
      </trkpt>
      <trkpt lat="49.04006" lon="1.91992">
        <ele>163</ele>
        <time>2024-04-13T13:49:39Z</time>
      </trkpt>
      <trkpt lat="49.04013" lon="1.91997">
        <ele>162.7</ele>
        <time>2024-04-13T13:49:45Z</time>
      </trkpt>
      <trkpt lat="49.04019" lon="1.92">
        <ele>162.5</ele>
        <time>2024-04-13T13:49:50Z</time>
      </trkpt>
      <trkpt lat="49.04026" lon="1.92006">
        <ele>162.2</ele>
        <time>2024-04-13T13:49:56Z</time>
      </trkpt>
      <trkpt lat="49.04031" lon="1.92008">
        <ele>162</ele>
        <time>2024-04-13T13:50:01Z</time>
      </trkpt>
      <trkpt lat="49.04038" lon="1.9201">
        <ele>161.7</ele>
        <time>2024-04-13T13:50:07Z</time>
      </trkpt>
      <trkpt lat="49.04047" lon="1.92015">
        <ele>161.6</ele>
        <time>2024-04-13T13:50:13Z</time>
      </trkpt>
      <trkpt lat="49.04054" lon="1.9202">
        <ele>161.4</ele>
        <time>2024-04-13T13:50:19Z</time>
      </trkpt>
      <trkpt lat="49.04062" lon="1.92024">
        <ele>161.3</ele>
        <time>2024-04-13T13:50:24Z</time>
      </trkpt>
      <trkpt lat="49.0407" lon="1.92028">
        <ele>161.3</ele>
        <time>2024-04-13T13:50:30Z</time>
      </trkpt>
      <trkpt lat="49.04076" lon="1.9203">
        <ele>161.3</ele>
        <time>2024-04-13T13:50:35Z</time>
      </trkpt>
      <trkpt lat="49.04082" lon="1.92035">
        <ele>161.4</ele>
        <time>2024-04-13T13:50:40Z</time>
      </trkpt>
      <trkpt lat="49.04087" lon="1.92038">
        <ele>161.3</ele>
        <time>2024-04-13T13:50:45Z</time>
      </trkpt>
      <trkpt lat="49.04093" lon="1.92041">
        <ele>161.2</ele>
        <time>2024-04-13T13:50:50Z</time>
      </trkpt>
      <trkpt lat="49.04099" lon="1.92045">
        <ele>161.2</ele>
        <time>2024-04-13T13:50:56Z</time>
      </trkpt>
      <trkpt lat="49.04105" lon="1.92049">
        <ele>161.1</ele>
        <time>2024-04-13T13:51:01Z</time>
      </trkpt>
      <trkpt lat="49.04112" lon="1.92054">
        <ele>161</ele>
        <time>2024-04-13T13:51:07Z</time>
      </trkpt>
      <trkpt lat="49.04119" lon="1.92059">
        <ele>160.7</ele>
        <time>2024-04-13T13:51:13Z</time>
      </trkpt>
      <trkpt lat="49.04128" lon="1.92064">
        <ele>160.5</ele>
        <time>2024-04-13T13:51:19Z</time>
      </trkpt>
      <trkpt lat="49.04136" lon="1.92068">
        <ele>160.5</ele>
        <time>2024-04-13T13:51:25Z</time>
      </trkpt>
      <trkpt lat="49.04141" lon="1.9207">
        <ele>160.6</ele>
        <time>2024-04-13T13:51:30Z</time>
      </trkpt>
      <trkpt lat="49.04149" lon="1.92076">
        <ele>160.7</ele>
        <time>2024-04-13T13:51:36Z</time>
      </trkpt>
      <trkpt lat="49.04156" lon="1.92082">
        <ele>160.6</ele>
        <time>2024-04-13T13:51:42Z</time>
      </trkpt>
      <trkpt lat="49.04163" lon="1.92086">
        <ele>160.5</ele>
        <time>2024-04-13T13:51:47Z</time>
      </trkpt>
      <trkpt lat="49.04171" lon="1.92092">
        <ele>160.6</ele>
        <time>2024-04-13T13:51:53Z</time>
      </trkpt>
      <trkpt lat="49.04177" lon="1.92094">
        <ele>160.9</ele>
        <time>2024-04-13T13:51:59Z</time>
      </trkpt>
      <trkpt lat="49.04185" lon="1.92102">
        <ele>160.8</ele>
        <time>2024-04-13T13:52:05Z</time>
      </trkpt>
      <trkpt lat="49.04189" lon="1.92105">
        <ele>160.6</ele>
        <time>2024-04-13T13:52:10Z</time>
      </trkpt>
      <trkpt lat="49.04197" lon="1.92111">
        <ele>160.5</ele>
        <time>2024-04-13T13:52:16Z</time>
      </trkpt>
      <trkpt lat="49.04206" lon="1.92116">
        <ele>160.2</ele>
        <time>2024-04-13T13:52:22Z</time>
      </trkpt>
      <trkpt lat="49.04214" lon="1.9212">
        <ele>160.1</ele>
        <time>2024-04-13T13:52:28Z</time>
      </trkpt>
      <trkpt lat="49.04221" lon="1.92126">
        <ele>160.1</ele>
        <time>2024-04-13T13:52:34Z</time>
      </trkpt>
      <trkpt lat="49.04228" lon="1.92131">
        <ele>160.4</ele>
        <time>2024-04-13T13:52:39Z</time>
      </trkpt>
      <trkpt lat="49.04232" lon="1.92137">
        <ele>160.6</ele>
        <time>2024-04-13T13:52:44Z</time>
      </trkpt>
      <trkpt lat="49.0424" lon="1.92143">
        <ele>160.8</ele>
        <time>2024-04-13T13:52:50Z</time>
      </trkpt>
      <trkpt lat="49.04244" lon="1.92148">
        <ele>160.9</ele>
        <time>2024-04-13T13:52:56Z</time>
      </trkpt>
      <trkpt lat="49.04253" lon="1.92156">
        <ele>160.9</ele>
        <time>2024-04-13T13:53:02Z</time>
      </trkpt>
      <trkpt lat="49.04259" lon="1.9216">
        <ele>160.9</ele>
        <time>2024-04-13T13:53:08Z</time>
      </trkpt>
      <trkpt lat="49.04268" lon="1.92165">
        <ele>161.1</ele>
        <time>2024-04-13T13:53:14Z</time>
      </trkpt>
      <trkpt lat="49.04274" lon="1.92167">
        <ele>161.4</ele>
        <time>2024-04-13T13:53:19Z</time>
      </trkpt>
      <trkpt lat="49.04283" lon="1.92172">
        <ele>161.5</ele>
        <time>2024-04-13T13:53:25Z</time>
      </trkpt>
      <trkpt lat="49.0429" lon="1.92176">
        <ele>161.8</ele>
        <time>2024-04-13T13:53:31Z</time>
      </trkpt>
      <trkpt lat="49.04299" lon="1.92179">
        <ele>162.2</ele>
        <time>2024-04-13T13:53:37Z</time>
      </trkpt>
      <trkpt lat="49.04306" lon="1.92182">
        <ele>162.4</ele>
        <time>2024-04-13T13:53:42Z</time>
      </trkpt>
      <trkpt lat="49.0431" lon="1.92184">
        <ele>162.8</ele>
        <time>2024-04-13T13:53:47Z</time>
      </trkpt>
      <trkpt lat="49.04318" lon="1.92188">
        <ele>163.3</ele>
        <time>2024-04-13T13:53:53Z</time>
      </trkpt>
      <trkpt lat="49.04326" lon="1.92193">
        <ele>163.1</ele>
        <time>2024-04-13T13:53:59Z</time>
      </trkpt>
      <trkpt lat="49.04334" lon="1.92195">
        <ele>163.2</ele>
        <time>2024-04-13T13:54:05Z</time>
      </trkpt>
      <trkpt lat="49.04342" lon="1.922">
        <ele>163.3</ele>
        <time>2024-04-13T13:54:10Z</time>
      </trkpt>
      <trkpt lat="49.04348" lon="1.92203">
        <ele>163.1</ele>
        <time>2024-04-13T13:54:15Z</time>
      </trkpt>
      <trkpt lat="49.04353" lon="1.92206">
        <ele>162.6</ele>
        <time>2024-04-13T13:54:20Z</time>
      </trkpt>
      <trkpt lat="49.04362" lon="1.9221">
        <ele>161.9</ele>
        <time>2024-04-13T13:54:26Z</time>
      </trkpt>
      <trkpt lat="49.04366" lon="1.92211">
        <ele>161.2</ele>
        <time>2024-04-13T13:54:31Z</time>
      </trkpt>
      <trkpt lat="49.0437" lon="1.92213">
        <ele>160.4</ele>
        <time>2024-04-13T13:54:37Z</time>
      </trkpt>
      <trkpt lat="49.0437" lon="1.92211">
        <ele>160.2</ele>
        <time>2024-04-13T13:54:42Z</time>
      </trkpt>
      <trkpt lat="49.0437" lon="1.92211">
        <ele>160.1</ele>
        <time>2024-04-13T13:54:48Z</time>
      </trkpt>
      <trkpt lat="49.0437" lon="1.92211">
        <ele>160</ele>
        <time>2024-04-13T13:54:54Z</time>
      </trkpt>
      <trkpt lat="49.0437" lon="1.92211">
        <ele>160</ele>
        <time>2024-04-13T13:55:00Z</time>
      </trkpt>
      <trkpt lat="49.04371" lon="1.92211">
        <ele>159.9</ele>
        <time>2024-04-13T13:55:06Z</time>
      </trkpt>
      <trkpt lat="49.04371" lon="1.92211">
        <ele>159.8</ele>
        <time>2024-04-13T13:55:11Z</time>
      </trkpt>
      <trkpt lat="49.04371" lon="1.92211">
        <ele>159.7</ele>
        <time>2024-04-13T13:55:17Z</time>
      </trkpt>
      <trkpt lat="49.04371" lon="1.92212">
        <ele>159.6</ele>
        <time>2024-04-13T13:55:23Z</time>
      </trkpt>
      <trkpt lat="49.04371" lon="1.92211">
        <ele>158.8</ele>
        <time>2024-04-13T13:55:28Z</time>
      </trkpt>
      <trkpt lat="49.04371" lon="1.92214">
        <ele>157.8</ele>
        <time>2024-04-13T13:55:34Z</time>
      </trkpt>
      <trkpt lat="49.0437" lon="1.92214">
        <ele>157</ele>
        <time>2024-04-13T13:55:39Z</time>
      </trkpt>
      <trkpt lat="49.0437" lon="1.92212">
        <ele>156.3</ele>
        <time>2024-04-13T13:55:45Z</time>
      </trkpt>
      <trkpt lat="49.04371" lon="1.92212">
        <ele>156.2</ele>
        <time>2024-04-13T13:55:51Z</time>
      </trkpt>
      <trkpt lat="49.04371" lon="1.92211">
        <ele>155.9</ele>
        <time>2024-04-13T13:55:56Z</time>
      </trkpt>
      <trkpt lat="49.04371" lon="1.92211">
        <ele>155.5</ele>
        <time>2024-04-13T13:56:02Z</time>
      </trkpt>
      <trkpt lat="49.04371" lon="1.92211">
        <ele>155.4</ele>
        <time>2024-04-13T13:56:08Z</time>
      </trkpt>
      <trkpt lat="49.04371" lon="1.92209">
        <ele>155.2</ele>
        <time>2024-04-13T13:56:14Z</time>
      </trkpt>
      <trkpt lat="49.04371" lon="1.92209">
        <ele>155.1</ele>
        <time>2024-04-13T13:56:20Z</time>
      </trkpt>
      <trkpt lat="49.04371" lon="1.92209">
        <ele>155</ele>
        <time>2024-04-13T13:56:26Z</time>
      </trkpt>
      <trkpt lat="49.04371" lon="1.92209">
        <ele>155</ele>
        <time>2024-04-13T13:56:31Z</time>
      </trkpt>
      <trkpt lat="49.04371" lon="1.92209">
        <ele>154.9</ele>
        <time>2024-04-13T13:56:37Z</time>
      </trkpt>
      <trkpt lat="49.04371" lon="1.92209">
        <ele>154.8</ele>
        <time>2024-04-13T13:56:42Z</time>
      </trkpt>
      <trkpt lat="49.04371" lon="1.92209">
        <ele>154.7</ele>
        <time>2024-04-13T13:56:48Z</time>
      </trkpt>
      <trkpt lat="49.04371" lon="1.92209">
        <ele>154.6</ele>
        <time>2024-04-13T13:56:54Z</time>
      </trkpt>
      <trkpt lat="49.04372" lon="1.92209">
        <ele>154.5</ele>
        <time>2024-04-13T13:57:00Z</time>
      </trkpt>
      <trkpt lat="49.04372" lon="1.92209">
        <ele>154.2</ele>
        <time>2024-04-13T13:57:05Z</time>
      </trkpt>
      <trkpt lat="49.04372" lon="1.92209">
        <ele>153.8</ele>
        <time>2024-04-13T13:57:11Z</time>
      </trkpt>
      <trkpt lat="49.04372" lon="1.9221">
        <ele>153.8</ele>
        <time>2024-04-13T13:57:17Z</time>
      </trkpt>
      <trkpt lat="49.04374" lon="1.92206">
        <ele>153.6</ele>
        <time>2024-04-13T13:57:23Z</time>
      </trkpt>
      <trkpt lat="49.04375" lon="1.92194">
        <ele>153.3</ele>
        <time>2024-04-13T13:57:28Z</time>
      </trkpt>
      <trkpt lat="49.04377" lon="1.92186">
        <ele>152.8</ele>
        <time>2024-04-13T13:57:33Z</time>
      </trkpt>
      <trkpt lat="49.04378" lon="1.92179">
        <ele>152.4</ele>
        <time>2024-04-13T13:57:38Z</time>
      </trkpt>
      <trkpt lat="49.04379" lon="1.92167">
        <ele>152.1</ele>
        <time>2024-04-13T13:57:44Z</time>
      </trkpt>
      <trkpt lat="49.04382" lon="1.92157">
        <ele>152.1</ele>
        <time>2024-04-13T13:57:49Z</time>
      </trkpt>
      <trkpt lat="49.04383" lon="1.9215">
        <ele>151.9</ele>
        <time>2024-04-13T13:57:54Z</time>
      </trkpt>
      <trkpt lat="49.04387" lon="1.92137">
        <ele>151.8</ele>
        <time>2024-04-13T13:58:00Z</time>
      </trkpt>
      <trkpt lat="49.04391" lon="1.92126">
        <ele>151.7</ele>
        <time>2024-04-13T13:58:06Z</time>
      </trkpt>
      <trkpt lat="49.04395" lon="1.92113">
        <ele>151.7</ele>
        <time>2024-04-13T13:58:12Z</time>
      </trkpt>
      <trkpt lat="49.04397" lon="1.92103">
        <ele>151.8</ele>
        <time>2024-04-13T13:58:17Z</time>
      </trkpt>
      <trkpt lat="49.04397" lon="1.92091">
        <ele>152.2</ele>
        <time>2024-04-13T13:58:23Z</time>
      </trkpt>
      <trkpt lat="49.044" lon="1.92081">
        <ele>152.4</ele>
        <time>2024-04-13T13:58:29Z</time>
      </trkpt>
      <trkpt lat="49.04401" lon="1.92068">
        <ele>152.4</ele>
        <time>2024-04-13T13:58:35Z</time>
      </trkpt>
      <trkpt lat="49.04402" lon="1.92056">
        <ele>152.4</ele>
        <time>2024-04-13T13:58:41Z</time>
      </trkpt>
      <trkpt lat="49.04405" lon="1.92044">
        <ele>152.3</ele>
        <time>2024-04-13T13:58:47Z</time>
      </trkpt>
      <trkpt lat="49.04405" lon="1.92031">
        <ele>152.2</ele>
        <time>2024-04-13T13:58:53Z</time>
      </trkpt>
      <trkpt lat="49.04408" lon="1.92022">
        <ele>151.8</ele>
        <time>2024-04-13T13:58:58Z</time>
      </trkpt>
      <trkpt lat="49.04411" lon="1.92015">
        <ele>151.5</ele>
        <time>2024-04-13T13:59:03Z</time>
      </trkpt>
      <trkpt lat="49.04416" lon="1.92004">
        <ele>151.4</ele>
        <time>2024-04-13T13:59:08Z</time>
      </trkpt>
      <trkpt lat="49.04421" lon="1.91991">
        <ele>151.6</ele>
        <time>2024-04-13T13:59:14Z</time>
      </trkpt>
      <trkpt lat="49.04424" lon="1.91982">
        <ele>151.8</ele>
        <time>2024-04-13T13:59:19Z</time>
      </trkpt>
      <trkpt lat="49.04427" lon="1.91971">
        <ele>152.1</ele>
        <time>2024-04-13T13:59:24Z</time>
      </trkpt>
      <trkpt lat="49.0443" lon="1.91958">
        <ele>152.4</ele>
        <time>2024-04-13T13:59:30Z</time>
      </trkpt>
      <trkpt lat="49.04434" lon="1.91946">
        <ele>152.6</ele>
        <time>2024-04-13T13:59:36Z</time>
      </trkpt>
      <trkpt lat="49.04437" lon="1.91936">
        <ele>152.7</ele>
        <time>2024-04-13T13:59:42Z</time>
      </trkpt>
      <trkpt lat="49.04443" lon="1.91924">
        <ele>152.8</ele>
        <time>2024-04-13T13:59:48Z</time>
      </trkpt>
      <trkpt lat="49.04447" lon="1.91911">
        <ele>153</ele>
        <time>2024-04-13T13:59:54Z</time>
      </trkpt>
      <trkpt lat="49.0445" lon="1.91898">
        <ele>153.4</ele>
        <time>2024-04-13T14:00:00Z</time>
      </trkpt>
      <trkpt lat="49.04453" lon="1.91888">
        <ele>153.6</ele>
        <time>2024-04-13T14:00:06Z</time>
      </trkpt>
      <trkpt lat="49.04457" lon="1.91878">
        <ele>153.7</ele>
        <time>2024-04-13T14:00:12Z</time>
      </trkpt>
      <trkpt lat="49.04461" lon="1.91864">
        <ele>153.8</ele>
        <time>2024-04-13T14:00:18Z</time>
      </trkpt>
      <trkpt lat="49.04464" lon="1.91853">
        <ele>153.8</ele>
        <time>2024-04-13T14:00:24Z</time>
      </trkpt>
      <trkpt lat="49.04468" lon="1.91842">
        <ele>153.6</ele>
        <time>2024-04-13T14:00:30Z</time>
      </trkpt>
      <trkpt lat="49.04472" lon="1.91831">
        <ele>153.4</ele>
        <time>2024-04-13T14:00:35Z</time>
      </trkpt>
      <trkpt lat="49.04475" lon="1.91818">
        <ele>153.3</ele>
        <time>2024-04-13T14:00:41Z</time>
      </trkpt>
      <trkpt lat="49.0448" lon="1.91805">
        <ele>153.4</ele>
        <time>2024-04-13T14:00:47Z</time>
      </trkpt>
      <trkpt lat="49.04482" lon="1.91791">
        <ele>153.6</ele>
        <time>2024-04-13T14:00:53Z</time>
      </trkpt>
      <trkpt lat="49.04487" lon="1.91779">
        <ele>153.7</ele>
        <time>2024-04-13T14:00:59Z</time>
      </trkpt>
      <trkpt lat="49.0449" lon="1.91769">
        <ele>153.8</ele>
        <time>2024-04-13T14:01:04Z</time>
      </trkpt>
      <trkpt lat="49.04493" lon="1.91758">
        <ele>154.1</ele>
        <time>2024-04-13T14:01:10Z</time>
      </trkpt>
      <trkpt lat="49.04496" lon="1.91741">
        <ele>154.2</ele>
        <time>2024-04-13T14:01:16Z</time>
      </trkpt>
      <trkpt lat="49.04499" lon="1.91729">
        <ele>154.4</ele>
        <time>2024-04-13T14:01:22Z</time>
      </trkpt>
      <trkpt lat="49.04502" lon="1.91717">
        <ele>154.6</ele>
        <time>2024-04-13T14:01:28Z</time>
      </trkpt>
      <trkpt lat="49.04505" lon="1.91705">
        <ele>154.6</ele>
        <time>2024-04-13T14:01:34Z</time>
      </trkpt>
      <trkpt lat="49.04506" lon="1.91696">
        <ele>154.6</ele>
        <time>2024-04-13T14:01:39Z</time>
      </trkpt>
      <trkpt lat="49.04509" lon="1.91687">
        <ele>154.4</ele>
        <time>2024-04-13T14:01:44Z</time>
      </trkpt>
      <trkpt lat="49.04513" lon="1.9168">
        <ele>154.1</ele>
        <time>2024-04-13T14:01:50Z</time>
      </trkpt>
      <trkpt lat="49.04517" lon="1.91676">
        <ele>153.9</ele>
        <time>2024-04-13T14:01:55Z</time>
      </trkpt>
      <trkpt lat="49.0452" lon="1.91664">
        <ele>153.4</ele>
        <time>2024-04-13T14:02:01Z</time>
      </trkpt>
      <trkpt lat="49.04523" lon="1.91649">
        <ele>153.1</ele>
        <time>2024-04-13T14:02:07Z</time>
      </trkpt>
      <trkpt lat="49.04526" lon="1.91638">
        <ele>152.8</ele>
        <time>2024-04-13T14:02:13Z</time>
      </trkpt>
      <trkpt lat="49.04528" lon="1.91625">
        <ele>152.8</ele>
        <time>2024-04-13T14:02:19Z</time>
      </trkpt>
      <trkpt lat="49.04531" lon="1.91614">
        <ele>152.7</ele>
        <time>2024-04-13T14:02:24Z</time>
      </trkpt>
      <trkpt lat="49.04533" lon="1.91603">
        <ele>152.6</ele>
        <time>2024-04-13T14:02:29Z</time>
      </trkpt>
      <trkpt lat="49.04535" lon="1.91593">
        <ele>152.6</ele>
        <time>2024-04-13T14:02:35Z</time>
      </trkpt>
      <trkpt lat="49.04539" lon="1.91583">
        <ele>152.6</ele>
        <time>2024-04-13T14:02:40Z</time>
      </trkpt>
      <trkpt lat="49.04543" lon="1.91572">
        <ele>152.6</ele>
        <time>2024-04-13T14:02:45Z</time>
      </trkpt>
      <trkpt lat="49.04546" lon="1.91561">
        <ele>152.6</ele>
        <time>2024-04-13T14:02:50Z</time>
      </trkpt>
      <trkpt lat="49.04548" lon="1.91548">
        <ele>152.6</ele>
        <time>2024-04-13T14:02:56Z</time>
      </trkpt>
      <trkpt lat="49.04551" lon="1.91535">
        <ele>152.7</ele>
        <time>2024-04-13T14:03:02Z</time>
      </trkpt>
      <trkpt lat="49.04554" lon="1.91525">
        <ele>152.8</ele>
        <time>2024-04-13T14:03:07Z</time>
      </trkpt>
      <trkpt lat="49.04557" lon="1.91516">
        <ele>152.8</ele>
        <time>2024-04-13T14:03:13Z</time>
      </trkpt>
      <trkpt lat="49.0456" lon="1.91503">
        <ele>152.8</ele>
        <time>2024-04-13T14:03:19Z</time>
      </trkpt>
      <trkpt lat="49.04563" lon="1.9149">
        <ele>152.7</ele>
        <time>2024-04-13T14:03:24Z</time>
      </trkpt>
      <trkpt lat="49.04567" lon="1.91478">
        <ele>152.7</ele>
        <time>2024-04-13T14:03:30Z</time>
      </trkpt>
      <trkpt lat="49.04569" lon="1.91469">
        <ele>152.8</ele>
        <time>2024-04-13T14:03:35Z</time>
      </trkpt>
      <trkpt lat="49.0457" lon="1.91458">
        <ele>152.9</ele>
        <time>2024-04-13T14:03:40Z</time>
      </trkpt>
      <trkpt lat="49.04573" lon="1.91446">
        <ele>152.9</ele>
        <time>2024-04-13T14:03:46Z</time>
      </trkpt>
      <trkpt lat="49.04573" lon="1.91436">
        <ele>152.8</ele>
        <time>2024-04-13T14:03:51Z</time>
      </trkpt>
      <trkpt lat="49.04575" lon="1.91426">
        <ele>152.6</ele>
        <time>2024-04-13T14:03:56Z</time>
      </trkpt>
      <trkpt lat="49.0458" lon="1.91421">
        <ele>152.4</ele>
        <time>2024-04-13T14:04:02Z</time>
      </trkpt>
      <trkpt lat="49.04581" lon="1.91419">
        <ele>152.4</ele>
        <time>2024-04-13T14:04:08Z</time>
      </trkpt>
      <trkpt lat="49.04582" lon="1.91419">
        <ele>152.4</ele>
        <time>2024-04-13T14:04:14Z</time>
      </trkpt>
      <trkpt lat="49.04582" lon="1.9142">
        <ele>152.5</ele>
        <time>2024-04-13T14:04:19Z</time>
      </trkpt>
      <trkpt lat="49.04582" lon="1.9142">
        <ele>152.5</ele>
        <time>2024-04-13T14:04:25Z</time>
      </trkpt>
      <trkpt lat="49.04582" lon="1.9142">
        <ele>152.5</ele>
        <time>2024-04-13T14:04:30Z</time>
      </trkpt>
      <trkpt lat="49.04582" lon="1.91419">
        <ele>152.6</ele>
        <time>2024-04-13T14:04:36Z</time>
      </trkpt>
      <trkpt lat="49.04582" lon="1.91419">
        <ele>152.6</ele>
        <time>2024-04-13T14:04:41Z</time>
      </trkpt>
      <trkpt lat="49.04582" lon="1.91419">
        <ele>152.7</ele>
        <time>2024-04-13T14:04:47Z</time>
      </trkpt>
      <trkpt lat="49.04582" lon="1.91419">
        <ele>152.7</ele>
        <time>2024-04-13T14:04:53Z</time>
      </trkpt>
      <trkpt lat="49.04582" lon="1.9142">
        <ele>152.8</ele>
        <time>2024-04-13T14:04:58Z</time>
      </trkpt>
      <trkpt lat="49.04582" lon="1.9142">
        <ele>152.8</ele>
        <time>2024-04-13T14:05:04Z</time>
      </trkpt>
      <trkpt lat="49.04582" lon="1.91419">
        <ele>152.8</ele>
        <time>2024-04-13T14:05:10Z</time>
      </trkpt>
      <trkpt lat="49.04582" lon="1.91419">
        <ele>152.8</ele>
        <time>2024-04-13T14:05:16Z</time>
      </trkpt>
      <trkpt lat="49.04582" lon="1.91419">
        <ele>152.9</ele>
        <time>2024-04-13T14:05:21Z</time>
      </trkpt>
      <trkpt lat="49.04582" lon="1.91418">
        <ele>152.9</ele>
        <time>2024-04-13T14:05:27Z</time>
      </trkpt>
      <trkpt lat="49.04582" lon="1.91416">
        <ele>153.1</ele>
        <time>2024-04-13T14:05:32Z</time>
      </trkpt>
      <trkpt lat="49.04583" lon="1.91414">
        <ele>153.1</ele>
        <time>2024-04-13T14:05:38Z</time>
      </trkpt>
      <trkpt lat="49.04584" lon="1.91414">
        <ele>153.2</ele>
        <time>2024-04-13T14:05:43Z</time>
      </trkpt>
      <trkpt lat="49.04589" lon="1.91417">
        <ele>153.1</ele>
        <time>2024-04-13T14:05:49Z</time>
      </trkpt>
      <trkpt lat="49.04594" lon="1.91417">
        <ele>153.1</ele>
        <time>2024-04-13T14:05:54Z</time>
      </trkpt>
      <trkpt lat="49.04599" lon="1.9142">
        <ele>153.1</ele>
        <time>2024-04-13T14:06:00Z</time>
      </trkpt>
      <trkpt lat="49.04605" lon="1.91424">
        <ele>153.1</ele>
        <time>2024-04-13T14:06:06Z</time>
      </trkpt>
      <trkpt lat="49.04611" lon="1.91427">
        <ele>153.1</ele>
        <time>2024-04-13T14:06:11Z</time>
      </trkpt>
      <trkpt lat="49.04617" lon="1.91432">
        <ele>153</ele>
        <time>2024-04-13T14:06:16Z</time>
      </trkpt>
      <trkpt lat="49.04623" lon="1.91435">
        <ele>152.9</ele>
        <time>2024-04-13T14:06:22Z</time>
      </trkpt>
      <trkpt lat="49.04631" lon="1.91437">
        <ele>152.8</ele>
        <time>2024-04-13T14:06:28Z</time>
      </trkpt>
      <trkpt lat="49.04637" lon="1.91441">
        <ele>152.6</ele>
        <time>2024-04-13T14:06:33Z</time>
      </trkpt>
      <trkpt lat="49.04643" lon="1.91443">
        <ele>152.3</ele>
        <time>2024-04-13T14:06:39Z</time>
      </trkpt>
      <trkpt lat="49.04651" lon="1.91443">
        <ele>152.2</ele>
        <time>2024-04-13T14:06:45Z</time>
      </trkpt>
      <trkpt lat="49.04659" lon="1.91446">
        <ele>152.2</ele>
        <time>2024-04-13T14:06:51Z</time>
      </trkpt>
      <trkpt lat="49.04666" lon="1.91451">
        <ele>152.2</ele>
        <time>2024-04-13T14:06:56Z</time>
      </trkpt>
      <trkpt lat="49.04672" lon="1.91454">
        <ele>152.6</ele>
        <time>2024-04-13T14:07:02Z</time>
      </trkpt>
      <trkpt lat="49.04678" lon="1.91455">
        <ele>152.7</ele>
        <time>2024-04-13T14:07:08Z</time>
      </trkpt>
      <trkpt lat="49.04686" lon="1.91458">
        <ele>152.5</ele>
        <time>2024-04-13T14:07:14Z</time>
      </trkpt>
      <trkpt lat="49.04691" lon="1.91461">
        <ele>152.3</ele>
        <time>2024-04-13T14:07:19Z</time>
      </trkpt>
      <trkpt lat="49.04697" lon="1.91463">
        <ele>152.1</ele>
        <time>2024-04-13T14:07:25Z</time>
      </trkpt>
      <trkpt lat="49.04704" lon="1.91468">
        <ele>152</ele>
        <time>2024-04-13T14:07:30Z</time>
      </trkpt>
      <trkpt lat="49.0471" lon="1.91468">
        <ele>151.8</ele>
        <time>2024-04-13T14:07:36Z</time>
      </trkpt>
      <trkpt lat="49.04718" lon="1.91471">
        <ele>151.7</ele>
        <time>2024-04-13T14:07:42Z</time>
      </trkpt>
      <trkpt lat="49.04725" lon="1.91474">
        <ele>151.3</ele>
        <time>2024-04-13T14:07:48Z</time>
      </trkpt>
      <trkpt lat="49.04732" lon="1.91474">
        <ele>151</ele>
        <time>2024-04-13T14:07:54Z</time>
      </trkpt>
      <trkpt lat="49.04737" lon="1.91478">
        <ele>150.7</ele>
        <time>2024-04-13T14:07:59Z</time>
      </trkpt>
      <trkpt lat="49.04741" lon="1.91482">
        <ele>150.4</ele>
        <time>2024-04-13T14:08:04Z</time>
      </trkpt>
      <trkpt lat="49.04747" lon="1.91486">
        <ele>150.1</ele>
        <time>2024-04-13T14:08:10Z</time>
      </trkpt>
      <trkpt lat="49.04753" lon="1.9149">
        <ele>149.8</ele>
        <time>2024-04-13T14:08:15Z</time>
      </trkpt>
      <trkpt lat="49.0476" lon="1.91493">
        <ele>149.5</ele>
        <time>2024-04-13T14:08:21Z</time>
      </trkpt>
      <trkpt lat="49.04767" lon="1.91495">
        <ele>149.4</ele>
        <time>2024-04-13T14:08:26Z</time>
      </trkpt>
      <trkpt lat="49.04771" lon="1.91496">
        <ele>149</ele>
        <time>2024-04-13T14:08:31Z</time>
      </trkpt>
      <trkpt lat="49.0478" lon="1.915">
        <ele>148.7</ele>
        <time>2024-04-13T14:08:37Z</time>
      </trkpt>
      <trkpt lat="49.04786" lon="1.915">
        <ele>148.3</ele>
        <time>2024-04-13T14:08:42Z</time>
      </trkpt>
      <trkpt lat="49.04794" lon="1.91503">
        <ele>147.9</ele>
        <time>2024-04-13T14:08:48Z</time>
      </trkpt>
      <trkpt lat="49.04801" lon="1.91506">
        <ele>147.6</ele>
        <time>2024-04-13T14:08:54Z</time>
      </trkpt>
      <trkpt lat="49.04806" lon="1.91508">
        <ele>147.3</ele>
        <time>2024-04-13T14:08:59Z</time>
      </trkpt>
      <trkpt lat="49.04812" lon="1.9151">
        <ele>147.1</ele>
        <time>2024-04-13T14:09:04Z</time>
      </trkpt>
      <trkpt lat="49.04819" lon="1.91514">
        <ele>146.8</ele>
        <time>2024-04-13T14:09:10Z</time>
      </trkpt>
      <trkpt lat="49.04827" lon="1.91516">
        <ele>146.7</ele>
        <time>2024-04-13T14:09:15Z</time>
      </trkpt>
      <trkpt lat="49.04834" lon="1.91519">
        <ele>146.7</ele>
        <time>2024-04-13T14:09:21Z</time>
      </trkpt>
      <trkpt lat="49.04838" lon="1.91522">
        <ele>146.6</ele>
        <time>2024-04-13T14:09:26Z</time>
      </trkpt>
      <trkpt lat="49.04844" lon="1.91526">
        <ele>146.4</ele>
        <time>2024-04-13T14:09:31Z</time>
      </trkpt>
      <trkpt lat="49.04851" lon="1.9153">
        <ele>146</ele>
        <time>2024-04-13T14:09:37Z</time>
      </trkpt>
      <trkpt lat="49.04858" lon="1.91531">
        <ele>145.8</ele>
        <time>2024-04-13T14:09:42Z</time>
      </trkpt>
      <trkpt lat="49.04864" lon="1.91534">
        <ele>145.5</ele>
        <time>2024-04-13T14:09:48Z</time>
      </trkpt>
      <trkpt lat="49.04873" lon="1.91539">
        <ele>145.5</ele>
        <time>2024-04-13T14:09:54Z</time>
      </trkpt>
      <trkpt lat="49.04879" lon="1.91541">
        <ele>145.5</ele>
        <time>2024-04-13T14:09:59Z</time>
      </trkpt>
      <trkpt lat="49.04884" lon="1.91543">
        <ele>145.5</ele>
        <time>2024-04-13T14:10:05Z</time>
      </trkpt>
      <trkpt lat="49.04891" lon="1.91544">
        <ele>145.3</ele>
        <time>2024-04-13T14:10:10Z</time>
      </trkpt>
      <trkpt lat="49.04899" lon="1.91546">
        <ele>145</ele>
        <time>2024-04-13T14:10:16Z</time>
      </trkpt>
      <trkpt lat="49.04907" lon="1.91549">
        <ele>144.5</ele>
        <time>2024-04-13T14:10:22Z</time>
      </trkpt>
      <trkpt lat="49.04915" lon="1.91548">
        <ele>144</ele>
        <time>2024-04-13T14:10:28Z</time>
      </trkpt>
      <trkpt lat="49.04922" lon="1.91551">
        <ele>143.6</ele>
        <time>2024-04-13T14:10:33Z</time>
      </trkpt>
      <trkpt lat="49.04928" lon="1.91553">
        <ele>142.9</ele>
        <time>2024-04-13T14:10:39Z</time>
      </trkpt>
      <trkpt lat="49.04935" lon="1.91553">
        <ele>142.3</ele>
        <time>2024-04-13T14:10:45Z</time>
      </trkpt>
      <trkpt lat="49.04941" lon="1.91557">
        <ele>141.9</ele>
        <time>2024-04-13T14:10:50Z</time>
      </trkpt>
      <trkpt lat="49.04946" lon="1.91558">
        <ele>141.6</ele>
        <time>2024-04-13T14:10:55Z</time>
      </trkpt>
      <trkpt lat="49.04953" lon="1.91559">
        <ele>141.2</ele>
        <time>2024-04-13T14:11:00Z</time>
      </trkpt>
      <trkpt lat="49.04959" lon="1.91563">
        <ele>140.8</ele>
        <time>2024-04-13T14:11:06Z</time>
      </trkpt>
      <trkpt lat="49.04965" lon="1.91564">
        <ele>140.5</ele>
        <time>2024-04-13T14:11:11Z</time>
      </trkpt>
      <trkpt lat="49.04971" lon="1.91564">
        <ele>140.1</ele>
        <time>2024-04-13T14:11:17Z</time>
      </trkpt>
      <trkpt lat="49.04976" lon="1.91565">
        <ele>139.8</ele>
        <time>2024-04-13T14:11:22Z</time>
      </trkpt>
      <trkpt lat="49.04984" lon="1.91569">
        <ele>139.4</ele>
        <time>2024-04-13T14:11:28Z</time>
      </trkpt>
      <trkpt lat="49.04992" lon="1.91573">
        <ele>139.2</ele>
        <time>2024-04-13T14:11:34Z</time>
      </trkpt>
      <trkpt lat="49.04997" lon="1.91575">
        <ele>139.2</ele>
        <time>2024-04-13T14:11:39Z</time>
      </trkpt>
      <trkpt lat="49.05004" lon="1.91576">
        <ele>139.2</ele>
        <time>2024-04-13T14:11:45Z</time>
      </trkpt>
      <trkpt lat="49.05009" lon="1.91579">
        <ele>139.1</ele>
        <time>2024-04-13T14:11:50Z</time>
      </trkpt>
      <trkpt lat="49.05015" lon="1.91583">
        <ele>139</ele>
        <time>2024-04-13T14:11:55Z</time>
      </trkpt>
      <trkpt lat="49.05021" lon="1.91583">
        <ele>138.9</ele>
        <time>2024-04-13T14:12:00Z</time>
      </trkpt>
      <trkpt lat="49.05028" lon="1.91586">
        <ele>138.7</ele>
        <time>2024-04-13T14:12:05Z</time>
      </trkpt>
      <trkpt lat="49.05036" lon="1.91586">
        <ele>138.5</ele>
        <time>2024-04-13T14:12:11Z</time>
      </trkpt>
      <trkpt lat="49.05044" lon="1.91587">
        <ele>138.4</ele>
        <time>2024-04-13T14:12:17Z</time>
      </trkpt>
      <trkpt lat="49.0505" lon="1.9159">
        <ele>138.6</ele>
        <time>2024-04-13T14:12:23Z</time>
      </trkpt>
      <trkpt lat="49.05055" lon="1.91592">
        <ele>138.7</ele>
        <time>2024-04-13T14:12:28Z</time>
      </trkpt>
      <trkpt lat="49.05061" lon="1.91594">
        <ele>138.6</ele>
        <time>2024-04-13T14:12:33Z</time>
      </trkpt>
      <trkpt lat="49.05068" lon="1.91597">
        <ele>138.3</ele>
        <time>2024-04-13T14:12:39Z</time>
      </trkpt>
      <trkpt lat="49.05075" lon="1.91599">
        <ele>138.1</ele>
        <time>2024-04-13T14:12:45Z</time>
      </trkpt>
      <trkpt lat="49.05082" lon="1.91601">
        <ele>138</ele>
        <time>2024-04-13T14:12:50Z</time>
      </trkpt>
      <trkpt lat="49.05088" lon="1.91604">
        <ele>137.9</ele>
        <time>2024-04-13T14:12:56Z</time>
      </trkpt>
      <trkpt lat="49.05095" lon="1.91609">
        <ele>137.7</ele>
        <time>2024-04-13T14:13:02Z</time>
      </trkpt>
      <trkpt lat="49.05103" lon="1.91612">
        <ele>137.7</ele>
        <time>2024-04-13T14:13:07Z</time>
      </trkpt>
      <trkpt lat="49.05108" lon="1.91616">
        <ele>137.6</ele>
        <time>2024-04-13T14:13:12Z</time>
      </trkpt>
      <trkpt lat="49.05113" lon="1.91619">
        <ele>137.5</ele>
        <time>2024-04-13T14:13:18Z</time>
      </trkpt>
      <trkpt lat="49.05121" lon="1.91621">
        <ele>137.2</ele>
        <time>2024-04-13T14:13:24Z</time>
      </trkpt>
      <trkpt lat="49.05127" lon="1.91623">
        <ele>137.1</ele>
        <time>2024-04-13T14:13:30Z</time>
      </trkpt>
      <trkpt lat="49.05134" lon="1.91625">
        <ele>137.1</ele>
        <time>2024-04-13T14:13:35Z</time>
      </trkpt>
      <trkpt lat="49.05142" lon="1.91628">
        <ele>136.9</ele>
        <time>2024-04-13T14:13:41Z</time>
      </trkpt>
      <trkpt lat="49.05147" lon="1.91628">
        <ele>136.8</ele>
        <time>2024-04-13T14:13:46Z</time>
      </trkpt>
      <trkpt lat="49.05153" lon="1.9163">
        <ele>136.6</ele>
        <time>2024-04-13T14:13:52Z</time>
      </trkpt>
      <trkpt lat="49.05159" lon="1.91633">
        <ele>136.3</ele>
        <time>2024-04-13T14:13:57Z</time>
      </trkpt>
      <trkpt lat="49.05167" lon="1.91635">
        <ele>136.2</ele>
        <time>2024-04-13T14:14:03Z</time>
      </trkpt>
      <trkpt lat="49.05175" lon="1.91637">
        <ele>136.1</ele>
        <time>2024-04-13T14:14:09Z</time>
      </trkpt>
      <trkpt lat="49.05183" lon="1.9164">
        <ele>135.9</ele>
        <time>2024-04-13T14:14:15Z</time>
      </trkpt>
      <trkpt lat="49.05189" lon="1.91642">
        <ele>135.6</ele>
        <time>2024-04-13T14:14:21Z</time>
      </trkpt>
      <trkpt lat="49.05195" lon="1.91645">
        <ele>135.4</ele>
        <time>2024-04-13T14:14:26Z</time>
      </trkpt>
      <trkpt lat="49.052" lon="1.91648">
        <ele>135.3</ele>
        <time>2024-04-13T14:14:31Z</time>
      </trkpt>
      <trkpt lat="49.05207" lon="1.9165">
        <ele>135.2</ele>
        <time>2024-04-13T14:14:37Z</time>
      </trkpt>
      <trkpt lat="49.05215" lon="1.91654">
        <ele>135.1</ele>
        <time>2024-04-13T14:14:43Z</time>
      </trkpt>
      <trkpt lat="49.05221" lon="1.91658">
        <ele>135</ele>
        <time>2024-04-13T14:14:49Z</time>
      </trkpt>
      <trkpt lat="49.05226" lon="1.91661">
        <ele>134.9</ele>
        <time>2024-04-13T14:14:54Z</time>
      </trkpt>
      <trkpt lat="49.05235" lon="1.91666">
        <ele>135</ele>
        <time>2024-04-13T14:15:00Z</time>
      </trkpt>
      <trkpt lat="49.05241" lon="1.91669">
        <ele>135.4</ele>
        <time>2024-04-13T14:15:06Z</time>
      </trkpt>
      <trkpt lat="49.05248" lon="1.91672">
        <ele>135.5</ele>
        <time>2024-04-13T14:15:11Z</time>
      </trkpt>
      <trkpt lat="49.05252" lon="1.91674">
        <ele>135.5</ele>
        <time>2024-04-13T14:15:16Z</time>
      </trkpt>
      <trkpt lat="49.05257" lon="1.91679">
        <ele>135.5</ele>
        <time>2024-04-13T14:15:22Z</time>
      </trkpt>
      <trkpt lat="49.05262" lon="1.91681">
        <ele>135.3</ele>
        <time>2024-04-13T14:15:28Z</time>
      </trkpt>
      <trkpt lat="49.0527" lon="1.91685">
        <ele>135.1</ele>
        <time>2024-04-13T14:15:34Z</time>
      </trkpt>
      <trkpt lat="49.05276" lon="1.91689">
        <ele>135.2</ele>
        <time>2024-04-13T14:15:40Z</time>
      </trkpt>
      <trkpt lat="49.05283" lon="1.91692">
        <ele>135.4</ele>
        <time>2024-04-13T14:15:46Z</time>
      </trkpt>
      <trkpt lat="49.05289" lon="1.91696">
        <ele>135.6</ele>
        <time>2024-04-13T14:15:52Z</time>
      </trkpt>
      <trkpt lat="49.05296" lon="1.91701">
        <ele>135.8</ele>
        <time>2024-04-13T14:15:58Z</time>
      </trkpt>
      <trkpt lat="49.05301" lon="1.91704">
        <ele>136</ele>
        <time>2024-04-13T14:16:03Z</time>
      </trkpt>
      <trkpt lat="49.05307" lon="1.91707">
        <ele>136.1</ele>
        <time>2024-04-13T14:16:09Z</time>
      </trkpt>
      <trkpt lat="49.05312" lon="1.9171">
        <ele>136.1</ele>
        <time>2024-04-13T14:16:14Z</time>
      </trkpt>
      <trkpt lat="49.05319" lon="1.91715">
        <ele>136.5</ele>
        <time>2024-04-13T14:16:20Z</time>
      </trkpt>
      <trkpt lat="49.05326" lon="1.91719">
        <ele>136.8</ele>
        <time>2024-04-13T14:16:25Z</time>
      </trkpt>
      <trkpt lat="49.05332" lon="1.91722">
        <ele>137.2</ele>
        <time>2024-04-13T14:16:31Z</time>
      </trkpt>
      <trkpt lat="49.05337" lon="1.91726">
        <ele>137.4</ele>
        <time>2024-04-13T14:16:37Z</time>
      </trkpt>
      <trkpt lat="49.05343" lon="1.91727">
        <ele>137.6</ele>
        <time>2024-04-13T14:16:43Z</time>
      </trkpt>
      <trkpt lat="49.05349" lon="1.9173">
        <ele>137.7</ele>
        <time>2024-04-13T14:16:49Z</time>
      </trkpt>
      <trkpt lat="49.05356" lon="1.91733">
        <ele>138</ele>
        <time>2024-04-13T14:16:55Z</time>
      </trkpt>
      <trkpt lat="49.05361" lon="1.91732">
        <ele>138.4</ele>
        <time>2024-04-13T14:17:00Z</time>
      </trkpt>
      <trkpt lat="49.05366" lon="1.91732">
        <ele>138.9</ele>
        <time>2024-04-13T14:17:05Z</time>
      </trkpt>
      <trkpt lat="49.05371" lon="1.91733">
        <ele>139.3</ele>
        <time>2024-04-13T14:17:11Z</time>
      </trkpt>
      <trkpt lat="49.05372" lon="1.91733">
        <ele>139.4</ele>
        <time>2024-04-13T14:17:17Z</time>
      </trkpt>
      <trkpt lat="49.05372" lon="1.91733">
        <ele>139.4</ele>
        <time>2024-04-13T14:17:23Z</time>
      </trkpt>
      <trkpt lat="49.05372" lon="1.91733">
        <ele>139.4</ele>
        <time>2024-04-13T14:17:29Z</time>
      </trkpt>
      <trkpt lat="49.05372" lon="1.91733">
        <ele>139.4</ele>
        <time>2024-04-13T14:17:34Z</time>
      </trkpt>
      <trkpt lat="49.05372" lon="1.91733">
        <ele>139.5</ele>
        <time>2024-04-13T14:17:40Z</time>
      </trkpt>
      <trkpt lat="49.05376" lon="1.91734">
        <ele>139.7</ele>
        <time>2024-04-13T14:17:45Z</time>
      </trkpt>
      <trkpt lat="49.05382" lon="1.91737">
        <ele>139.7</ele>
        <time>2024-04-13T14:17:51Z</time>
      </trkpt>
      <trkpt lat="49.05388" lon="1.91739">
        <ele>139.6</ele>
        <time>2024-04-13T14:17:57Z</time>
      </trkpt>
      <trkpt lat="49.05394" lon="1.91742">
        <ele>139.4</ele>
        <time>2024-04-13T14:18:03Z</time>
      </trkpt>
      <trkpt lat="49.05401" lon="1.91747">
        <ele>139.5</ele>
        <time>2024-04-13T14:18:08Z</time>
      </trkpt>
      <trkpt lat="49.05405" lon="1.91751">
        <ele>139.7</ele>
        <time>2024-04-13T14:18:13Z</time>
      </trkpt>
      <trkpt lat="49.05411" lon="1.91755">
        <ele>139.9</ele>
        <time>2024-04-13T14:18:19Z</time>
      </trkpt>
      <trkpt lat="49.05418" lon="1.9176">
        <ele>140.1</ele>
        <time>2024-04-13T14:18:24Z</time>
      </trkpt>
      <trkpt lat="49.05426" lon="1.91764">
        <ele>140.5</ele>
        <time>2024-04-13T14:18:29Z</time>
      </trkpt>
      <trkpt lat="49.05432" lon="1.91765">
        <ele>140.8</ele>
        <time>2024-04-13T14:18:34Z</time>
      </trkpt>
      <trkpt lat="49.05439" lon="1.91769">
        <ele>141.1</ele>
        <time>2024-04-13T14:18:40Z</time>
      </trkpt>
      <trkpt lat="49.05444" lon="1.91772">
        <ele>141.3</ele>
        <time>2024-04-13T14:18:45Z</time>
      </trkpt>
      <trkpt lat="49.05451" lon="1.91777">
        <ele>141.4</ele>
        <time>2024-04-13T14:18:51Z</time>
      </trkpt>
      <trkpt lat="49.05457" lon="1.91785">
        <ele>141.5</ele>
        <time>2024-04-13T14:18:57Z</time>
      </trkpt>
      <trkpt lat="49.05463" lon="1.9179">
        <ele>141.7</ele>
        <time>2024-04-13T14:19:03Z</time>
      </trkpt>
      <trkpt lat="49.05468" lon="1.91793">
        <ele>141.9</ele>
        <time>2024-04-13T14:19:08Z</time>
      </trkpt>
      <trkpt lat="49.05475" lon="1.91799">
        <ele>142.2</ele>
        <time>2024-04-13T14:19:14Z</time>
      </trkpt>
      <trkpt lat="49.0548" lon="1.91803">
        <ele>142.2</ele>
        <time>2024-04-13T14:19:19Z</time>
      </trkpt>
      <trkpt lat="49.05485" lon="1.91809">
        <ele>142.2</ele>
        <time>2024-04-13T14:19:24Z</time>
      </trkpt>
      <trkpt lat="49.05491" lon="1.91813">
        <ele>142.3</ele>
        <time>2024-04-13T14:19:29Z</time>
      </trkpt>
      <trkpt lat="49.05499" lon="1.91818">
        <ele>142.7</ele>
        <time>2024-04-13T14:19:35Z</time>
      </trkpt>
      <trkpt lat="49.05505" lon="1.91824">
        <ele>143</ele>
        <time>2024-04-13T14:19:41Z</time>
      </trkpt>
      <trkpt lat="49.05513" lon="1.91828">
        <ele>143.1</ele>
        <time>2024-04-13T14:19:47Z</time>
      </trkpt>
      <trkpt lat="49.05521" lon="1.91834">
        <ele>143.2</ele>
        <time>2024-04-13T14:19:53Z</time>
      </trkpt>
      <trkpt lat="49.05526" lon="1.91837">
        <ele>143.4</ele>
        <time>2024-04-13T14:19:58Z</time>
      </trkpt>
      <trkpt lat="49.05534" lon="1.91842">
        <ele>143.6</ele>
        <time>2024-04-13T14:20:03Z</time>
      </trkpt>
      <trkpt lat="49.0554" lon="1.91845">
        <ele>143.7</ele>
        <time>2024-04-13T14:20:08Z</time>
      </trkpt>
      <trkpt lat="49.05547" lon="1.9185">
        <ele>143.8</ele>
        <time>2024-04-13T14:20:14Z</time>
      </trkpt>
      <trkpt lat="49.05553" lon="1.91856">
        <ele>143.9</ele>
        <time>2024-04-13T14:20:19Z</time>
      </trkpt>
      <trkpt lat="49.0556" lon="1.91861">
        <ele>144</ele>
        <time>2024-04-13T14:20:25Z</time>
      </trkpt>
      <trkpt lat="49.05566" lon="1.91865">
        <ele>144</ele>
        <time>2024-04-13T14:20:30Z</time>
      </trkpt>
      <trkpt lat="49.05573" lon="1.91871">
        <ele>144.1</ele>
        <time>2024-04-13T14:20:36Z</time>
      </trkpt>
      <trkpt lat="49.0558" lon="1.91876">
        <ele>144.2</ele>
        <time>2024-04-13T14:20:41Z</time>
      </trkpt>
      <trkpt lat="49.05586" lon="1.91881">
        <ele>144.3</ele>
        <time>2024-04-13T14:20:47Z</time>
      </trkpt>
      <trkpt lat="49.05595" lon="1.91885">
        <ele>144.3</ele>
        <time>2024-04-13T14:20:53Z</time>
      </trkpt>
      <trkpt lat="49.05601" lon="1.9189">
        <ele>144.4</ele>
        <time>2024-04-13T14:20:59Z</time>
      </trkpt>
      <trkpt lat="49.05607" lon="1.91899">
        <ele>144.4</ele>
        <time>2024-04-13T14:21:05Z</time>
      </trkpt>
      <trkpt lat="49.05616" lon="1.91902">
        <ele>144.4</ele>
        <time>2024-04-13T14:21:11Z</time>
      </trkpt>
      <trkpt lat="49.05623" lon="1.91908">
        <ele>144.5</ele>
        <time>2024-04-13T14:21:16Z</time>
      </trkpt>
      <trkpt lat="49.05627" lon="1.91912">
        <ele>144.7</ele>
        <time>2024-04-13T14:21:21Z</time>
      </trkpt>
      <trkpt lat="49.05634" lon="1.91916">
        <ele>144.8</ele>
        <time>2024-04-13T14:21:26Z</time>
      </trkpt>
      <trkpt lat="49.05641" lon="1.91921">
        <ele>144.9</ele>
        <time>2024-04-13T14:21:32Z</time>
      </trkpt>
      <trkpt lat="49.05646" lon="1.91923">
        <ele>145</ele>
        <time>2024-04-13T14:21:37Z</time>
      </trkpt>
      <trkpt lat="49.05653" lon="1.91928">
        <ele>145.3</ele>
        <time>2024-04-13T14:21:42Z</time>
      </trkpt>
      <trkpt lat="49.05659" lon="1.91933">
        <ele>145.7</ele>
        <time>2024-04-13T14:21:48Z</time>
      </trkpt>
      <trkpt lat="49.05668" lon="1.91938">
        <ele>146.2</ele>
        <time>2024-04-13T14:21:54Z</time>
      </trkpt>
      <trkpt lat="49.05673" lon="1.91939">
        <ele>146.5</ele>
        <time>2024-04-13T14:21:59Z</time>
      </trkpt>
      <trkpt lat="49.0568" lon="1.91944">
        <ele>146.8</ele>
        <time>2024-04-13T14:22:04Z</time>
      </trkpt>
      <trkpt lat="49.05685" lon="1.9195">
        <ele>147.1</ele>
        <time>2024-04-13T14:22:10Z</time>
      </trkpt>
      <trkpt lat="49.05691" lon="1.91957">
        <ele>147.5</ele>
        <time>2024-04-13T14:22:15Z</time>
      </trkpt>
      <trkpt lat="49.05695" lon="1.91964">
        <ele>148.1</ele>
        <time>2024-04-13T14:22:21Z</time>
      </trkpt>
      <trkpt lat="49.05701" lon="1.91968">
        <ele>148.6</ele>
        <time>2024-04-13T14:22:26Z</time>
      </trkpt>
      <trkpt lat="49.05706" lon="1.91974">
        <ele>148.7</ele>
        <time>2024-04-13T14:22:32Z</time>
      </trkpt>
      <trkpt lat="49.05714" lon="1.91982">
        <ele>148.7</ele>
        <time>2024-04-13T14:22:38Z</time>
      </trkpt>
      <trkpt lat="49.05721" lon="1.91988">
        <ele>148.7</ele>
        <time>2024-04-13T14:22:43Z</time>
      </trkpt>
      <trkpt lat="49.05728" lon="1.91992">
        <ele>148.7</ele>
        <time>2024-04-13T14:22:49Z</time>
      </trkpt>
      <trkpt lat="49.05736" lon="1.92001">
        <ele>148.5</ele>
        <time>2024-04-13T14:22:55Z</time>
      </trkpt>
      <trkpt lat="49.05741" lon="1.92008">
        <ele>148.2</ele>
        <time>2024-04-13T14:23:01Z</time>
      </trkpt>
      <trkpt lat="49.05746" lon="1.92014">
        <ele>147.9</ele>
        <time>2024-04-13T14:23:06Z</time>
      </trkpt>
      <trkpt lat="49.0575" lon="1.92022">
        <ele>147.6</ele>
        <time>2024-04-13T14:23:12Z</time>
      </trkpt>
      <trkpt lat="49.05758" lon="1.92024">
        <ele>147.1</ele>
        <time>2024-04-13T14:23:18Z</time>
      </trkpt>
      <trkpt lat="49.05764" lon="1.92025">
        <ele>146.8</ele>
        <time>2024-04-13T14:23:24Z</time>
      </trkpt>
      <trkpt lat="49.05771" lon="1.92025">
        <ele>146.8</ele>
        <time>2024-04-13T14:23:30Z</time>
      </trkpt>
      <trkpt lat="49.05778" lon="1.92023">
        <ele>146.8</ele>
        <time>2024-04-13T14:23:35Z</time>
      </trkpt>
      <trkpt lat="49.05784" lon="1.92021">
        <ele>146.7</ele>
        <time>2024-04-13T14:23:41Z</time>
      </trkpt>
      <trkpt lat="49.05789" lon="1.92021">
        <ele>146.7</ele>
        <time>2024-04-13T14:23:46Z</time>
      </trkpt>
      <trkpt lat="49.05797" lon="1.92019">
        <ele>146.6</ele>
        <time>2024-04-13T14:23:52Z</time>
      </trkpt>
      <trkpt lat="49.05806" lon="1.92015">
        <ele>146.2</ele>
        <time>2024-04-13T14:23:58Z</time>
      </trkpt>
      <trkpt lat="49.05812" lon="1.92009">
        <ele>145.7</ele>
        <time>2024-04-13T14:24:03Z</time>
      </trkpt>
      <trkpt lat="49.05815" lon="1.92003">
        <ele>145.2</ele>
        <time>2024-04-13T14:24:09Z</time>
      </trkpt>
      <trkpt lat="49.0582" lon="1.91998">
        <ele>144.6</ele>
        <time>2024-04-13T14:24:14Z</time>
      </trkpt>
      <trkpt lat="49.05825" lon="1.91991">
        <ele>143.8</ele>
        <time>2024-04-13T14:24:20Z</time>
      </trkpt>
      <trkpt lat="49.05831" lon="1.91984">
        <ele>143.1</ele>
        <time>2024-04-13T14:24:26Z</time>
      </trkpt>
      <trkpt lat="49.05837" lon="1.91979">
        <ele>142.2</ele>
        <time>2024-04-13T14:24:32Z</time>
      </trkpt>
      <trkpt lat="49.05841" lon="1.91973">
        <ele>141.3</ele>
        <time>2024-04-13T14:24:38Z</time>
      </trkpt>
      <trkpt lat="49.05847" lon="1.91968">
        <ele>140.5</ele>
        <time>2024-04-13T14:24:43Z</time>
      </trkpt>
      <trkpt lat="49.05856" lon="1.91967">
        <ele>139.8</ele>
        <time>2024-04-13T14:24:49Z</time>
      </trkpt>
      <trkpt lat="49.05863" lon="1.91968">
        <ele>139.1</ele>
        <time>2024-04-13T14:24:54Z</time>
      </trkpt>
      <trkpt lat="49.05871" lon="1.91969">
        <ele>138.2</ele>
        <time>2024-04-13T14:25:00Z</time>
      </trkpt>
      <trkpt lat="49.05877" lon="1.91971">
        <ele>137.3</ele>
        <time>2024-04-13T14:25:06Z</time>
      </trkpt>
      <trkpt lat="49.05884" lon="1.91973">
        <ele>136.6</ele>
        <time>2024-04-13T14:25:12Z</time>
      </trkpt>
      <trkpt lat="49.05891" lon="1.91975">
        <ele>135.9</ele>
        <time>2024-04-13T14:25:18Z</time>
      </trkpt>
      <trkpt lat="49.05897" lon="1.91977">
        <ele>135.3</ele>
        <time>2024-04-13T14:25:23Z</time>
      </trkpt>
      <trkpt lat="49.05903" lon="1.91979">
        <ele>134.2</ele>
        <time>2024-04-13T14:25:29Z</time>
      </trkpt>
      <trkpt lat="49.0591" lon="1.91983">
        <ele>133.2</ele>
        <time>2024-04-13T14:25:35Z</time>
      </trkpt>
      <trkpt lat="49.05917" lon="1.91985">
        <ele>132.1</ele>
        <time>2024-04-13T14:25:41Z</time>
      </trkpt>
      <trkpt lat="49.05924" lon="1.91987">
        <ele>131.1</ele>
        <time>2024-04-13T14:25:46Z</time>
      </trkpt>
      <trkpt lat="49.0593" lon="1.9199">
        <ele>130.2</ele>
        <time>2024-04-13T14:25:51Z</time>
      </trkpt>
      <trkpt lat="49.05937" lon="1.91992">
        <ele>129.4</ele>
        <time>2024-04-13T14:25:57Z</time>
      </trkpt>
      <trkpt lat="49.05946" lon="1.91994">
        <ele>128.8</ele>
        <time>2024-04-13T14:26:03Z</time>
      </trkpt>
      <trkpt lat="49.05952" lon="1.91997">
        <ele>128.1</ele>
        <time>2024-04-13T14:26:09Z</time>
      </trkpt>
      <trkpt lat="49.05961" lon="1.92001">
        <ele>127.7</ele>
        <time>2024-04-13T14:26:15Z</time>
      </trkpt>
      <trkpt lat="49.05968" lon="1.92004">
        <ele>127.4</ele>
        <time>2024-04-13T14:26:21Z</time>
      </trkpt>
      <trkpt lat="49.05973" lon="1.92003">
        <ele>127</ele>
        <time>2024-04-13T14:26:26Z</time>
      </trkpt>
      <trkpt lat="49.05982" lon="1.92006">
        <ele>126.5</ele>
        <time>2024-04-13T14:26:32Z</time>
      </trkpt>
      <trkpt lat="49.05989" lon="1.92009">
        <ele>125.8</ele>
        <time>2024-04-13T14:26:38Z</time>
      </trkpt>
      <trkpt lat="49.05997" lon="1.92011">
        <ele>125.3</ele>
        <time>2024-04-13T14:26:44Z</time>
      </trkpt>
      <trkpt lat="49.06003" lon="1.92015">
        <ele>125.1</ele>
        <time>2024-04-13T14:26:49Z</time>
      </trkpt>
      <trkpt lat="49.06011" lon="1.92018">
        <ele>124.9</ele>
        <time>2024-04-13T14:26:55Z</time>
      </trkpt>
      <trkpt lat="49.06017" lon="1.9202">
        <ele>124.8</ele>
        <time>2024-04-13T14:27:01Z</time>
      </trkpt>
      <trkpt lat="49.06023" lon="1.92023">
        <ele>124.7</ele>
        <time>2024-04-13T14:27:07Z</time>
      </trkpt>
      <trkpt lat="49.06031" lon="1.92026">
        <ele>124.5</ele>
        <time>2024-04-13T14:27:13Z</time>
      </trkpt>
      <trkpt lat="49.06038" lon="1.92028">
        <ele>124.1</ele>
        <time>2024-04-13T14:27:19Z</time>
      </trkpt>
      <trkpt lat="49.06047" lon="1.92031">
        <ele>123.8</ele>
        <time>2024-04-13T14:27:24Z</time>
      </trkpt>
      <trkpt lat="49.06052" lon="1.92032">
        <ele>123.3</ele>
        <time>2024-04-13T14:27:29Z</time>
      </trkpt>
      <trkpt lat="49.06061" lon="1.92033">
        <ele>122.9</ele>
        <time>2024-04-13T14:27:35Z</time>
      </trkpt>
      <trkpt lat="49.06067" lon="1.92035">
        <ele>122.7</ele>
        <time>2024-04-13T14:27:41Z</time>
      </trkpt>
      <trkpt lat="49.06074" lon="1.92039">
        <ele>122.5</ele>
        <time>2024-04-13T14:27:46Z</time>
      </trkpt>
      <trkpt lat="49.06079" lon="1.92041">
        <ele>122.2</ele>
        <time>2024-04-13T14:27:51Z</time>
      </trkpt>
      <trkpt lat="49.06088" lon="1.92045">
        <ele>122</ele>
        <time>2024-04-13T14:27:57Z</time>
      </trkpt>
      <trkpt lat="49.06092" lon="1.92049">
        <ele>121.6</ele>
        <time>2024-04-13T14:28:03Z</time>
      </trkpt>
      <trkpt lat="49.06103" lon="1.92049">
        <ele>121.1</ele>
        <time>2024-04-13T14:28:09Z</time>
      </trkpt>
      <trkpt lat="49.0611" lon="1.9205">
        <ele>120.6</ele>
        <time>2024-04-13T14:28:15Z</time>
      </trkpt>
      <trkpt lat="49.06118" lon="1.92053">
        <ele>120.3</ele>
        <time>2024-04-13T14:28:21Z</time>
      </trkpt>
      <trkpt lat="49.06124" lon="1.92054">
        <ele>119.8</ele>
        <time>2024-04-13T14:28:27Z</time>
      </trkpt>
      <trkpt lat="49.06133" lon="1.92059">
        <ele>119.5</ele>
        <time>2024-04-13T14:28:33Z</time>
      </trkpt>
      <trkpt lat="49.0614" lon="1.92061">
        <ele>119.2</ele>
        <time>2024-04-13T14:28:39Z</time>
      </trkpt>
      <trkpt lat="49.06147" lon="1.92064">
        <ele>118.8</ele>
        <time>2024-04-13T14:28:45Z</time>
      </trkpt>
      <trkpt lat="49.06156" lon="1.92066">
        <ele>118.5</ele>
        <time>2024-04-13T14:28:51Z</time>
      </trkpt>
      <trkpt lat="49.06165" lon="1.92068">
        <ele>118.5</ele>
        <time>2024-04-13T14:28:57Z</time>
      </trkpt>
      <trkpt lat="49.06171" lon="1.9207">
        <ele>118.5</ele>
        <time>2024-04-13T14:29:03Z</time>
      </trkpt>
      <trkpt lat="49.06181" lon="1.92071">
        <ele>118.7</ele>
        <time>2024-04-13T14:29:08Z</time>
      </trkpt>
      <trkpt lat="49.06186" lon="1.92071">
        <ele>118.9</ele>
        <time>2024-04-13T14:29:13Z</time>
      </trkpt>
      <trkpt lat="49.06192" lon="1.92072">
        <ele>118.8</ele>
        <time>2024-04-13T14:29:18Z</time>
      </trkpt>
      <trkpt lat="49.06198" lon="1.92078">
        <ele>118.5</ele>
        <time>2024-04-13T14:29:24Z</time>
      </trkpt>
      <trkpt lat="49.06197" lon="1.92089">
        <ele>118.2</ele>
        <time>2024-04-13T14:29:30Z</time>
      </trkpt>
      <trkpt lat="49.06197" lon="1.92097">
        <ele>117.9</ele>
        <time>2024-04-13T14:29:35Z</time>
      </trkpt>
      <trkpt lat="49.06198" lon="1.9211">
        <ele>117.7</ele>
        <time>2024-04-13T14:29:41Z</time>
      </trkpt>
      <trkpt lat="49.06197" lon="1.92122">
        <ele>117.4</ele>
        <time>2024-04-13T14:29:47Z</time>
      </trkpt>
      <trkpt lat="49.06196" lon="1.92133">
        <ele>117.1</ele>
        <time>2024-04-13T14:29:52Z</time>
      </trkpt>
      <trkpt lat="49.06197" lon="1.92144">
        <ele>116.7</ele>
        <time>2024-04-13T14:29:58Z</time>
      </trkpt>
      <trkpt lat="49.06197" lon="1.92156">
        <ele>116.6</ele>
        <time>2024-04-13T14:30:04Z</time>
      </trkpt>
      <trkpt lat="49.06198" lon="1.92164">
        <ele>116.6</ele>
        <time>2024-04-13T14:30:09Z</time>
      </trkpt>
      <trkpt lat="49.06198" lon="1.92177">
        <ele>116.6</ele>
        <time>2024-04-13T14:30:15Z</time>
      </trkpt>
      <trkpt lat="49.06197" lon="1.92188">
        <ele>116.7</ele>
        <time>2024-04-13T14:30:21Z</time>
      </trkpt>
      <trkpt lat="49.06197" lon="1.92197">
        <ele>116.9</ele>
        <time>2024-04-13T14:30:26Z</time>
      </trkpt>
      <trkpt lat="49.06196" lon="1.9221">
        <ele>116.9</ele>
        <time>2024-04-13T14:30:32Z</time>
      </trkpt>
      <trkpt lat="49.06196" lon="1.92222">
        <ele>116.9</ele>
        <time>2024-04-13T14:30:38Z</time>
      </trkpt>
      <trkpt lat="49.06196" lon="1.92233">
        <ele>117</ele>
        <time>2024-04-13T14:30:44Z</time>
      </trkpt>
      <trkpt lat="49.06197" lon="1.92247">
        <ele>117.3</ele>
        <time>2024-04-13T14:30:50Z</time>
      </trkpt>
      <trkpt lat="49.06197" lon="1.92257">
        <ele>117.5</ele>
        <time>2024-04-13T14:30:55Z</time>
      </trkpt>
      <trkpt lat="49.06197" lon="1.92268">
        <ele>117.6</ele>
        <time>2024-04-13T14:31:00Z</time>
      </trkpt>
      <trkpt lat="49.06196" lon="1.92279">
        <ele>117.7</ele>
        <time>2024-04-13T14:31:06Z</time>
      </trkpt>
      <trkpt lat="49.06197" lon="1.92288">
        <ele>117.9</ele>
        <time>2024-04-13T14:31:12Z</time>
      </trkpt>
      <trkpt lat="49.06196" lon="1.923">
        <ele>118.1</ele>
        <time>2024-04-13T14:31:17Z</time>
      </trkpt>
      <trkpt lat="49.06195" lon="1.92312">
        <ele>118</ele>
        <time>2024-04-13T14:31:23Z</time>
      </trkpt>
      <trkpt lat="49.06195" lon="1.92325">
        <ele>117.7</ele>
        <time>2024-04-13T14:31:29Z</time>
      </trkpt>
      <trkpt lat="49.06196" lon="1.92337">
        <ele>117.3</ele>
        <time>2024-04-13T14:31:35Z</time>
      </trkpt>
      <trkpt lat="49.06196" lon="1.92351">
        <ele>116.9</ele>
        <time>2024-04-13T14:31:41Z</time>
      </trkpt>
      <trkpt lat="49.06195" lon="1.92362">
        <ele>116.7</ele>
        <time>2024-04-13T14:31:46Z</time>
      </trkpt>
      <trkpt lat="49.06196" lon="1.92372">
        <ele>116.6</ele>
        <time>2024-04-13T14:31:51Z</time>
      </trkpt>
      <trkpt lat="49.06196" lon="1.92384">
        <ele>116.2</ele>
        <time>2024-04-13T14:31:57Z</time>
      </trkpt>
      <trkpt lat="49.06197" lon="1.92396">
        <ele>115.8</ele>
        <time>2024-04-13T14:32:02Z</time>
      </trkpt>
      <trkpt lat="49.06198" lon="1.92406">
        <ele>115.3</ele>
        <time>2024-04-13T14:32:08Z</time>
      </trkpt>
      <trkpt lat="49.06197" lon="1.92418">
        <ele>115.3</ele>
        <time>2024-04-13T14:32:14Z</time>
      </trkpt>
      <trkpt lat="49.06197" lon="1.92431">
        <ele>115.5</ele>
        <time>2024-04-13T14:32:20Z</time>
      </trkpt>
      <trkpt lat="49.06197" lon="1.92442">
        <ele>115.5</ele>
        <time>2024-04-13T14:32:26Z</time>
      </trkpt>
      <trkpt lat="49.06199" lon="1.92456">
        <ele>115.5</ele>
        <time>2024-04-13T14:32:32Z</time>
      </trkpt>
      <trkpt lat="49.062" lon="1.92464">
        <ele>115.5</ele>
        <time>2024-04-13T14:32:37Z</time>
      </trkpt>
      <trkpt lat="49.06202" lon="1.92474">
        <ele>115.4</ele>
        <time>2024-04-13T14:32:42Z</time>
      </trkpt>
      <trkpt lat="49.06203" lon="1.92487">
        <ele>115.2</ele>
        <time>2024-04-13T14:32:47Z</time>
      </trkpt>
      <trkpt lat="49.06201" lon="1.92498">
        <ele>114.9</ele>
        <time>2024-04-13T14:32:53Z</time>
      </trkpt>
      <trkpt lat="49.06202" lon="1.92507">
        <ele>114.8</ele>
        <time>2024-04-13T14:32:58Z</time>
      </trkpt>
      <trkpt lat="49.06203" lon="1.92519">
        <ele>114.9</ele>
        <time>2024-04-13T14:33:04Z</time>
      </trkpt>
      <trkpt lat="49.06205" lon="1.9253">
        <ele>115.1</ele>
        <time>2024-04-13T14:33:10Z</time>
      </trkpt>
      <trkpt lat="49.06207" lon="1.92543">
        <ele>115.1</ele>
        <time>2024-04-13T14:33:16Z</time>
      </trkpt>
      <trkpt lat="49.06208" lon="1.92552">
        <ele>114.8</ele>
        <time>2024-04-13T14:33:21Z</time>
      </trkpt>
      <trkpt lat="49.06208" lon="1.92561">
        <ele>114.5</ele>
        <time>2024-04-13T14:33:26Z</time>
      </trkpt>
      <trkpt lat="49.06211" lon="1.92571">
        <ele>114.2</ele>
        <time>2024-04-13T14:33:32Z</time>
      </trkpt>
      <trkpt lat="49.06212" lon="1.92584">
        <ele>113.8</ele>
        <time>2024-04-13T14:33:38Z</time>
      </trkpt>
      <trkpt lat="49.06213" lon="1.92593">
        <ele>113.5</ele>
        <time>2024-04-13T14:33:43Z</time>
      </trkpt>
      <trkpt lat="49.06214" lon="1.92604">
        <ele>113.2</ele>
        <time>2024-04-13T14:33:49Z</time>
      </trkpt>
      <trkpt lat="49.06216" lon="1.92614">
        <ele>112.8</ele>
        <time>2024-04-13T14:33:55Z</time>
      </trkpt>
      <trkpt lat="49.06218" lon="1.92625">
        <ele>112.6</ele>
        <time>2024-04-13T14:34:00Z</time>
      </trkpt>
      <trkpt lat="49.0622" lon="1.92636">
        <ele>112.3</ele>
        <time>2024-04-13T14:34:06Z</time>
      </trkpt>
      <trkpt lat="49.0622" lon="1.92647">
        <ele>112.1</ele>
        <time>2024-04-13T14:34:11Z</time>
      </trkpt>
      <trkpt lat="49.06221" lon="1.9266">
        <ele>111.9</ele>
        <time>2024-04-13T14:34:17Z</time>
      </trkpt>
      <trkpt lat="49.06224" lon="1.92667">
        <ele>111.7</ele>
        <time>2024-04-13T14:34:22Z</time>
      </trkpt>
      <trkpt lat="49.06225" lon="1.92677">
        <ele>111.5</ele>
        <time>2024-04-13T14:34:27Z</time>
      </trkpt>
      <trkpt lat="49.06226" lon="1.92688">
        <ele>111.3</ele>
        <time>2024-04-13T14:34:32Z</time>
      </trkpt>
      <trkpt lat="49.06226" lon="1.92699">
        <ele>110.9</ele>
        <time>2024-04-13T14:34:38Z</time>
      </trkpt>
      <trkpt lat="49.06226" lon="1.92713">
        <ele>110.5</ele>
        <time>2024-04-13T14:34:44Z</time>
      </trkpt>
      <trkpt lat="49.06228" lon="1.92723">
        <ele>110.1</ele>
        <time>2024-04-13T14:34:50Z</time>
      </trkpt>
      <trkpt lat="49.06231" lon="1.92734">
        <ele>109.7</ele>
        <time>2024-04-13T14:34:56Z</time>
      </trkpt>
      <trkpt lat="49.06232" lon="1.92745">
        <ele>109.5</ele>
        <time>2024-04-13T14:35:01Z</time>
      </trkpt>
      <trkpt lat="49.06233" lon="1.92759">
        <ele>109.4</ele>
        <time>2024-04-13T14:35:09Z</time>
      </trkpt>
      <trkpt lat="49.06234" lon="1.92768">
        <ele>109.6</ele>
        <time>2024-04-13T14:35:14Z</time>
      </trkpt>
      <trkpt lat="49.06235" lon="1.92777">
        <ele>109.7</ele>
        <time>2024-04-13T14:35:19Z</time>
      </trkpt>
      <trkpt lat="49.06234" lon="1.92793">
        <ele>109.9</ele>
        <time>2024-04-13T14:35:25Z</time>
      </trkpt>
      <trkpt lat="49.06236" lon="1.92802">
        <ele>109.9</ele>
        <time>2024-04-13T14:35:31Z</time>
      </trkpt>
      <trkpt lat="49.06238" lon="1.92814">
        <ele>110</ele>
        <time>2024-04-13T14:35:37Z</time>
      </trkpt>
      <trkpt lat="49.06239" lon="1.92823">
        <ele>109.8</ele>
        <time>2024-04-13T14:35:42Z</time>
      </trkpt>
      <trkpt lat="49.0624" lon="1.92835">
        <ele>109.8</ele>
        <time>2024-04-13T14:35:47Z</time>
      </trkpt>
      <trkpt lat="49.06241" lon="1.92842">
        <ele>109.9</ele>
        <time>2024-04-13T14:35:52Z</time>
      </trkpt>
      <trkpt lat="49.06241" lon="1.92855">
        <ele>110.1</ele>
        <time>2024-04-13T14:35:58Z</time>
      </trkpt>
      <trkpt lat="49.06242" lon="1.92865">
        <ele>110.4</ele>
        <time>2024-04-13T14:36:04Z</time>
      </trkpt>
      <trkpt lat="49.06242" lon="1.92874">
        <ele>110.6</ele>
        <time>2024-04-13T14:36:09Z</time>
      </trkpt>
      <trkpt lat="49.06246" lon="1.9289">
        <ele>110.6</ele>
        <time>2024-04-13T14:36:16Z</time>
      </trkpt>
      <trkpt lat="49.06248" lon="1.92899">
        <ele>110.4</ele>
        <time>2024-04-13T14:36:22Z</time>
      </trkpt>
      <trkpt lat="49.06245" lon="1.92913">
        <ele>110.3</ele>
        <time>2024-04-13T14:36:28Z</time>
      </trkpt>
      <trkpt lat="49.06247" lon="1.92925">
        <ele>110.5</ele>
        <time>2024-04-13T14:36:34Z</time>
      </trkpt>
      <trkpt lat="49.06248" lon="1.92937">
        <ele>110.7</ele>
        <time>2024-04-13T14:36:40Z</time>
      </trkpt>
      <trkpt lat="49.06248" lon="1.92948">
        <ele>110.7</ele>
        <time>2024-04-13T14:36:45Z</time>
      </trkpt>
      <trkpt lat="49.06251" lon="1.92956">
        <ele>110.7</ele>
        <time>2024-04-13T14:36:51Z</time>
      </trkpt>
      <trkpt lat="49.06251" lon="1.92966">
        <ele>110.5</ele>
        <time>2024-04-13T14:36:56Z</time>
      </trkpt>
      <trkpt lat="49.06253" lon="1.92976">
        <ele>110.2</ele>
        <time>2024-04-13T14:37:02Z</time>
      </trkpt>
      <trkpt lat="49.06254" lon="1.92986">
        <ele>110.2</ele>
        <time>2024-04-13T14:37:07Z</time>
      </trkpt>
      <trkpt lat="49.06254" lon="1.92997">
        <ele>110.3</ele>
        <time>2024-04-13T14:37:13Z</time>
      </trkpt>
      <trkpt lat="49.06256" lon="1.93008">
        <ele>110.1</ele>
        <time>2024-04-13T14:37:18Z</time>
      </trkpt>
      <trkpt lat="49.06258" lon="1.93019">
        <ele>109.6</ele>
        <time>2024-04-13T14:37:24Z</time>
      </trkpt>
      <trkpt lat="49.06263" lon="1.9303">
        <ele>109</ele>
        <time>2024-04-13T14:37:30Z</time>
      </trkpt>
      <trkpt lat="49.06266" lon="1.93039">
        <ele>108.2</ele>
        <time>2024-04-13T14:37:36Z</time>
      </trkpt>
      <trkpt lat="49.06269" lon="1.93045">
        <ele>107.7</ele>
        <time>2024-04-13T14:37:41Z</time>
      </trkpt>
      <trkpt lat="49.06271" lon="1.93053">
        <ele>107.6</ele>
        <time>2024-04-13T14:37:46Z</time>
      </trkpt>
      <trkpt lat="49.06275" lon="1.93063">
        <ele>107.6</ele>
        <time>2024-04-13T14:37:52Z</time>
      </trkpt>
      <trkpt lat="49.06277" lon="1.93073">
        <ele>107.7</ele>
        <time>2024-04-13T14:37:58Z</time>
      </trkpt>
      <trkpt lat="49.06278" lon="1.93083">
        <ele>107.7</ele>
        <time>2024-04-13T14:38:04Z</time>
      </trkpt>
      <trkpt lat="49.06278" lon="1.93093">
        <ele>107.9</ele>
        <time>2024-04-13T14:38:10Z</time>
      </trkpt>
      <trkpt lat="49.06275" lon="1.93101">
        <ele>108.2</ele>
        <time>2024-04-13T14:38:15Z</time>
      </trkpt>
      <trkpt lat="49.06268" lon="1.93107">
        <ele>108.2</ele>
        <time>2024-04-13T14:38:21Z</time>
      </trkpt>
      <trkpt lat="49.06263" lon="1.93115">
        <ele>108.1</ele>
        <time>2024-04-13T14:38:26Z</time>
      </trkpt>
      <trkpt lat="49.06257" lon="1.93121">
        <ele>107.7</ele>
        <time>2024-04-13T14:38:32Z</time>
      </trkpt>
      <trkpt lat="49.06251" lon="1.9313">
        <ele>107.4</ele>
        <time>2024-04-13T14:38:38Z</time>
      </trkpt>
      <trkpt lat="49.06248" lon="1.93135">
        <ele>107.3</ele>
        <time>2024-04-13T14:38:43Z</time>
      </trkpt>
      <trkpt lat="49.06246" lon="1.93141">
        <ele>107.6</ele>
        <time>2024-04-13T14:38:49Z</time>
      </trkpt>
      <trkpt lat="49.06246" lon="1.9314">
        <ele>107.7</ele>
        <time>2024-04-13T14:38:54Z</time>
      </trkpt>
      <trkpt lat="49.06245" lon="1.93138">
        <ele>107.9</ele>
        <time>2024-04-13T14:39:00Z</time>
      </trkpt>
    </trkseg>
  </trk>
</gpx>